| time (UTC) | temp F | wind direction | speed MPH | gust MPH | rain 1hr in | rain 24hr in | rain mn in | humidity % | barometer mb |
| 20260831000414 | 69 | 133 | 2.0 | 7.0 | 0.00 | 0.80 | 0.80 | 93 | 1016.3 |
| 20260831000337 | 69 | 169 | 2.0 | 7.0 | 0.00 | 0.80 | 0.80 | 93 | 1016.3 |
| 20260831000321 | 69 | 137 | 2.0 | 7.0 | 0.00 | 0.80 | 0.80 | 93 | 1016.3 |
| 20260831000204 | 69 | 117 | 1.0 | 7.0 | 0.00 | 0.80 | 0.80 | 93 | 1015.9 |
| 20260831000109 | 69 | 136 | 2.0 | 7.0 | 0.00 | 0.80 | 0.80 | 93 | 1016.3 |
| 20260830235952 | 69 | 165 | 2.0 | 7.0 | 0.00 | 0.80 | 0.80 | 93 | 1016.3 |
| 20260830235845 | 69 | 154 | 1.0 | 6.0 | 0.00 | 0.80 | 0.80 | 93 | 1016.3 |
| 20260830235830 | 69 | 142 | 1.0 | 6.0 | 0.00 | 0.80 | 0.80 | 93 | 1016.3 |
| 20260830235739 | 69 | 176 | 1.0 | 6.0 | 0.00 | 0.80 | 0.80 | 93 | 1016.3 |
| 20260830235634 | 69 | 115 | 3.0 | 6.0 | 0.00 | 0.80 | 0.80 | 93 | 1016.3 |
| 20260830235528 | 69 | 171 | 1.0 | 6.0 | 0.00 | 0.80 | 0.80 | 93 | 1016.3 |
| 20260830235423 | 69 | 169 | 1.0 | 7.0 | 0.00 | 0.80 | 0.80 | 93 | 1016.3 |
| 20260830235324 | 69 | 147 | 2.0 | 7.0 | 0.00 | 0.80 | 0.80 | 93 | 1016.3 |
| 20260830235317 | 69 | 180 | 2.0 | 7.0 | 0.00 | 0.80 | 0.80 | 93 | 1016.3 |
| 20260830235211 | 69 | 120 | 1.0 | 7.0 | 0.00 | 0.80 | 0.80 | 93 | 1016.3 |
| 20260830235106 | 69 | 152 | 1.0 | 7.0 | 0.00 | 0.80 | 0.80 | 93 | 1016.3 |
| 20260830234959 | 69 | 170 | 2.0 | 7.0 | 0.00 | 0.80 | 0.80 | 93 | 1016.3 |
| 20260830234854 | 69 | 102 | 2.0 | 7.0 | 0.00 | 0.80 | 0.80 | 93 | 1016.3 |
| 20260830234817 | 69 | 145 | 1.0 | 7.0 | 0.00 | 0.80 | 0.80 | 93 | 1016.3 |
| 20260830234749 | 69 | 138 | 2.0 | 7.0 | 0.00 | 0.80 | 0.80 | 93 | 1016.3 |
| 20260830234642 | 69 | 133 | 1.0 | 7.0 | 0.00 | 0.80 | 0.80 | 93 | 1016.6 |
| 20260830234537 | 69 | 116 | 4.0 | 7.0 | 0.00 | 0.80 | 0.80 | 93 | 1016.3 |
| 20260830234432 | 69 | 173 | 0.0 | 7.0 | 0.00 | 0.80 | 0.80 | 92 | 1016.6 |
| 20260830234310 | 69 | 131 | 1.0 | 7.0 | 0.00 | 0.80 | 0.80 | 93 | 1016.3 |
| 20260830234220 | 69 | 109 | 2.0 | 7.0 | 0.00 | 0.80 | 0.80 | 92 | 1016.6 |
| 20260830234113 | 69 | 165 | 2.0 | 7.0 | 0.00 | 0.80 | 0.80 | 93 | 1016.6 |
| 20260830234008 | 69 | 148 | 2.0 | 7.0 | 0.00 | 0.80 | 0.80 | 93 | 1016.3 |
| 20260830233903 | 69 | 57 | 2.0 | 7.0 | 0.00 | 0.80 | 0.80 | 93 | 1016.6 |
| 20260830233804 | 69 | 87 | 1.0 | 7.0 | 0.00 | 0.80 | 0.80 | 93 | 1016.6 |
| 20260830233757 | 69 | 87 | 2.0 | 7.0 | 0.00 | 0.80 | 0.80 | 93 | 1016.6 |
| 20260830233651 | 69 | 145 | 2.0 | 7.0 | 0.00 | 0.80 | 0.80 | 93 | 1016.3 |
| 20260830233546 | 69 | 170 | 2.0 | 7.0 | 0.00 | 0.80 | 0.80 | 93 | 1016.3 |
| 20260830233440 | 69 | 193 | 2.0 | 7.0 | 0.00 | 0.80 | 0.80 | 93 | 1016.3 |
| 20260830233334 | 69 | 130 | 4.0 | 7.0 | 0.00 | 0.80 | 0.80 | 93 | 1016.6 |
| 20260830233258 | 69 | 114 | 2.0 | 7.0 | 0.00 | 0.80 | 0.80 | 93 | 1016.6 |
| 20260830233228 | 69 | 137 | 6.0 | 7.0 | 0.00 | 0.80 | 0.80 | 94 | 1016.3 |
| 20260830233123 | 69 | 164 | 2.0 | 7.0 | 0.00 | 0.80 | 0.80 | 94 | 1016.6 |
| 20260830233031 | 69 | 165 | 1.0 | 7.0 | 0.00 | 0.80 | 0.80 | 94 | 1016.6 |
| 20260830233028 | 69 | 173 | 1.0 | 7.0 | 0.00 | 0.80 | 0.80 | 94 | 1016.3 |
| 20260830233019 | 69 | 98 | 3.0 | 7.0 | 0.00 | 0.80 | 0.80 | 94 | 1016.6 |
| 20260830233010 | 69 | 154 | 3.0 | 7.0 | 0.00 | 0.80 | 0.80 | 94 | 1016.6 |
| 20260830232700 | 69 | 171 | 2.0 | 7.0 | 0.00 | 0.80 | 0.80 | 94 | 1016.6 |
| 20260830232554 | 69 | 148 | 2.0 | 7.0 | 0.00 | 0.80 | 0.80 | 94 | 1016.6 |
| 20260830232529 | 69 | 166 | 3.0 | 7.0 | 0.00 | 0.80 | 0.80 | 94 | 1016.6 |
| 20260830232525 | 69 | 174 | 1.0 | 7.0 | 0.00 | 0.80 | 0.80 | 94 | 1016.3 |
| 20260830232503 | 69 | 148 | 0.0 | 7.0 | 0.00 | 0.80 | 0.80 | 94 | 1016.6 |
| 20260830232237 | 69 | 185 | 2.0 | 7.0 | 0.00 | 0.80 | 0.80 | 94 | 1016.6 |
| 20260830232131 | 69 | 106 | 2.0 | 7.0 | 0.00 | 0.80 | 0.80 | 94 | 1016.9 |
| 20260830232025 | 69 | 115 | 1.0 | 7.0 | 0.00 | 0.80 | 0.80 | 94 | 1016.9 |
| 20260830231920 | 69 | 139 | 2.0 | 7.0 | 0.00 | 0.80 | 0.80 | 94 | 1016.9 |
| 20260830231815 | 69 | 123 | 3.0 | 7.0 | 0.00 | 0.80 | 0.80 | 94 | 1016.9 |
| 20260830231737 | 69 | 131 | 2.0 | 6.0 | 0.00 | 0.80 | 0.80 | 94 | 1016.9 |
| 20260830231708 | 69 | 154 | 1.0 | 6.0 | 0.00 | 0.80 | 0.80 | 94 | 1016.9 |
| 20260830231603 | 69 | 144 | 2.0 | 6.0 | 0.00 | 0.80 | 0.80 | 94 | 1016.9 |
| 20260830231457 | 69 | 113 | 0.0 | 6.0 | 0.00 | 0.80 | 0.80 | 94 | 1016.9 |
| 20260830231352 | 69 | 107 | 3.0 | 4.0 | 0.00 | 0.80 | 0.80 | 94 | 1016.9 |
| 20260830231230 | 69 | 152 | 1.0 | 4.0 | 0.00 | 0.80 | 0.80 | 94 | 1016.6 |
| 20260830231140 | 69 | 141 | 0.0 | 4.0 | 0.00 | 0.80 | 0.80 | 94 | 1016.6 |
| 20260830231035 | 69 | 166 | 2.0 | 4.0 | 0.00 | 0.80 | 0.80 | 94 | 1016.9 |
| 20260830231009 | 69 | 104 | 0.0 | 4.0 | 0.00 | 0.80 | 0.80 | 94 | 1016.9 |
| 20260830231005 | 69 | 125 | 1.0 | 4.0 | 0.00 | 0.80 | 0.80 | 94 | 1016.9 |
| 20260830231001 | 69 | 157 | 1.0 | 4.0 | 0.00 | 0.80 | 0.80 | 94 | 1016.9 |
| 20260830230952 | 69 | 119 | 2.0 | 4.0 | 0.00 | 0.80 | 0.80 | 94 | 1016.9 |
| 20260830230728 | 69 | 110 | 0.0 | 4.0 | 0.00 | 0.80 | 0.80 | 94 | 1016.9 |
| 20260830230720 | 69 | 126 | 1.0 | 4.0 | 0.00 | 0.80 | 0.80 | 94 | 1016.9 |
| 20260830230711 | 69 | 161 | 0.0 | 4.0 | 0.00 | 0.80 | 0.80 | 94 | 1017.3 |
| 20260830230452 | 69 | 148 | 1.0 | 3.0 | 0.00 | 0.80 | 0.80 | 94 | 1017.3 |
| 20260830230448 | 69 | 136 | 0.0 | 4.0 | 0.00 | 0.80 | 0.80 | 94 | 1017.3 |
| 20260830230440 | 69 | 120 | 3.0 | 4.0 | 0.00 | 0.80 | 0.80 | 94 | 1017.3 |
| 20260830230218 | 69 | 112 | 1.0 | 4.0 | 0.00 | 0.80 | 0.80 | 94 | 1016.9 |
| 20260830230210 | 69 | 143 | 1.0 | 4.0 | 0.00 | 0.80 | 0.80 | 94 | 1017.3 |
| 20260830225949 | 69 | 139 | 2.0 | 3.0 | 0.00 | 0.80 | 0.80 | 94 | 1017.3 |
| 20260830225941 | 69 | 127 | 1.0 | 3.0 | 0.00 | 0.80 | 0.80 | 94 | 1016.9 |
| 20260830225932 | 69 | 101 | 2.0 | 3.0 | 0.00 | 0.80 | 0.80 | 94 | 1017.3 |
| 20260830225620 | 69 | 160 | 2.0 | 3.0 | 0.00 | 0.80 | 0.80 | 94 | 1016.9 |
| 20260830225514 | 69 | 139 | 1.0 | 3.0 | 0.00 | 0.80 | 0.80 | 93 | 1017.3 |
| 20260830225439 | 69 | 154 | 0.0 | 2.0 | 0.00 | 0.80 | 0.80 | 93 | 1017.3 |
| 20260830225434 | 69 | 162 | 0.0 | 2.0 | 0.00 | 0.80 | 0.80 | 93 | 1017.3 |
| 20260830225425 | 69 | 161 | 1.0 | 2.0 | 0.00 | 0.80 | 0.80 | 93 | 1017.3 |
| 20260830225158 | 69 | 155 | 1.0 | 2.0 | 0.00 | 0.80 | 0.80 | 93 | 1017.3 |
| 20260830225052 | 69 | 157 | 0.0 | 2.0 | 0.00 | 0.80 | 0.80 | 93 | 1017.3 |
| 20260830224945 | 69 | 161 | 0.0 | 2.0 | 0.00 | 0.80 | 0.80 | 93 | 1017.3 |
| 20260830224840 | 69 | 161 | 0.0 | 2.0 | 0.00 | 0.80 | 0.80 | 93 | 1017.3 |
| 20260830224735 | 69 | 160 | 2.0 | 2.0 | 0.00 | 0.80 | 0.80 | 93 | 1017.3 |
| 20260830224657 | 69 | 110 | 0.0 | 2.0 | 0.00 | 0.80 | 0.80 | 93 | 1017.3 |
| 20260830224629 | 69 | 143 | 0.0 | 2.0 | 0.00 | 0.80 | 0.80 | 93 | 1017.3 |
| 20260830224523 | 69 | 142 | 0.0 | 2.0 | 0.00 | 0.80 | 0.80 | 93 | 1016.9 |
| 20260830224433 | 69 | 130 | 2.0 | 2.0 | 0.00 | 0.80 | 0.80 | 93 | 1016.9 |
| 20260830224428 | 69 | 144 | 0.0 | 2.0 | 0.00 | 0.80 | 0.80 | 93 | 1017.3 |
| 20260830224419 | 69 | 107 | 0.0 | 2.0 | 0.00 | 0.80 | 0.80 | 93 | 1016.9 |
| 20260830224411 | 69 | 130 | 2.0 | 2.0 | 0.00 | 0.80 | 0.80 | 93 | 1016.9 |
| 20260830224100 | 69 | 181 | 0.0 | 2.0 | 0.00 | 0.80 | 0.80 | 93 | 1016.9 |
| 20260830223955 | 69 | 181 | 0.0 | 2.0 | 0.00 | 0.80 | 0.80 | 93 | 1016.9 |
| 20260830223849 | 69 | 181 | 0.0 | 2.0 | 0.00 | 0.80 | 0.80 | 93 | 1017.3 |
| 20260830223743 | 69 | 181 | 0.0 | 2.0 | 0.00 | 0.80 | 0.80 | 93 | 1016.9 |
| 20260830223644 | 69 | 154 | 1.0 | 2.0 | 0.00 | 0.80 | 0.80 | 93 | 1017.3 |
| 20260830223637 | 69 | 128 | 1.0 | 2.0 | 0.00 | 0.80 | 0.80 | 93 | 1017.3 |
| 20260830223532 | 69 | 167 | 0.0 | 1.0 | 0.00 | 0.80 | 0.80 | 93 | 1017.3 |
| 20260830223425 | 69 | 102 | 0.0 | 1.0 | 0.00 | 0.80 | 0.80 | 93 | 1016.9 |
| 20260830223321 | 70 | 124 | 0.0 | 1.0 | 0.00 | 0.80 | 0.80 | 93 | 1016.9 |
| 20260830223214 | 70 | 123 | 0.0 | 1.0 | 0.00 | 0.80 | 0.80 | 93 | 1017.3 |
| 20260830223137 | 70 | 128 | 0.0 | 1.0 | 0.00 | 0.80 | 0.80 | 94 | 1017.3 |
| 20260830223109 | 69 | 131 | 0.0 | 1.0 | 0.00 | 0.80 | 0.80 | 94 | 1017.3 |
| 20260830223004 | 70 | 149 | 0.0 | 1.0 | 0.00 | 0.80 | 0.80 | 93 | 1017.3 |
| 20260830222906 | 70 | 116 | 0.0 | 2.0 | 0.00 | 0.80 | 0.80 | 93 | 1017.7 |
| 20260830222858 | 70 | 134 | 0.0 | 2.0 | 0.00 | 0.80 | 0.80 | 93 | 1017.3 |
| 20260830222849 | 70 | 140 | 0.0 | 2.0 | 0.00 | 0.80 | 0.80 | 93 | 1017.3 |
| 20260830222543 | 70 | 140 | 1.0 | 2.0 | 0.00 | 0.80 | 0.80 | 93 | 1017.3 |
| 20260830222436 | 70 | 163 | 0.0 | 2.0 | 0.00 | 0.80 | 0.80 | 93 | 1017.7 |
| 20260830222331 | 70 | 157 | 0.0 | 2.0 | 0.00 | 0.80 | 0.80 | 93 | 1017.3 |
| 20260830222225 | 70 | 154 | 1.0 | 2.0 | 0.00 | 0.80 | 0.80 | 93 | 1017.3 |
| 20260830222119 | 70 | 169 | 1.0 | 2.0 | 0.00 | 0.80 | 0.80 | 93 | 1017.3 |
| 20260830222014 | 70 | 153 | 1.0 | 2.0 | 0.00 | 0.80 | 0.80 | 93 | 1017.7 |
| 20260830221908 | 70 | 148 | 0.0 | 2.0 | 0.00 | 0.80 | 0.80 | 93 | 1017.3 |
| 20260830221802 | 70 | 148 | 0.0 | 2.0 | 0.00 | 0.80 | 0.80 | 93 | 1017.3 |
| 20260830221705 | 70 | 164 | 1.0 | 4.0 | 0.00 | 0.80 | 0.80 | 93 | 1017.3 |
| 20260830221701 | 70 | 148 | 1.0 | 2.0 | 0.00 | 0.80 | 0.80 | 93 | 1016.9 |
| 20260830221650 | 70 | 154 | 1.0 | 2.0 | 0.00 | 0.80 | 0.80 | 93 | 1017.3 |
| 20260830221646 | 70 | 153 | 1.0 | 2.0 | 0.00 | 0.80 | 0.80 | 93 | 1017.3 |
| 20260830221625 | 70 | 165 | 0.0 | 2.0 | 0.00 | 0.80 | 0.80 | 93 | 1017.3 |
| 20260830221400 | 70 | 174 | 0.0 | 2.0 | 0.00 | 0.80 | 0.80 | 93 | 1017.3 |
| 20260830221352 | 70 | 174 | 1.0 | 2.0 | 0.00 | 0.80 | 0.80 | 93 | 1016.9 |
| 20260830221120 | 70 | 174 | 1.0 | 2.0 | 0.00 | 0.80 | 0.80 | 93 | 1016.9 |
| 20260830221116 | 70 | 174 | 1.0 | 2.0 | 0.00 | 0.80 | 0.80 | 93 | 1016.9 |
| 20260830221108 | 70 | 174 | 2.0 | 2.0 | 0.00 | 0.80 | 0.80 | 93 | 1016.9 |
| 20260830220843 | 70 | 135 | 0.0 | 4.0 | 0.00 | 0.80 | 0.80 | 93 | 1016.9 |
| 20260830220834 | 70 | 133 | 0.0 | 4.0 | 0.00 | 0.80 | 0.80 | 93 | 1016.9 |
| 20260830220611 | 70 | 133 | 1.0 | 4.0 | 0.00 | 0.80 | 0.80 | 93 | 1016.9 |
| 20260830220607 | 70 | 133 | 1.0 | 4.0 | 0.00 | 0.80 | 0.80 | 93 | 1016.9 |
| 20260830220559 | 70 | 131 | 1.0 | 4.0 | 0.00 | 0.80 | 0.80 | 93 | 1016.9 |
| 20260830220550 | 70 | 104 | 0.0 | 4.0 | 0.00 | 0.80 | 0.80 | 93 | 1016.9 |
| 20260830220327 | 70 | 106 | 2.0 | 4.0 | 0.00 | 0.80 | 0.80 | 93 | 1016.9 |
| 20260830220318 | 70 | 98 | 1.0 | 4.0 | 0.00 | 0.80 | 0.80 | 93 | 1016.9 |
| 20260830220031 | 70 | 164 | 1.0 | 4.0 | 0.00 | 0.80 | 0.80 | 93 | 1016.9 |
| 20260830215924 | 70 | 118 | 0.0 | 4.0 | 0.00 | 0.80 | 0.80 | 93 | 1016.9 |
| 20260830215832 | 70 | 178 | 0.0 | 3.0 | 0.00 | 0.80 | 0.80 | 94 | 1016.9 |
| 20260830215828 | 70 | 140 | 2.0 | 4.0 | 0.00 | 0.80 | 0.80 | 94 | 1016.9 |
| 20260830215820 | 70 | 184 | 2.0 | 3.0 | 0.00 | 0.80 | 0.80 | 93 | 1016.9 |
| 20260830215811 | 70 | 171 | 1.0 | 3.0 | 0.00 | 0.80 | 0.80 | 94 | 1016.9 |
| 20260830215501 | 70 | 179 | 1.0 | 3.0 | 0.00 | 0.80 | 0.80 | 94 | 1016.9 |
| 20260830215356 | 70 | 179 | 2.0 | 3.0 | 0.00 | 0.80 | 0.80 | 93 | 1017.3 |
| 20260830215317 | 70 | 189 | 1.0 | 3.0 | 0.00 | 0.80 | 0.80 | 93 | 1016.9 |
| 20260830215312 | 70 | 162 | 0.0 | 3.0 | 0.00 | 0.80 | 0.80 | 94 | 1016.9 |
| 20260830215305 | 70 | 131 | 1.0 | 3.0 | 0.00 | 0.80 | 0.80 | 93 | 1016.9 |
| 20260830215038 | 70 | 189 | 1.0 | 3.0 | 0.00 | 0.80 | 0.80 | 93 | 1016.9 |
| 20260830214933 | 70 | 189 | 0.0 | 3.0 | 0.00 | 0.80 | 0.80 | 93 | 1016.9 |
| 20260830214827 | 70 | 189 | 1.0 | 3.0 | 0.00 | 0.80 | 0.80 | 93 | 1016.9 |
| 20260830214722 | 70 | 175 | 1.0 | 2.0 | 0.00 | 0.80 | 0.80 | 93 | 1016.9 |
| 20260830214615 | 70 | 169 | 1.0 | 2.0 | 0.00 | 0.80 | 0.80 | 93 | 1016.9 |
| 20260830214538 | 70 | 167 | 0.0 | 2.0 | 0.00 | 0.80 | 0.80 | 93 | 1016.9 |
| 20260830214510 | 70 | 167 | 0.0 | 2.0 | 0.00 | 0.80 | 0.80 | 93 | 1017.3 |
| 20260830214404 | 70 | 167 | 0.0 | 2.0 | 0.00 | 0.80 | 0.80 | 94 | 1016.9 |
| 20260830214307 | 70 | 167 | 0.0 | 2.0 | 0.00 | 0.80 | 0.80 | 94 | 1017.3 |
| 20260830214259 | 70 | 159 | 0.0 | 3.0 | 0.00 | 0.80 | 0.80 | 93 | 1016.9 |
| 20260830214250 | 70 | 196 | 0.0 | 3.0 | 0.00 | 0.80 | 0.80 | 93 | 1017.3 |
| 20260830213941 | 70 | 202 | 0.0 | 3.0 | 0.00 | 0.80 | 0.80 | 93 | 1016.9 |
| 20260830213835 | 70 | 202 | 1.0 | 3.0 | 0.00 | 0.80 | 0.80 | 94 | 1017.3 |
| 20260830213756 | 70 | 182 | 0.0 | 3.0 | 0.00 | 0.80 | 0.80 | 94 | 1016.9 |
| 20260830213751 | 70 | 202 | 1.0 | 3.0 | 0.00 | 0.80 | 0.80 | 93 | 1017.3 |
| 20260830213742 | 70 | 191 | 1.0 | 3.0 | 0.00 | 0.80 | 0.80 | 93 | 1017.3 |
| 20260830213519 | 70 | 182 | 1.0 | 3.0 | 0.00 | 0.80 | 0.80 | 93 | 1016.9 |
| 20260830213412 | 70 | 191 | 0.0 | 3.0 | 0.00 | 0.80 | 0.80 | 94 | 1016.9 |
| 20260830213307 | 70 | 191 | 2.0 | 3.0 | 0.00 | 0.80 | 0.80 | 93 | 1017.3 |
| 20260830213248 | 70 | 147 | 1.0 | 2.0 | 0.00 | 0.80 | 0.80 | 93 | 1017.3 |
| 20260830213244 | 70 | 206 | 2.0 | 3.0 | 0.00 | 0.80 | 0.80 | 93 | 1016.9 |
| 20260830213236 | 70 | 180 | 1.0 | 2.0 | 0.00 | 0.80 | 0.80 | 93 | 1016.9 |
| 20260830212950 | 70 | 177 | 1.0 | 2.0 | 0.00 | 0.80 | 0.80 | 93 | 1017.3 |
| 20260830212845 | 70 | 170 | 1.0 | 2.0 | 0.00 | 0.80 | 0.80 | 93 | 1016.9 |
| 20260830212755 | 70 | 171 | 0.0 | 2.0 | 0.00 | 0.80 | 0.80 | 93 | 1016.9 |
| 20260830212751 | 70 | 178 | 2.0 | 2.0 | 0.00 | 0.80 | 0.80 | 93 | 1016.9 |
| 20260830212743 | 70 | 177 | 1.0 | 2.0 | 0.00 | 0.80 | 0.80 | 93 | 1016.9 |
| 20260830212734 | 70 | 180 | 1.0 | 2.0 | 0.00 | 0.80 | 0.80 | 93 | 1016.9 |
| 20260830212434 | 70 | 177 | 1.0 | 2.0 | 0.00 | 0.80 | 0.80 | 93 | 1017.3 |
| 20260830212315 | 70 | 176 | 0.0 | 2.0 | 0.00 | 0.80 | 0.80 | 93 | 1016.9 |
| 20260830212239 | 70 | 184 | 0.0 | 2.0 | 0.00 | 0.80 | 0.80 | 93 | 1016.9 |
| 20260830212235 | 70 | 172 | 1.0 | 2.0 | 0.00 | 0.80 | 0.80 | 93 | 1016.9 |
| 20260830212227 | 70 | 172 | 0.0 | 2.0 | 0.00 | 0.80 | 0.80 | 93 | 1016.9 |
| 20260830211958 | 70 | 184 | 0.0 | 2.0 | 0.00 | 0.80 | 0.80 | 93 | 1016.9 |
| 20260830211853 | 70 | 184 | 1.0 | 2.0 | 0.00 | 0.80 | 0.80 | 93 | 1016.9 |
| 20260830211748 | 70 | 173 | 1.0 | 2.0 | 0.00 | 0.80 | 0.80 | 93 | 1017.3 |
| 20260830211641 | 70 | 149 | 0.0 | 3.0 | 0.00 | 0.80 | 0.80 | 93 | 1016.9 |
| 20260830211536 | 70 | 170 | 1.0 | 3.0 | 0.00 | 0.80 | 0.80 | 93 | 1016.9 |
| 20260830211507 | 70 | 162 | 0.0 | 3.0 | 0.00 | 0.80 | 0.80 | 92 | 1016.9 |
| 20260830211501 | 70 | 156 | 1.0 | 3.0 | 0.00 | 0.80 | 0.80 | 93 | 1016.6 |
| 20260830211457 | 70 | 175 | 0.0 | 3.0 | 0.00 | 0.80 | 0.80 | 93 | 1016.9 |
| 20260830211448 | 70 | 162 | 0.0 | 3.0 | 0.00 | 0.80 | 0.80 | 93 | 1016.6 |
| 20260830211228 | 70 | 176 | 0.0 | 3.0 | 0.00 | 0.80 | 0.80 | 93 | 1016.9 |
| 20260830211220 | 70 | 177 | 0.0 | 3.0 | 0.00 | 0.80 | 0.80 | 92 | 1016.9 |
| 20260830211211 | 70 | 162 | 0.0 | 3.0 | 0.00 | 0.80 | 0.80 | 92 | 1016.9 |
| 20260830210950 | 70 | 175 | 1.0 | 4.0 | 0.00 | 0.80 | 0.80 | 92 | 1016.9 |
| 20260830210945 | 70 | 175 | 0.0 | 3.0 | 0.00 | 0.80 | 0.80 | 92 | 1016.9 |
| 20260830210936 | 70 | 168 | 1.0 | 4.0 | 0.00 | 0.80 | 0.80 | 92 | 1016.9 |
| 20260830210713 | 70 | 158 | 2.0 | 4.0 | 0.00 | 0.80 | 0.80 | 92 | 1016.9 |
| 20260830210704 | 70 | 147 | 2.0 | 4.0 | 0.00 | 0.80 | 0.80 | 92 | 1016.9 |
| 20260830210439 | 70 | 177 | 2.0 | 4.0 | 0.00 | 0.80 | 0.80 | 92 | 1016.9 |
| 20260830210333 | 71 | 174 | 1.0 | 4.0 | 0.00 | 0.80 | 0.80 | 92 | 1016.9 |
| 20260830210228 | 70 | 174 | 1.0 | 4.0 | 0.00 | 0.80 | 0.80 | 92 | 1016.9 |
| 20260830210121 | 70 | 171 | 1.0 | 4.0 | 0.00 | 0.80 | 0.80 | 91 | 1016.6 |
| 20260830210016 | 70 | 135 | 1.0 | 4.0 | 0.00 | 0.80 | 0.80 | 91 | 1016.9 |
| 20260830205938 | 70 | 183 | 3.0 | 4.0 | 0.00 | 0.80 | 0.80 | 91 | 1016.9 |
| 20260830205910 | 70 | 154 | 3.0 | 4.0 | 0.00 | 0.80 | 0.80 | 91 | 1016.9 |
| 20260830205811 | 70 | 176 | 1.0 | 4.0 | 0.00 | 0.80 | 0.80 | 91 | 1016.6 |
| 20260830205713 | 70 | 135 | 3.0 | 4.0 | 0.00 | 0.80 | 0.80 | 91 | 1016.6 |
| 20260830205704 | 70 | 175 | 2.0 | 4.0 | 0.00 | 0.80 | 0.80 | 91 | 1016.9 |
| 20260830205655 | 70 | 182 | 2.0 | 4.0 | 0.00 | 0.80 | 0.80 | 91 | 1016.6 |
| 20260830205347 | 71 | 200 | 2.0 | 4.0 | 0.00 | 0.80 | 0.80 | 91 | 1016.9 |
| 20260830205242 | 71 | 174 | 2.0 | 4.0 | 0.00 | 0.80 | 0.80 | 91 | 1016.6 |
| 20260830205206 | 71 | 157 | 0.0 | 7.0 | 0.00 | 0.80 | 0.80 | 91 | 1016.9 |
| 20260830205202 | 71 | 175 | 2.0 | 4.0 | 0.00 | 0.80 | 0.80 | 91 | 1016.9 |
| 20260830205153 | 71 | 176 | 1.0 | 4.0 | 0.00 | 0.80 | 0.80 | 91 | 1016.9 |
| 20260830204924 | 71 | 141 | 0.0 | 7.0 | 0.00 | 0.80 | 0.80 | 91 | 1016.6 |
| 20260830204819 | 70 | 165 | 1.0 | 7.0 | 0.00 | 0.80 | 0.80 | 91 | 1016.9 |
| 20260830204713 | 70 | 139 | 0.0 | 7.0 | 0.00 | 0.80 | 0.80 | 91 | 1016.6 |
| 20260830204607 | 71 | 125 | 4.0 | 7.0 | 0.00 | 0.80 | 0.80 | 91 | 1016.6 |
| 20260830204501 | 71 | 187 | 2.0 | 7.0 | 0.00 | 0.80 | 0.80 | 91 | 1016.9 |
| 20260830204423 | 71 | 158 | 2.0 | 7.0 | 0.00 | 0.80 | 0.80 | 91 | 1016.9 |
| 20260830204355 | 70 | 179 | 1.0 | 7.0 | 0.00 | 0.80 | 0.80 | 91 | 1016.9 |
| 20260830204250 | 70 | 188 | 1.0 | 7.0 | 0.00 | 0.80 | 0.80 | 91 | 1016.9 |
| 20260830204200 | 70 | 129 | 2.0 | 4.0 | 0.00 | 0.80 | 0.80 | 91 | 1016.6 |
| 20260830204156 | 70 | 137 | 0.0 | 7.0 | 0.00 | 0.80 | 0.80 | 92 | 1016.9 |
| 20260830204147 | 70 | 220 | 2.0 | 7.0 | 0.00 | 0.80 | 0.80 | 91 | 1016.3 |
| 20260830204139 | 70 | 181 | 3.0 | 4.0 | 0.00 | 0.80 | 0.80 | 92 | 1016.6 |
| 20260830203828 | 70 | 126 | 3.0 | 4.0 | 0.00 | 0.80 | 0.80 | 91 | 1016.6 |
| 20260830203721 | 70 | 163 | 3.0 | 4.0 | 0.00 | 0.80 | 0.80 | 91 | 1016.6 |
| 20260830203616 | 70 | 155 | 2.0 | 6.0 | 0.00 | 0.80 | 0.80 | 92 | 1016.6 |
| 20260830203522 | 70 | 114 | 1.0 | 6.0 | 0.00 | 0.80 | 0.80 | 92 | 1016.6 |
| 20260830203410 | 70 | 146 | 3.0 | 6.0 | 0.00 | 0.80 | 0.80 | 91 | 1016.6 |
| 20260830203403 | 70 | 127 | 3.0 | 6.0 | 0.00 | 0.80 | 0.80 | 91 | 1016.6 |
| 20260830203258 | 70 | 152 | 1.0 | 6.0 | 0.00 | 0.80 | 0.80 | 91 | 1016.6 |
| 20260830203152 | 70 | 107 | 1.0 | 6.0 | 0.00 | 0.80 | 0.80 | 91 | 1016.6 |
| 20260830203047 | 70 | 170 | 2.0 | 6.0 | 0.00 | 0.80 | 0.80 | 91 | 1016.6 |
| 20260830202941 | 70 | 118 | 2.0 | 6.0 | 0.00 | 0.80 | 0.80 | 91 | 1016.6 |
| 20260830202904 | 70 | 96 | 1.0 | 6.0 | 0.00 | 0.80 | 0.80 | 91 | 1016.6 |
| 20260830202836 | 70 | 96 | 2.0 | 6.0 | 0.00 | 0.80 | 0.80 | 91 | 1016.6 |
| 20260830202729 | 71 | 129 | 3.0 | 6.0 | 0.00 | 0.80 | 0.80 | 91 | 1016.6 |
| 20260830202624 | 71 | 180 | 2.0 | 6.0 | 0.00 | 0.80 | 0.80 | 91 | 1016.6 |
| 20260830202518 | 71 | 126 | 1.0 | 6.0 | 0.00 | 0.80 | 0.80 | 91 | 1016.6 |
| 20260830202413 | 70 | 149 | 1.0 | 6.0 | 0.00 | 0.80 | 0.80 | 91 | 1016.6 |
| 20260830202357 | 70 | 149 | 1.0 | 6.0 | 0.00 | 0.80 | 0.80 | 91 | 1016.6 |
| 20260830202307 | 70 | 112 | 2.0 | 6.0 | 0.00 | 0.80 | 0.80 | 91 | 1016.9 |
| 20260830202201 | 70 | 177 | 1.0 | 6.0 | 0.00 | 0.80 | 0.80 | 91 | 1016.9 |
| 20260830202056 | 70 | 174 | 1.0 | 4.0 | 0.00 | 0.80 | 0.80 | 91 | 1016.9 |
| 20260830201950 | 70 | 141 | 2.0 | 4.0 | 0.00 | 0.80 | 0.80 | 91 | 1016.9 |
| 20260830201851 | 70 | 129 | 1.0 | 4.0 | 0.00 | 0.80 | 0.80 | 92 | 1016.6 |
| 20260830201844 | 70 | 167 | 1.0 | 4.0 | 0.00 | 0.80 | 0.80 | 92 | 1016.6 |
| 20260830201738 | 70 | 125 | 1.0 | 4.0 | 0.00 | 0.80 | 0.80 | 92 | 1016.6 |
| 20260830201633 | 70 | 175 | 0.0 | 4.0 | 0.00 | 0.80 | 0.80 | 92 | 1016.6 |
| 20260830201620 | 70 | 155 | 2.0 | 3.0 | 0.00 | 0.80 | 0.80 | 92 | 1016.6 |
| 20260830201611 | 70 | 129 | 4.0 | 4.0 | 0.00 | 0.80 | 0.80 | 92 | 1016.9 |
| 20260830201602 | 70 | 189 | 1.0 | 3.0 | 0.00 | 0.80 | 0.80 | 92 | 1016.6 |
| 20260830201315 | 70 | 139 | 2.0 | 3.0 | 0.00 | 0.80 | 0.80 | 92 | 1016.9 |
| 20260830201210 | 70 | 160 | 1.0 | 3.0 | 0.00 | 0.80 | 0.80 | 92 | 1016.6 |
| 20260830201117 | 70 | 182 | 2.0 | 3.0 | 0.00 | 0.80 | 0.80 | 92 | 1016.6 |
| 20260830201113 | 70 | 185 | 3.0 | 3.0 | 0.00 | 0.80 | 0.80 | 92 | 1016.6 |
| 20260830201104 | 70 | 184 | 1.0 | 3.0 | 0.00 | 0.80 | 0.80 | 92 | 1016.9 |
| 20260830201055 | 70 | 181 | 1.0 | 3.0 | 0.00 | 0.80 | 0.80 | 92 | 1016.6 |
| 20260830200747 | 70 | 172 | 2.0 | 3.0 | 0.00 | 0.80 | 0.80 | 92 | 1016.9 |
| 20260830200642 | 70 | 166 | 1.0 | 3.0 | 0.00 | 0.80 | 0.80 | 92 | 1016.6 |
| 20260830200535 | 70 | 150 | 0.0 | 6.0 | 0.00 | 0.80 | 0.80 | 92 | 1016.9 |
| 20260830200430 | 70 | 156 | 1.0 | 6.0 | 0.00 | 0.80 | 0.80 | 92 | 1016.6 |
| 20260830200331 | 70 | 166 | 1.0 | 6.0 | 0.00 | 0.80 | 0.80 | 92 | 1016.6 |
| 20260830200324 | 70 | 159 | 1.0 | 6.0 | 0.00 | 0.80 | 0.80 | 92 | 1016.6 |
| 20260830200218 | 70 | 172 | 1.0 | 6.0 | 0.00 | 0.80 | 0.80 | 92 | 1016.6 |
| 20260830200115 | 70 | 172 | 1.0 | 6.0 | 0.00 | 0.80 | 0.80 | 92 | 1016.9 |
| 20260830200106 | 70 | 120 | 2.0 | 6.0 | 0.00 | 0.80 | 0.80 | 92 | 1016.9 |
| 20260830200041 | 70 | 110 | 1.0 | 6.0 | 0.00 | 0.80 | 0.80 | 92 | 1016.6 |
| 20260830195754 | 70 | 208 | 3.0 | 6.0 | 0.00 | 0.80 | 0.80 | 92 | 1016.9 |
| 20260830195649 | 70 | 177 | 1.0 | 6.0 | 0.00 | 0.80 | 0.80 | 92 | 1016.9 |
| 20260830195543 | 70 | 143 | 4.0 | 6.0 | 0.00 | 0.80 | 0.80 | 92 | 1016.9 |
| 20260830195437 | 70 | 205 | 2.0 | 6.0 | 0.00 | 0.80 | 0.80 | 92 | 1016.9 |
| 20260830195317 | 70 | 161 | 2.0 | 6.0 | 0.00 | 0.80 | 0.80 | 93 | 1016.9 |
| 20260830195226 | 70 | 107 | 4.0 | 6.0 | 0.00 | 0.80 | 0.80 | 92 | 1016.9 |
| 20260830195134 | 70 | 148 | 1.0 | 4.0 | 0.00 | 0.80 | 0.80 | 93 | 1016.9 |
| 20260830195014 | 70 | 179 | 2.0 | 4.0 | 0.00 | 0.80 | 0.80 | 93 | 1016.6 |
| 20260830194909 | 70 | 199 | 2.0 | 4.0 | 0.00 | 0.80 | 0.80 | 93 | 1016.9 |
| 20260830194810 | 69 | 149 | 0.0 | 4.0 | 0.00 | 0.80 | 0.80 | 93 | 1016.9 |
| 20260830194803 | 69 | 149 | 0.0 | 4.0 | 0.00 | 0.80 | 0.80 | 93 | 1016.9 |
| 20260830194657 | 69 | 149 | 0.0 | 4.0 | 0.00 | 0.80 | 0.80 | 93 | 1016.9 |
| 20260830194552 | 69 | 198 | 3.0 | 4.0 | 0.00 | 0.80 | 0.80 | 93 | 1016.9 |
| 20260830194446 | 69 | 167 | 1.0 | 4.0 | 0.00 | 0.80 | 0.80 | 93 | 1016.9 |
| 20260830194340 | 69 | 137 | 4.0 | 4.0 | 0.00 | 0.80 | 0.80 | 93 | 1016.9 |
| 20260830194302 | 69 | 160 | 1.0 | 3.0 | 0.00 | 0.80 | 0.80 | 93 | 1016.9 |
| 20260830194235 | 69 | 119 | 1.0 | 3.0 | 0.00 | 0.80 | 0.80 | 93 | 1016.9 |
| 20260830194129 | 69 | 120 | 2.0 | 4.0 | 0.00 | 0.80 | 0.80 | 93 | 1017.3 |
| 20260830194024 | 69 | 137 | 1.0 | 4.0 | 0.00 | 0.80 | 0.80 | 93 | 1017.3 |
| 20260830193917 | 69 | 127 | 2.0 | 4.0 | 0.00 | 0.80 | 0.80 | 93 | 1016.9 |
| 20260830193813 | 69 | 167 | 1.0 | 4.0 | 0.00 | 0.80 | 0.80 | 93 | 1016.9 |
| 20260830193757 | 69 | 168 | 1.0 | 4.0 | 0.00 | 0.80 | 0.80 | 94 | 1016.9 |
| 20260830193706 | 69 | 168 | 0.0 | 4.0 | 0.00 | 0.80 | 0.80 | 94 | 1016.9 |
| 20260830193600 | 69 | 159 | 0.0 | 4.0 | 0.00 | 0.80 | 0.80 | 94 | 1016.9 |
| 20260830193523 | 69 | 152 | 3.0 | 4.0 | 0.00 | 0.80 | 0.80 | 94 | 1016.9 |
| 20260830193519 | 69 | 148 | 0.0 | 4.0 | 0.00 | 0.80 | 0.80 | 94 | 1016.9 |
| 20260830193510 | 69 | 191 | 1.0 | 4.0 | 0.00 | 0.80 | 0.80 | 94 | 1016.9 |
| 20260830193243 | 69 | 148 | 3.0 | 4.0 | 0.00 | 0.80 | 0.80 | 94 | 1016.9 |
| 20260830193150 | 69 | 125 | 2.0 | 4.0 | 0.00 | 0.80 | 0.80 | 94 | 1016.9 |
| 20260830193032 | 69 | 145 | 2.0 | 4.0 | 0.00 | 0.80 | 0.80 | 94 | 1016.9 |
| 20260830193016 | 69 | 87 | 3.0 | 4.0 | 0.00 | 0.80 | 0.80 | 94 | 1016.9 |
| 20260830193012 | 69 | 181 | 2.0 | 4.0 | 0.00 | 0.80 | 0.80 | 94 | 1016.6 |
| 20260830193004 | 69 | 95 | 3.0 | 4.0 | 0.00 | 0.80 | 0.80 | 94 | 1016.9 |
| 20260830192714 | 69 | 114 | 1.0 | 3.0 | 0.00 | 0.80 | 0.80 | 95 | 1016.9 |
| 20260830192609 | 69 | 180 | 1.0 | 3.0 | 0.00 | 0.80 | 0.80 | 95 | 1016.9 |
| 20260830192504 | 69 | 139 | 3.0 | 3.0 | 0.00 | 0.80 | 0.80 | 95 | 1016.6 |
| 20260830192357 | 69 | 155 | 0.0 | 3.0 | 0.00 | 0.80 | 0.80 | 95 | 1016.6 |
| 20260830192237 | 69 | 110 | 1.0 | 3.0 | 0.00 | 0.80 | 0.80 | 95 | 1016.9 |
| 20260830192146 | 69 | 110 | 0.0 | 3.0 | 0.00 | 0.80 | 0.80 | 95 | 1017.3 |
| 20260830192053 | 69 | 110 | 0.0 | 3.0 | 0.00 | 0.80 | 0.80 | 95 | 1016.9 |
| 20260830192001 | 69 | 141 | 1.0 | 3.0 | 0.00 | 0.80 | 0.80 | 95 | 1016.9 |
| 20260830191957 | 69 | 110 | 0.0 | 3.0 | 0.00 | 0.80 | 0.80 | 95 | 1016.9 |
| 20260830191948 | 69 | 110 | 0.0 | 3.0 | 0.00 | 0.80 | 0.80 | 95 | 1016.9 |
| 20260830191723 | 69 | 141 | 1.0 | 3.0 | 0.00 | 0.80 | 0.80 | 95 | 1016.9 |
| 20260830191618 | 69 | 177 | 0.0 | 4.0 | 0.00 | 0.80 | 0.80 | 95 | 1017.3 |
| 20260830191512 | 69 | 115 | 1.0 | 4.0 | 0.00 | 0.80 | 0.80 | 95 | 1017.3 |
| 20260830191406 | 69 | 159 | 2.0 | 4.0 | 0.00 | 0.80 | 0.80 | 95 | 1016.9 |
| 20260830191300 | 69 | 154 | 2.0 | 4.0 | 0.00 | 0.80 | 0.80 | 95 | 1016.9 |
| 20260830191223 | 69 | 153 | 0.0 | 4.0 | 0.00 | 0.80 | 0.80 | 95 | 1016.9 |
| 20260830191154 | 69 | 152 | 0.0 | 4.0 | 0.00 | 0.80 | 0.80 | 95 | 1016.9 |
| 20260830191049 | 69 | 148 | 0.0 | 4.0 | 0.00 | 0.80 | 0.80 | 95 | 1017.3 |
| 20260830190944 | 69 | 104 | 1.0 | 4.0 | 0.00 | 0.80 | 0.80 | 95 | 1016.9 |
| 20260830190838 | 69 | 119 | 2.0 | 4.0 | 0.00 | 0.80 | 0.80 | 95 | 1016.9 |
| 20260830190732 | 69 | 135 | 2.0 | 4.0 | 0.00 | 0.80 | 0.80 | 95 | 1016.9 |
| 20260830190717 | 69 | 109 | 4.0 | 4.0 | 0.00 | 0.80 | 0.80 | 95 | 1016.9 |
| 20260830190626 | 69 | 154 | 2.0 | 3.0 | 0.00 | 0.80 | 0.80 | 95 | 1016.9 |
| 20260830190521 | 69 | 157 | 0.0 | 3.0 | 0.00 | 0.80 | 0.80 | 95 | 1016.9 |
| 20260830190414 | 69 | 197 | 0.0 | 3.0 | 0.00 | 0.80 | 0.80 | 95 | 1017.3 |
| 20260830190310 | 69 | 107 | 0.0 | 2.0 | 0.00 | 0.80 | 0.80 | 95 | 1016.9 |
| 20260830190210 | 69 | 138 | 0.0 | 2.0 | 0.00 | 0.80 | 0.80 | 95 | 1017.3 |
| 20260830190204 | 69 | 138 | 0.0 | 2.0 | 0.00 | 0.80 | 0.80 | 95 | 1017.3 |
| 20260830190111 | 69 | 120 | 1.0 | 2.0 | 0.00 | 0.80 | 0.80 | 95 | 1017.3 |
| 20260830185953 | 69 | 130 | 0.0 | 1.0 | 0.00 | 0.80 | 0.80 | 95 | 1017.3 |
| 20260830185847 | 68 | 138 | 0.0 | 1.0 | 0.00 | 0.80 | 0.80 | 95 | 1017.3 |
| 20260830185740 | 68 | 127 | 0.0 | 1.0 | 0.00 | 0.80 | 0.80 | 95 | 1017.3 |
| 20260830185703 | 68 | 128 | 0.0 | 1.0 | 0.00 | 0.80 | 0.80 | 95 | 1016.9 |
| 20260830185635 | 68 | 125 | 0.0 | 1.0 | 0.00 | 0.80 | 0.80 | 95 | 1016.9 |
| 20260830185529 | 69 | 141 | 0.0 | 1.0 | 0.00 | 0.80 | 0.80 | 95 | 1017.3 |
| 20260830185423 | 69 | 81 | 0.0 | 0.0 | 0.00 | 0.80 | 0.80 | 95 | 1017.3 |
| 20260830185318 | 69 | 81 | 0.0 | 0.0 | 0.00 | 0.80 | 0.80 | 95 | 1017.3 |
| 20260830185211 | 68 | 81 | 0.0 | 0.0 | 0.00 | 0.80 | 0.80 | 95 | 1017.7 |
| 20260830185157 | 68 | 81 | 0.0 | 0.0 | 0.00 | 0.80 | 0.80 | 95 | 1017.7 |
| 20260830185107 | 68 | 80 | 0.0 | 0.0 | 0.00 | 0.80 | 0.80 | 95 | 1017.7 |
| 20260830185000 | 68 | 80 | 0.0 | 0.0 | 0.00 | 0.80 | 0.80 | 95 | 1017.7 |
| 20260830184855 | 68 | 80 | 0.0 | 0.0 | 0.00 | 0.80 | 0.80 | 95 | 1017.7 |
| 20260830184749 | 68 | 80 | 0.0 | 0.0 | 0.00 | 0.80 | 0.80 | 95 | 1017.7 |
| 20260830184643 | 68 | 80 | 0.0 | 0.0 | 0.00 | 0.80 | 0.80 | 95 | 1017.7 |
| 20260830184538 | 68 | 80 | 0.0 | 0.0 | 0.00 | 0.80 | 0.80 | 95 | 1017.7 |
| 20260830184432 | 68 | 80 | 0.0 | 0.0 | 0.00 | 0.80 | 0.80 | 95 | 1017.7 |
| 20260830184326 | 68 | 80 | 0.0 | 0.0 | 0.00 | 0.80 | 0.80 | 95 | 1018.1 |
| 20260830184221 | 68 | 80 | 0.0 | 0.0 | 0.00 | 0.80 | 0.80 | 95 | 1018.1 |
| 20260830184115 | 68 | 80 | 0.0 | 0.0 | 0.00 | 0.80 | 0.80 | 95 | 1018.1 |
| 20260830184010 | 68 | 80 | 0.0 | 0.0 | 0.00 | 0.80 | 0.80 | 95 | 1017.7 |
| 20260830183917 | 68 | 80 | 0.0 | 0.0 | 0.00 | 0.80 | 0.80 | 95 | 1017.7 |
| 20260830183913 | 68 | 80 | 0.0 | 0.0 | 0.00 | 0.80 | 0.80 | 95 | 1017.7 |
| 20260830183904 | 68 | 80 | 0.0 | 0.0 | 0.00 | 0.80 | 0.80 | 95 | 1017.7 |
| 20260830183856 | 68 | 80 | 0.0 | 0.0 | 0.00 | 0.80 | 0.80 | 95 | 1017.7 |
| 20260830183547 | 68 | 80 | 0.0 | 0.0 | 0.00 | 0.80 | 0.80 | 95 | 1017.7 |
| 20260830183441 | 68 | 80 | 0.0 | 0.0 | 0.00 | 0.80 | 0.80 | 95 | 1017.7 |
| 20260830183335 | 68 | 80 | 0.0 | 0.0 | 0.00 | 0.80 | 0.80 | 95 | 1017.7 |
| 20260830183228 | 68 | 80 | 0.0 | 0.0 | 0.00 | 0.80 | 0.80 | 95 | 1017.7 |
| 20260830183129 | 68 | 80 | 0.0 | 0.0 | 0.00 | 0.80 | 0.80 | 95 | 1017.3 |
| 20260830183122 | 68 | 79 | 0.0 | 0.0 | 0.00 | 0.80 | 0.80 | 95 | 1017.3 |
| 20260830183016 | 68 | 79 | 0.0 | 0.0 | 0.00 | 0.80 | 0.80 | 95 | 1017.7 |
| 20260830182911 | 68 | 79 | 0.0 | 0.0 | 0.00 | 0.80 | 0.80 | 95 | 1017.3 |
| 20260830182806 | 68 | 79 | 0.0 | 0.0 | 0.00 | 0.80 | 0.80 | 95 | 1017.7 |
| 20260830182700 | 68 | 79 | 0.0 | 0.0 | 0.00 | 0.80 | 0.80 | 95 | 1017.7 |
| 20260830182623 | 68 | 79 | 0.0 | 3.0 | 0.00 | 0.80 | 0.80 | 95 | 1017.7 |
| 20260830182554 | 68 | 79 | 0.0 | 3.0 | 0.00 | 0.80 | 0.80 | 95 | 1017.7 |
| 20260830182449 | 68 | 79 | 0.0 | 3.0 | 0.00 | 0.80 | 0.80 | 95 | 1017.3 |
| 20260830182342 | 68 | 79 | 0.0 | 3.0 | 0.00 | 0.80 | 0.80 | 95 | 1017.7 |
| 20260830182237 | 68 | 79 | 0.0 | 17.0 | 0.00 | 0.80 | 0.80 | 95 | 1017.3 |
| 20260830182116 | 68 | 79 | 0.0 | 17.0 | 0.00 | 0.80 | 0.80 | 95 | 1017.3 |
| 20260830182025 | 68 | 79 | 0.0 | 17.0 | 0.00 | 0.80 | 0.80 | 95 | 1017.3 |
| 20260830181919 | 67 | 79 | 0.0 | 17.0 | 0.00 | 0.80 | 0.80 | 95 | 1017.3 |
| 20260830181814 | 67 | 79 | 0.0 | 17.0 | 0.00 | 0.80 | 0.80 | 95 | 1017.3 |
| 20260830181709 | 67 | 79 | 0.0 | 17.0 | 0.00 | 0.80 | 0.80 | 95 | 1016.9 |
| 20260830181609 | 67 | 144 | 0.0 | 17.0 | 0.00 | 0.80 | 0.80 | 95 | 1016.9 |
| 20260830181603 | 67 | 144 | 0.0 | 17.0 | 0.00 | 0.80 | 0.80 | 95 | 1016.9 |
| 20260830181457 | 67 | 138 | 0.0 | 17.0 | 0.00 | 0.80 | 0.80 | 95 | 1016.9 |
| 20260830181351 | 67 | 110 | 1.0 | 17.0 | 0.00 | 0.80 | 0.80 | 95 | 1016.9 |
| 20260830181246 | 67 | 134 | 0.0 | 4.0 | 0.00 | 0.80 | 0.80 | 95 | 1017.3 |
| 20260830181140 | 67 | 119 | 0.0 | 4.0 | 0.00 | 0.80 | 0.80 | 95 | 1017.3 |
| 20260830181102 | 67 | 176 | 0.0 | 7.0 | 0.00 | 0.80 | 0.80 | 95 | 1017.3 |
| 20260830181034 | 67 | 168 | 0.0 | 7.0 | 0.00 | 0.80 | 0.80 | 95 | 1017.3 |
| 20260830180929 | 67 | 193 | 2.0 | 7.0 | 0.00 | 0.80 | 0.80 | 95 | 1016.9 |
| 20260830180823 | 67 | 116 | 0.0 | 7.0 | 0.00 | 0.80 | 0.80 | 95 | 1016.9 |
| 20260830180718 | 67 | 165 | 0.0 | 7.0 | 0.02 | 0.80 | 0.80 | 95 | 1016.9 |
| 20260830180611 | 67 | 186 | 0.0 | 7.0 | 0.02 | 0.80 | 0.80 | 95 | 1017.3 |
| 20260830180556 | 67 | 200 | 0.0 | 7.0 | 0.02 | 0.80 | 0.80 | 95 | 1017.3 |
| 20260830180506 | 67 | 119 | 0.0 | 7.0 | 0.02 | 0.80 | 0.80 | 95 | 1017.3 |
| 20260830180401 | 67 | 153 | 0.0 | 7.0 | 0.02 | 0.80 | 0.80 | 95 | 1016.9 |
| 20260830180254 | 67 | 85 | 0.0 | 7.0 | 0.02 | 0.80 | 0.80 | 95 | 1017.3 |
| 20260830180147 | 67 | 99 | 2.0 | 7.0 | 0.02 | 0.80 | 0.80 | 95 | 1016.9 |
| 20260830180048 | 67 | 99 | 0.0 | 7.0 | 0.02 | 0.80 | 0.80 | 95 | 1016.9 |
| 20260830180042 | 67 | 142 | 1.0 | 7.0 | 0.02 | 0.80 | 0.80 | 95 | 1016.9 |
| 20260830175936 | 67 | 181 | 0.0 | 7.0 | 0.02 | 0.80 | 0.80 | 95 | 1016.9 |
| 20260830175830 | 67 | 137 | 1.0 | 7.0 | 0.02 | 0.80 | 0.80 | 95 | 1016.9 |
| 20260830175724 | 67 | 195 | 0.0 | 7.0 | 0.02 | 0.80 | 0.80 | 95 | 1017.3 |
| 20260830175618 | 67 | 187 | 4.0 | 7.0 | 0.02 | 0.80 | 0.80 | 95 | 1017.3 |
| 20260830175540 | 67 | 196 | 4.0 | 6.0 | 0.02 | 0.80 | 0.80 | 95 | 1017.3 |
| 20260830175513 | 67 | 144 | 1.0 | 6.0 | 0.02 | 0.80 | 0.80 | 95 | 1017.3 |
| 20260830175410 | 67 | 145 | 0.0 | 6.0 | 0.02 | 0.80 | 0.80 | 95 | 1017.3 |
| 20260830175305 | 67 | 161 | 0.0 | 6.0 | 0.02 | 0.80 | 0.80 | 96 | 1017.3 |
| 20260830175155 | 67 | 172 | 0.0 | 6.0 | 0.02 | 0.80 | 0.80 | 96 | 1017.7 |
| 20260830175036 | 67 | 186 | 2.0 | 8.0 | 0.02 | 0.80 | 0.80 | 96 | 1017.3 |
| 20260830174944 | 67 | 189 | 0.0 | 8.0 | 0.02 | 0.80 | 0.80 | 95 | 1017.3 |
| 20260830174838 | 67 | 191 | 4.0 | 8.0 | 0.02 | 0.80 | 0.80 | 96 | 1017.3 |
| 20260830174802 | 67 | 200 | 0.0 | 8.0 | 0.02 | 0.80 | 0.80 | 96 | 1017.3 |
| 20260830174758 | 67 | 168 | 0.0 | 8.0 | 0.02 | 0.80 | 0.80 | 96 | 1017.3 |
| 20260830174749 | 67 | 169 | 0.0 | 8.0 | 0.02 | 0.80 | 0.80 | 96 | 1017.3 |
| 20260830174521 | 67 | 200 | 0.0 | 8.0 | 0.02 | 0.80 | 0.80 | 96 | 1017.3 |
| 20260830174416 | 67 | 197 | 0.0 | 8.0 | 0.02 | 0.80 | 0.80 | 96 | 1017.7 |
| 20260830174250 | 67 | 197 | 2.0 | 8.0 | 0.02 | 0.80 | 0.80 | 96 | 1017.7 |
| 20260830174145 | 67 | 171 | 4.0 | 8.0 | 0.02 | 0.80 | 0.80 | 96 | 1017.3 |
| 20260830174039 | 67 | 189 | 0.0 | 7.0 | 0.02 | 0.80 | 0.80 | 96 | 1017.7 |
| 20260830174024 | 67 | 145 | 0.0 | 7.0 | 0.02 | 0.80 | 0.80 | 96 | 1017.3 |
| 20260830173934 | 67 | 179 | 0.0 | 7.0 | 0.02 | 0.80 | 0.80 | 96 | 1017.3 |
| 20260830173827 | 67 | 172 | 4.0 | 7.0 | 0.02 | 0.80 | 0.80 | 96 | 1016.9 |
| 20260830173721 | 67 | 178 | 0.0 | 7.0 | 0.02 | 0.80 | 0.80 | 96 | 1017.7 |
| 20260830173616 | 67 | 199 | 3.0 | 7.0 | 0.02 | 0.80 | 0.80 | 96 | 1017.7 |
| 20260830173516 | 67 | 217 | 2.0 | 7.0 | 0.02 | 0.80 | 0.80 | 96 | 1017.3 |
| 20260830173510 | 67 | 176 | 2.0 | 7.0 | 0.02 | 0.80 | 0.80 | 96 | 1017.3 |
| 20260830173417 | 67 | 202 | 0.0 | 7.0 | 0.02 | 0.80 | 0.80 | 96 | 1017.3 |
| 20260830173259 | 67 | 189 | 0.0 | 8.0 | 0.02 | 0.80 | 0.80 | 96 | 1017.3 |
| 20260830173153 | 67 | 198 | 4.0 | 8.0 | 0.02 | 0.80 | 0.80 | 96 | 1017.7 |
| 20260830173047 | 67 | 171 | 0.0 | 8.0 | 0.02 | 0.80 | 0.80 | 96 | 1017.3 |
| 20260830173010 | 67 | 174 | 0.0 | 9.0 | 0.02 | 0.80 | 0.80 | 96 | 1017.3 |
| 20260830172941 | 66 | 192 | 0.0 | 9.0 | 0.02 | 0.80 | 0.80 | 96 | 1017.3 |
| 20260830172836 | 67 | 118 | 1.0 | 9.0 | 0.04 | 0.80 | 0.80 | 96 | 1017.3 |
| 20260830172730 | 67 | 145 | 2.0 | 9.0 | 0.04 | 0.80 | 0.80 | 96 | 1017.3 |
| 20260830172625 | 66 | 152 | 0.0 | 9.0 | 0.04 | 0.80 | 0.80 | 96 | 1017.3 |
| 20260830172504 | 66 | 178 | 0.0 | 9.0 | 0.04 | 0.80 | 0.80 | 96 | 1017.3 |
| 20260830172413 | 66 | 194 | 5.0 | 9.0 | 0.04 | 0.80 | 0.80 | 96 | 1017.3 |
| 20260830172307 | 66 | 209 | 0.0 | 9.0 | 0.04 | 0.80 | 0.80 | 96 | 1017.3 |
| 20260830172231 | 66 | 220 | 0.0 | 8.0 | 0.06 | 0.80 | 0.80 | 96 | 1017.3 |
| 20260830172222 | 66 | 178 | 3.0 | 9.0 | 0.04 | 0.80 | 0.80 | 96 | 1017.3 |
| 20260830172214 | 66 | 198 | 6.0 | 9.0 | 0.04 | 0.80 | 0.80 | 96 | 1017.3 |
| 20260830171950 | 66 | 173 | 0.0 | 8.0 | 0.06 | 0.80 | 0.80 | 96 | 1017.3 |
| 20260830171845 | 66 | 111 | 2.0 | 8.0 | 0.06 | 0.80 | 0.80 | 96 | 1017.3 |
| 20260830171739 | 66 | 123 | 2.0 | 7.0 | 0.06 | 0.80 | 0.80 | 96 | 1017.3 |
| 20260830171634 | 66 | 131 | 5.0 | 7.0 | 0.07 | 0.80 | 0.80 | 96 | 1017.7 |
| 20260830171527 | 66 | 185 | 2.0 | 4.0 | 0.07 | 0.80 | 0.80 | 96 | 1017.7 |
| 20260830171450 | 66 | 201 | 0.0 | 4.0 | 0.08 | 0.80 | 0.80 | 96 | 1017.7 |
| 20260830171421 | 66 | 184 | 0.0 | 4.0 | 0.08 | 0.80 | 0.80 | 97 | 1017.7 |
| 20260830171317 | 66 | 178 | 0.0 | 4.0 | 0.08 | 0.80 | 0.80 | 96 | 1017.7 |
| 20260830171211 | 66 | 179 | 0.0 | 4.0 | 0.09 | 0.80 | 0.80 | 96 | 1018.1 |
| 20260830171105 | 66 | 191 | 0.0 | 4.0 | 0.09 | 0.80 | 0.80 | 96 | 1018.1 |
| 20260830170959 | 65 | 186 | 0.0 | 4.0 | 0.09 | 0.80 | 0.80 | 97 | 1018.1 |
| 20260830170943 | 65 | 186 | 0.0 | 4.0 | 0.09 | 0.80 | 0.80 | 96 | 1018.1 |
| 20260830170853 | 65 | 175 | 0.0 | 4.0 | 0.09 | 0.80 | 0.80 | 96 | 1018.1 |
| 20260830170747 | 65 | 170 | 0.0 | 4.0 | 0.07 | 0.78 | 0.80 | 96 | 1018.1 |
| 20260830170642 | 65 | 132 | 1.0 | 4.0 | 0.07 | 0.78 | 0.78 | 96 | 1018.1 |
| 20260830170536 | 65 | 175 | 2.0 | 4.0 | 0.08 | 0.78 | 0.78 | 96 | 1018.1 |
| 20260830170447 | 65 | 158 | 0.0 | 0.0 | 0.08 | 0.78 | 0.78 | 96 | 1018.1 |
| 20260830170443 | 65 | 158 | 0.0 | 0.0 | 0.08 | 0.78 | 0.78 | 96 | 1018.4 |
| 20260830170325 | 65 | 197 | 0.0 | 0.0 | 0.08 | 0.78 | 0.78 | 96 | 1018.1 |
| 20260830170219 | 65 | 206 | 0.0 | 0.0 | 0.08 | 0.78 | 0.78 | 96 | 1018.7 |
| 20260830170113 | 65 | 201 | 0.0 | 7.0 | 0.08 | 0.78 | 0.78 | 96 | 1018.4 |
| 20260830170007 | 65 | 205 | 0.0 | 7.0 | 0.08 | 0.78 | 0.78 | 97 | 1018.1 |
| 20260830165930 | 65 | 201 | 0.0 | 7.0 | 0.08 | 0.78 | 0.78 | 97 | 1018.1 |
| 20260830165902 | 65 | 190 | 0.0 | 7.0 | 0.08 | 0.78 | 0.78 | 96 | 1018.1 |
| 20260830165756 | 65 | 193 | 0.0 | 7.0 | 0.09 | 0.78 | 0.78 | 96 | 1018.1 |
| 20260830165649 | 65 | 109 | 0.0 | 7.0 | 0.09 | 0.78 | 0.78 | 96 | 1018.1 |
| 20260830165543 | 65 | 108 | 0.0 | 7.0 | 0.09 | 0.78 | 0.78 | 96 | 1018.1 |
| 20260830165438 | 65 | 146 | 0.0 | 7.0 | 0.09 | 0.78 | 0.78 | 96 | 1018.1 |
| 20260830165423 | 65 | 146 | 0.0 | 7.0 | 0.09 | 0.78 | 0.78 | 96 | 1018.4 |
| 20260830165332 | 65 | 179 | 0.0 | 7.0 | 0.09 | 0.78 | 0.78 | 97 | 1018.1 |
| 20260830165227 | 65 | 207 | 1.0 | 7.0 | 0.11 | 0.78 | 0.78 | 96 | 1018.1 |
| 20260830165120 | 65 | 193 | 0.0 | 7.0 | 0.11 | 0.78 | 0.78 | 97 | 1018.4 |
| 20260830165015 | 65 | 201 | 1.0 | 7.0 | 0.11 | 0.78 | 0.78 | 97 | 1018.4 |
| 20260830164916 | 65 | 218 | 2.0 | 7.0 | 0.11 | 0.78 | 0.78 | 97 | 1018.4 |
| 20260830164910 | 65 | 203 | 3.0 | 7.0 | 0.11 | 0.78 | 0.78 | 96 | 1018.4 |
| 20260830164803 | 65 | 238 | 0.0 | 7.0 | 0.11 | 0.78 | 0.78 | 97 | 1018.1 |
| 20260830164658 | 65 | 195 | 3.0 | 7.0 | 0.13 | 0.78 | 0.78 | 97 | 1018.4 |
| 20260830164552 | 65 | 166 | 3.0 | 7.0 | 0.13 | 0.78 | 0.78 | 96 | 1018.1 |
| 20260830164447 | 66 | 185 | 4.0 | 7.0 | 0.13 | 0.78 | 0.78 | 97 | 1018.4 |
| 20260830164409 | 66 | 178 | 3.0 | 9.0 | 0.13 | 0.78 | 0.78 | 96 | 1018.1 |
| 20260830164341 | 66 | 150 | 2.0 | 9.0 | 0.13 | 0.78 | 0.78 | 96 | 1018.1 |
| 20260830164235 | 66 | 101 | 0.0 | 9.0 | 0.13 | 0.78 | 0.78 | 97 | 1018.4 |
| 20260830164130 | 66 | 210 | 0.0 | 9.0 | 0.13 | 0.78 | 0.78 | 97 | 1018.4 |
| 20260830164024 | 66 | 188 | 3.0 | 9.0 | 0.13 | 0.78 | 0.78 | 97 | 1018.4 |
| 20260830163918 | 65 | 207 | 2.0 | 9.0 | 0.13 | 0.78 | 0.78 | 97 | 1018.1 |
| 20260830163903 | 65 | 219 | 3.0 | 9.0 | 0.13 | 0.78 | 0.78 | 97 | 1018.1 |
| 20260830163812 | 65 | 193 | 2.0 | 9.0 | 0.13 | 0.78 | 0.78 | 96 | 1018.1 |
| 20260830163707 | 65 | 196 | 1.0 | 9.0 | 0.13 | 0.78 | 0.78 | 96 | 1018.4 |
| 20260830163601 | 65 | 198 | 1.0 | 9.0 | 0.13 | 0.78 | 0.78 | 97 | 1018.4 |
| 20260830163455 | 65 | 188 | 3.0 | 9.0 | 0.13 | 0.78 | 0.78 | 96 | 1018.4 |
| 20260830163356 | 65 | 217 | 2.0 | 7.0 | 0.13 | 0.78 | 0.78 | 96 | 1018.4 |
| 20260830163350 | 65 | 212 | 3.0 | 7.0 | 0.13 | 0.78 | 0.78 | 96 | 1018.4 |
| 20260830163243 | 65 | 181 | 0.0 | 7.0 | 0.13 | 0.78 | 0.78 | 96 | 1018.4 |
| 20260830163138 | 65 | 176 | 0.0 | 7.0 | 0.13 | 0.78 | 0.78 | 96 | 1018.7 |
| 20260830163033 | 65 | 191 | 4.0 | 6.0 | 0.13 | 0.78 | 0.78 | 96 | 1018.4 |
| 20260830162926 | 65 | 182 | 0.0 | 6.0 | 0.11 | 0.76 | 0.78 | 96 | 1018.7 |
| 20260830162849 | 65 | 189 | 0.0 | 6.0 | 0.11 | 0.76 | 0.76 | 96 | 1018.7 |
| 20260830162821 | 65 | 214 | 1.0 | 6.0 | 0.11 | 0.76 | 0.76 | 96 | 1018.7 |
| 20260830162715 | 65 | 201 | 2.0 | 6.0 | 0.11 | 0.76 | 0.76 | 96 | 1018.7 |
| 20260830162609 | 65 | 202 | 1.0 | 6.0 | 0.11 | 0.76 | 0.76 | 96 | 1018.7 |
| 20260830162503 | 65 | 205 | 2.0 | 6.0 | 0.11 | 0.76 | 0.76 | 96 | 1018.7 |
| 20260830162343 | 65 | 184 | 3.0 | 6.0 | 0.11 | 0.76 | 0.76 | 96 | 1019.1 |
| 20260830162252 | 65 | 148 | 3.0 | 6.0 | 0.11 | 0.76 | 0.76 | 96 | 1018.7 |
| 20260830162147 | 65 | 182 | 0.0 | 6.0 | 0.11 | 0.76 | 0.76 | 96 | 1018.7 |
| 20260830162041 | 65 | 193 | 0.0 | 6.0 | 0.09 | 0.74 | 0.76 | 96 | 1018.7 |
| 20260830161935 | 65 | 189 | 0.0 | 6.0 | 0.11 | 0.74 | 0.74 | 96 | 1018.7 |
| 20260830161836 | 66 | 162 | 0.0 | 6.0 | 0.11 | 0.74 | 0.74 | 96 | 1018.7 |
| 20260830161829 | 66 | 169 | 0.0 | 6.0 | 0.11 | 0.74 | 0.74 | 96 | 1018.7 |
| 20260830161727 | 66 | 227 | 2.0 | 6.0 | 0.11 | 0.73 | 0.74 | 96 | 1018.7 |
| 20260830161620 | 66 | 187 | 1.0 | 4.0 | 0.11 | 0.73 | 0.73 | 96 | 1018.7 |
| 20260830161514 | 66 | 190 | 0.0 | 4.0 | 0.10 | 0.72 | 0.73 | 96 | 1018.7 |
| 20260830161408 | 66 | 201 | 0.0 | 4.0 | 0.10 | 0.72 | 0.72 | 96 | 1018.7 |
| 20260830161330 | 66 | 183 | 0.0 | 4.0 | 0.11 | 0.72 | 0.72 | 96 | 1018.7 |
| 20260830161302 | 66 | 216 | 0.0 | 4.0 | 0.10 | 0.71 | 0.72 | 96 | 1018.7 |
| 20260830161156 | 66 | 188 | 0.0 | 4.0 | 0.10 | 0.71 | 0.71 | 96 | 1018.7 |
| 20260830161051 | 66 | 210 | 1.0 | 4.0 | 0.10 | 0.71 | 0.71 | 96 | 1019.1 |
| 20260830160945 | 66 | 205 | 0.0 | 4.0 | 0.10 | 0.71 | 0.71 | 96 | 1019.1 |
| 20260830160840 | 66 | 183 | 0.0 | 4.0 | 0.10 | 0.71 | 0.71 | 96 | 1019.1 |
| 20260830160823 | 66 | 193 | 0.0 | 4.0 | 0.10 | 0.71 | 0.71 | 96 | 1019.1 |
| 20260830160735 | 66 | 174 | 0.0 | 6.0 | 0.10 | 0.71 | 0.71 | 96 | 1019.4 |
| 20260830160629 | 66 | 196 | 0.0 | 6.0 | 0.09 | 0.70 | 0.71 | 96 | 1019.1 |
| 20260830160523 | 66 | 202 | 2.0 | 6.0 | 0.09 | 0.70 | 0.70 | 96 | 1019.1 |
| 20260830160417 | 66 | 215 | 0.0 | 6.0 | 0.09 | 0.70 | 0.70 | 97 | 1019.1 |
| 20260830160317 | 66 | 205 | 0.0 | 6.0 | 0.09 | 0.70 | 0.70 | 96 | 1019.1 |
| 20260830160311 | 65 | 196 | 0.0 | 6.0 | 0.09 | 0.70 | 0.70 | 96 | 1019.1 |
| 20260830160205 | 65 | 218 | 0.0 | 6.0 | 0.09 | 0.70 | 0.70 | 96 | 1019.1 |
| 20260830160112 | 66 | 207 | 2.0 | 6.0 | 0.09 | 0.70 | 0.70 | 96 | 1019.1 |
| 20260830155954 | 66 | 220 | 3.0 | 6.0 | 0.10 | 0.70 | 0.70 | 96 | 1019.1 |
| 20260830155848 | 66 | 196 | 0.0 | 6.0 | 0.09 | 0.69 | 0.70 | 96 | 1019.1 |
| 20260830155810 | 66 | 228 | 2.0 | 6.0 | 0.09 | 0.69 | 0.70 | 96 | 1019.1 |
| 20260830155742 | 66 | 178 | 1.0 | 6.0 | 0.09 | 0.69 | 0.69 | 97 | 1019.1 |
| 20260830155636 | 66 | 166 | 0.0 | 6.0 | 0.09 | 0.69 | 0.69 | 97 | 1019.1 |
| 20260830155530 | 66 | 214 | 0.0 | 6.0 | 0.09 | 0.69 | 0.69 | 96 | 1019.1 |
| 20260830155425 | 66 | 174 | 4.0 | 6.0 | 0.09 | 0.69 | 0.69 | 96 | 1019.1 |
| 20260830155306 | 66 | 191 | 0.0 | 4.0 | 0.07 | 0.67 | 0.69 | 96 | 1019.1 |
| 20260830155214 | 66 | 191 | 2.0 | 4.0 | 0.08 | 0.67 | 0.67 | 97 | 1019.1 |
| 20260830155108 | 66 | 208 | 4.0 | 4.0 | 0.08 | 0.67 | 0.67 | 96 | 1019.1 |
| 20260830155002 | 66 | 184 | 3.0 | 3.0 | 0.08 | 0.67 | 0.67 | 96 | 1019.1 |
| 20260830154855 | 66 | 190 | 1.0 | 1.0 | 0.08 | 0.67 | 0.67 | 96 | 1019.4 |
| 20260830154757 | 66 | 218 | 0.0 | 0.0 | 0.08 | 0.67 | 0.67 | 97 | 1019.4 |
| 20260830154751 | 66 | 220 | 0.0 | 0.0 | 0.06 | 0.65 | 0.67 | 97 | 1019.4 |
| 20260830154644 | 66 | 225 | 0.0 | 0.0 | 0.06 | 0.65 | 0.65 | 97 | 1019.4 |
| 20260830154538 | 66 | 226 | 0.0 | 0.0 | 0.07 | 0.65 | 0.65 | 97 | 1019.4 |
| 20260830154433 | 66 | 215 | 0.0 | 0.0 | 0.07 | 0.65 | 0.65 | 96 | 1019.1 |
| 20260830154328 | 66 | 196 | 0.0 | 0.0 | 0.07 | 0.65 | 0.65 | 96 | 1019.4 |
| 20260830154249 | 66 | 203 | 0.0 | 0.0 | 0.07 | 0.65 | 0.65 | 96 | 1019.4 |
| 20260830154221 | 66 | 226 | 0.0 | 0.0 | 0.07 | 0.65 | 0.65 | 96 | 1019.1 |
| 20260830154116 | 66 | 211 | 0.0 | 1.0 | 0.07 | 0.65 | 0.65 | 96 | 1019.1 |
| 20260830154023 | 66 | 182 | 0.0 | 2.0 | 0.07 | 0.65 | 0.65 | 97 | 1019.1 |
| 20260830154019 | 66 | 207 | 0.0 | 2.0 | 0.07 | 0.65 | 0.65 | 97 | 1019.4 |
| 20260830154010 | 66 | 196 | 0.0 | 2.0 | 0.07 | 0.65 | 0.65 | 97 | 1019.1 |
| 20260830154001 | 66 | 211 | 0.0 | 2.0 | 0.07 | 0.65 | 0.65 | 97 | 1019.1 |
| 20260830153652 | 66 | 196 | 0.0 | 2.0 | 0.07 | 0.65 | 0.65 | 97 | 1019.4 |
| 20260830153547 | 66 | 212 | 0.0 | 2.0 | 0.08 | 0.65 | 0.65 | 96 | 1019.4 |
| 20260830153441 | 66 | 204 | 0.0 | 2.0 | 0.08 | 0.65 | 0.65 | 97 | 1019.4 |
| 20260830153335 | 66 | 177 | 0.0 | 2.0 | 0.08 | 0.65 | 0.65 | 97 | 1019.4 |
| 20260830153236 | 66 | 177 | 0.0 | 2.0 | 0.08 | 0.65 | 0.65 | 97 | 1019.4 |
| 20260830153230 | 66 | 180 | 0.0 | 2.0 | 0.08 | 0.65 | 0.65 | 97 | 1019.4 |
| 20260830153124 | 66 | 186 | 0.0 | 2.0 | 0.09 | 0.65 | 0.65 | 97 | 1019.4 |
| 20260830153018 | 66 | 182 | 2.0 | 2.0 | 0.09 | 0.65 | 0.65 | 97 | 1019.4 |
| 20260830152912 | 66 | 198 | 0.0 | 0.0 | 0.09 | 0.65 | 0.65 | 97 | 1019.4 |
| 20260830152807 | 66 | 199 | 0.0 | 0.0 | 0.10 | 0.65 | 0.65 | 97 | 1019.4 |
| 20260830152729 | 66 | 193 | 0.0 | 0.0 | 0.10 | 0.65 | 0.65 | 97 | 1019.8 |
| 20260830152700 | 66 | 191 | 0.0 | 0.0 | 0.10 | 0.65 | 0.65 | 97 | 1019.8 |
| 20260830152608 | 66 | 191 | 0.0 | 0.0 | 0.10 | 0.65 | 0.65 | 97 | 1019.8 |
| 20260830152450 | 65 | 209 | 0.0 | 0.0 | 0.11 | 0.65 | 0.65 | 97 | 1019.8 |
| 20260830152344 | 65 | 208 | 0.0 | 0.0 | 0.11 | 0.65 | 0.65 | 97 | 1019.8 |
| 20260830152238 | 65 | 206 | 0.0 | 0.0 | 0.11 | 0.65 | 0.65 | 97 | 1019.4 |
| 20260830152221 | 65 | 206 | 0.0 | 0.0 | 0.11 | 0.65 | 0.65 | 97 | 1019.8 |
| 20260830152133 | 65 | 210 | 0.0 | 1.0 | 0.11 | 0.65 | 0.65 | 97 | 1019.4 |
| 20260830152026 | 65 | 203 | 0.0 | 1.0 | 0.09 | 0.63 | 0.63 | 97 | 1019.4 |
| 20260830151923 | 65 | 215 | 0.0 | 1.0 | 0.09 | 0.63 | 0.63 | 97 | 1019.4 |
| 20260830151815 | 65 | 166 | 0.0 | 1.0 | 0.08 | 0.62 | 0.63 | 97 | 1019.4 |
| 20260830151709 | 65 | 214 | 0.0 | 1.0 | 0.08 | 0.62 | 0.62 | 97 | 1019.4 |
| 20260830151603 | 65 | 194 | 0.0 | 1.0 | 0.08 | 0.62 | 0.62 | 97 | 1019.8 |
| 20260830151457 | 65 | 163 | 0.0 | 1.0 | 0.08 | 0.62 | 0.62 | 97 | 1019.8 |
| 20260830151352 | 65 | 212 | 0.0 | 1.0 | 0.07 | 0.61 | 0.62 | 97 | 1019.8 |
| 20260830151246 | 65 | 215 | 0.0 | 1.0 | 0.07 | 0.61 | 0.61 | 97 | 1019.8 |
| 20260830151209 | 65 | 209 | 0.0 | 1.0 | 0.07 | 0.61 | 0.61 | 97 | 1019.8 |
| 20260830151142 | 65 | 183 | 0.0 | 1.0 | 0.07 | 0.61 | 0.61 | 97 | 1019.8 |
| 20260830151035 | 65 | 194 | 0.0 | 1.0 | 0.09 | 0.61 | 0.61 | 97 | 1019.8 |
| 20260830150930 | 65 | 202 | 0.0 | 2.0 | 0.09 | 0.61 | 0.61 | 97 | 1019.8 |
| 20260830150823 | 65 | 211 | 0.0 | 2.0 | 0.09 | 0.61 | 0.61 | 97 | 1019.8 |
| 20260830150717 | 65 | 182 | 0.0 | 2.0 | 0.09 | 0.61 | 0.61 | 97 | 1019.8 |
| 20260830150703 | 66 | 182 | 0.0 | 2.0 | 0.09 | 0.61 | 0.61 | 97 | 1019.8 |
| 20260830150612 | 66 | 187 | 0.0 | 2.0 | 0.09 | 0.61 | 0.61 | 97 | 1019.8 |
| 20260830150506 | 66 | 199 | 0.0 | 2.0 | 0.09 | 0.61 | 0.61 | 97 | 1019.8 |
| 20260830150401 | 65 | 199 | 0.0 | 2.0 | 0.09 | 0.61 | 0.61 | 97 | 1019.8 |
| 20260830150254 | 65 | 198 | 0.0 | 3.0 | 0.11 | 0.61 | 0.61 | 97 | 1019.8 |
| 20260830150206 | 65 | 216 | 0.0 | 3.0 | 0.11 | 0.61 | 0.61 | 97 | 1019.8 |
| 20260830150202 | 65 | 245 | 0.0 | 3.0 | 0.11 | 0.61 | 0.61 | 97 | 1019.8 |
| 20260830150042 | 66 | 198 | 0.0 | 4.0 | 0.10 | 0.60 | 0.60 | 97 | 1019.8 |
| 20260830145939 | 65 | 208 | 0.0 | 4.0 | 0.11 | 0.60 | 0.60 | 97 | 1019.8 |
| 20260830145924 | 65 | 205 | 0.0 | 4.0 | 0.11 | 0.60 | 0.60 | 97 | 1019.8 |
| 20260830145920 | 65 | 231 | 0.0 | 4.0 | 0.11 | 0.60 | 0.60 | 97 | 1019.8 |
| 20260830145910 | 65 | 204 | 0.0 | 4.0 | 0.11 | 0.60 | 0.60 | 97 | 1019.8 |
| 20260830145621 | 65 | 198 | 0.0 | 4.0 | 0.11 | 0.60 | 0.60 | 97 | 1019.4 |
| 20260830145515 | 65 | 198 | 0.0 | 4.0 | 0.12 | 0.60 | 0.60 | 97 | 1019.4 |
| 20260830145409 | 65 | 220 | 0.0 | 4.0 | 0.12 | 0.60 | 0.60 | 97 | 1019.8 |
| 20260830145306 | 65 | 286 | 0.0 | 4.0 | 0.12 | 0.59 | 0.60 | 97 | 1019.8 |
| 20260830145142 | 65 | 210 | 1.0 | 4.0 | 0.12 | 0.59 | 0.59 | 97 | 1019.8 |
| 20260830145052 | 65 | 211 | 0.0 | 2.0 | 0.12 | 0.59 | 0.59 | 97 | 1019.8 |
| 20260830144946 | 65 | 202 | 0.0 | 2.0 | 0.13 | 0.59 | 0.59 | 97 | 1019.8 |
| 20260830144840 | 65 | 210 | 0.0 | 0.0 | 0.13 | 0.59 | 0.59 | 97 | 1019.8 |
| 20260830144735 | 65 | 219 | 0.0 | 0.0 | 0.14 | 0.59 | 0.59 | 97 | 1019.4 |
| 20260830144635 | 65 | 219 | 0.0 | 0.0 | 0.14 | 0.59 | 0.59 | 97 | 1019.4 |
| 20260830144627 | 65 | 219 | 0.0 | 0.0 | 0.13 | 0.58 | 0.59 | 97 | 1019.4 |
| 20260830144520 | 65 | 219 | 0.0 | 0.0 | 0.14 | 0.58 | 0.58 | 97 | 1019.4 |
| 20260830144415 | 65 | 230 | 0.0 | 0.0 | 0.14 | 0.58 | 0.58 | 97 | 1019.4 |
| 20260830144309 | 65 | 230 | 0.0 | 0.0 | 0.15 | 0.58 | 0.58 | 97 | 1019.4 |
| 20260830144203 | 65 | 230 | 0.0 | 0.0 | 0.15 | 0.58 | 0.58 | 97 | 1019.8 |
| 20260830144127 | 65 | 230 | 0.0 | 0.0 | 0.16 | 0.58 | 0.58 | 97 | 1019.4 |
| 20260830144058 | 65 | 230 | 0.0 | 0.0 | 0.16 | 0.58 | 0.58 | 97 | 1019.4 |
| 20260830143952 | 65 | 284 | 0.0 | 0.0 | 0.16 | 0.58 | 0.58 | 97 | 1019.4 |
| 20260830143846 | 65 | 286 | 0.0 | 0.0 | 0.17 | 0.58 | 0.58 | 97 | 1019.1 |
| 20260830143741 | 65 | 285 | 0.0 | 2.0 | 0.17 | 0.58 | 0.58 | 97 | 1019.4 |
| 20260830143636 | 65 | 225 | 0.0 | 3.0 | 0.16 | 0.57 | 0.58 | 97 | 1019.4 |
| 20260830143619 | 65 | 270 | 0.0 | 3.0 | 0.16 | 0.57 | 0.58 | 97 | 1019.4 |
| 20260830143529 | 65 | 227 | 0.0 | 3.0 | 0.16 | 0.57 | 0.57 | 97 | 1019.4 |
| 20260830143423 | 65 | 274 | 0.0 | 3.0 | 0.16 | 0.57 | 0.57 | 97 | 1019.4 |
| 20260830143317 | 65 | 234 | 0.0 | 3.0 | 0.18 | 0.57 | 0.57 | 97 | 1019.4 |
| 20260830143211 | 65 | 199 | 0.0 | 4.0 | 0.17 | 0.56 | 0.57 | 97 | 1019.8 |
| 20260830143123 | 65 | 196 | 0.0 | 4.0 | 0.17 | 0.56 | 0.56 | 97 | 1019.4 |
| 20260830143119 | 65 | 191 | 0.0 | 4.0 | 0.17 | 0.56 | 0.56 | 97 | 1019.4 |
| 20260830143000 | 65 | 185 | 0.0 | 6.0 | 0.17 | 0.56 | 0.56 | 97 | 1019.4 |
| 20260830142854 | 65 | 202 | 0.0 | 6.0 | 0.16 | 0.55 | 0.56 | 97 | 1019.4 |
| 20260830142838 | 65 | 214 | 0.0 | 6.0 | 0.18 | 0.55 | 0.55 | 97 | 1019.8 |
| 20260830142833 | 65 | 223 | 2.0 | 6.0 | 0.16 | 0.55 | 0.55 | 97 | 1019.4 |
| 20260830142824 | 65 | 210 | 0.0 | 6.0 | 0.18 | 0.55 | 0.55 | 97 | 1019.4 |
| 20260830142537 | 65 | 245 | 1.0 | 6.0 | 0.17 | 0.54 | 0.55 | 97 | 1019.8 |
| 20260830142444 | 65 | 240 | 1.0 | 6.0 | 0.17 | 0.54 | 0.54 | 97 | 1019.4 |
| 20260830142326 | 65 | 270 | 3.0 | 6.0 | 0.18 | 0.54 | 0.54 | 97 | 1019.4 |
| 20260830142219 | 65 | 211 | 0.0 | 6.0 | 0.18 | 0.54 | 0.54 | 97 | 1019.4 |
| 20260830142114 | 65 | 248 | 1.0 | 6.0 | 0.19 | 0.54 | 0.54 | 97 | 1019.4 |
| 20260830142058 | 65 | 248 | 1.0 | 6.0 | 0.19 | 0.54 | 0.54 | 97 | 1019.4 |
| 20260830142008 | 65 | 256 | 2.0 | 2.0 | 0.19 | 0.54 | 0.54 | 97 | 1019.4 |
| 20260830141902 | 65 | 180 | 0.0 | 1.0 | 0.19 | 0.54 | 0.54 | 97 | 1019.4 |
| 20260830141757 | 65 | 170 | 0.0 | 3.0 | 0.20 | 0.54 | 0.54 | 97 | 1019.4 |
| 20260830141652 | 65 | 205 | 0.0 | 4.0 | 0.21 | 0.54 | 0.54 | 97 | 1019.1 |
| 20260830141546 | 65 | 195 | 1.0 | 4.0 | 0.21 | 0.54 | 0.54 | 97 | 1019.4 |
| 20260830141439 | 65 | 267 | 0.0 | 4.0 | 0.22 | 0.54 | 0.54 | 97 | 1019.4 |
| 20260830141334 | 65 | 266 | 0.0 | 4.0 | 0.22 | 0.54 | 0.54 | 97 | 1019.4 |
| 20260830141228 | 65 | 263 | 0.0 | 4.0 | 0.23 | 0.54 | 0.54 | 97 | 1019.4 |
| 20260830141123 | 65 | 223 | 0.0 | 4.0 | 0.21 | 0.52 | 0.52 | 97 | 1019.1 |
| 20260830141045 | 65 | 214 | 0.0 | 4.0 | 0.22 | 0.52 | 0.52 | 97 | 1019.1 |
| 20260830141017 | 65 | 203 | 0.0 | 4.0 | 0.22 | 0.52 | 0.52 | 97 | 1019.4 |
| 20260830140912 | 66 | 261 | 0.0 | 4.0 | 0.22 | 0.52 | 0.52 | 97 | 1019.4 |
| 20260830140805 | 66 | 186 | 3.0 | 4.0 | 0.23 | 0.52 | 0.52 | 97 | 1019.4 |
| 20260830140700 | 66 | 183 | 0.0 | 2.0 | 0.24 | 0.52 | 0.52 | 97 | 1019.4 |
| 20260830140553 | 66 | 184 | 1.0 | 2.0 | 0.24 | 0.52 | 0.52 | 97 | 1019.4 |
| 20260830140538 | 66 | 191 | 0.0 | 2.0 | 0.24 | 0.52 | 0.52 | 97 | 1019.4 |
| 20260830140448 | 66 | 188 | 0.0 | 2.0 | 0.24 | 0.52 | 0.52 | 97 | 1019.4 |
| 20260830140343 | 66 | 197 | 0.0 | 2.0 | 0.22 | 0.50 | 0.52 | 97 | 1019.1 |
| 20260830140238 | 66 | 197 | 0.0 | 2.0 | 0.24 | 0.50 | 0.50 | 97 | 1019.1 |
| 20260830140133 | 66 | 182 | 0.0 | 2.0 | 0.24 | 0.50 | 0.50 | 97 | 1019.1 |
| 20260830140031 | 66 | 162 | 0.0 | 3.0 | 0.24 | 0.50 | 0.50 | 97 | 1019.1 |
| 20260830140026 | 66 | 202 | 0.0 | 3.0 | 0.23 | 0.49 | 0.49 | 97 | 1019.1 |
| 20260830135920 | 66 | 214 | 0.0 | 3.0 | 0.23 | 0.49 | 0.49 | 97 | 1019.8 |
| 20260830135814 | 66 | 150 | 1.0 | 3.0 | 0.25 | 0.49 | 0.49 | 97 | 1019.1 |
| 20260830135709 | 66 | 236 | 0.0 | 3.0 | 0.25 | 0.49 | 0.49 | 97 | 1019.4 |
| 20260830135602 | 66 | 215 | 0.0 | 3.0 | 0.25 | 0.48 | 0.49 | 97 | 1019.4 |
| 20260830135524 | 66 | 215 | 0.0 | 3.0 | 0.25 | 0.48 | 0.48 | 97 | 1019.4 |
| 20260830135457 | 66 | 234 | 0.0 | 3.0 | 0.25 | 0.48 | 0.48 | 97 | 1019.4 |
| 20260830135351 | 66 | 251 | 0.0 | 3.0 | 0.24 | 0.47 | 0.48 | 97 | 1019.1 |
| 20260830135256 | 66 | 277 | 0.0 | 3.0 | 0.25 | 0.47 | 0.47 | 97 | 1019.4 |
| 20260830135247 | 66 | 218 | 1.0 | 3.0 | 0.25 | 0.47 | 0.47 | 97 | 1019.4 |
| 20260830135238 | 66 | 296 | 0.0 | 1.0 | 0.25 | 0.46 | 0.46 | 97 | 1019.1 |
| 20260830134929 | 66 | 256 | 0.0 | 0.0 | 0.25 | 0.46 | 0.46 | 97 | 1019.1 |
| 20260830134822 | 66 | 225 | 0.0 | 0.0 | 0.25 | 0.45 | 0.46 | 97 | 1019.1 |
| 20260830134717 | 66 | 299 | 0.0 | 0.0 | 0.25 | 0.45 | 0.45 | 97 | 1019.1 |
| 20260830134612 | 67 | 247 | 0.0 | 0.0 | 0.24 | 0.44 | 0.45 | 97 | 1019.4 |
| 20260830134505 | 67 | 305 | 0.0 | 0.0 | 0.25 | 0.44 | 0.44 | 97 | 1019.4 |
| 20260830134400 | 67 | 299 | 0.0 | 0.0 | 0.24 | 0.43 | 0.44 | 97 | 1019.4 |
| 20260830134254 | 67 | 299 | 0.0 | 0.0 | 0.24 | 0.43 | 0.43 | 97 | 1019.4 |
| 20260830134148 | 67 | 299 | 0.0 | 0.0 | 0.24 | 0.42 | 0.43 | 97 | 1019.4 |
| 20260830134043 | 67 | 291 | 0.0 | 0.0 | 0.24 | 0.42 | 0.42 | 97 | 1019.4 |
| 20260830134005 | 67 | 291 | 0.0 | 0.0 | 0.25 | 0.42 | 0.42 | 97 | 1019.4 |
| 20260830133937 | 67 | 246 | 0.0 | 0.0 | 0.24 | 0.41 | 0.41 | 97 | 1019.4 |
| 20260830133831 | 67 | 246 | 0.0 | 0.0 | 0.24 | 0.41 | 0.41 | 97 | 1019.4 |
| 20260830133726 | 67 | 238 | 0.0 | 0.0 | 0.24 | 0.41 | 0.41 | 97 | 1019.4 |
| 20260830133619 | 67 | 237 | 0.0 | 1.0 | 0.25 | 0.41 | 0.41 | 97 | 1019.1 |
| 20260830133514 | 67 | 228 | 0.0 | 1.0 | 0.25 | 0.41 | 0.41 | 97 | 1019.1 |
| 20260830133459 | 67 | 200 | 0.0 | 1.0 | 0.25 | 0.41 | 0.41 | 97 | 1019.1 |
| 20260830133408 | 67 | 197 | 0.0 | 1.0 | 0.23 | 0.39 | 0.41 | 97 | 1018.7 |
| 20260830133303 | 67 | 196 | 0.0 | 1.0 | 0.23 | 0.39 | 0.39 | 97 | 1019.1 |
| 20260830133157 | 67 | 203 | 0.0 | 1.0 | 0.24 | 0.39 | 0.39 | 97 | 1019.1 |
| 20260830133051 | 67 | 178 | 0.0 | 1.0 | 0.24 | 0.39 | 0.39 | 97 | 1019.1 |
| 20260830132951 | 67 | 198 | 0.0 | 1.0 | 0.24 | 0.39 | 0.39 | 97 | 1019.1 |
| 20260830132945 | 67 | 198 | 0.0 | 1.0 | 0.24 | 0.39 | 0.39 | 97 | 1019.1 |
| 20260830132840 | 67 | 187 | 0.0 | 3.0 | 0.24 | 0.39 | 0.39 | 97 | 1019.1 |
| 20260830132733 | 67 | 179 | 0.0 | 6.0 | 0.22 | 0.37 | 0.39 | 97 | 1019.1 |
| 20260830132628 | 67 | 235 | 0.0 | 6.0 | 0.22 | 0.37 | 0.37 | 97 | 1019.1 |
| 20260830132522 | 67 | 237 | 0.0 | 6.0 | 0.22 | 0.37 | 0.37 | 97 | 1019.1 |
| 20260830132445 | 67 | 237 | 0.0 | 6.0 | 0.22 | 0.37 | 0.37 | 97 | 1019.1 |
| 20260830132416 | 67 | 237 | 0.0 | 6.0 | 0.21 | 0.36 | 0.37 | 97 | 1019.1 |
| 20260830132311 | 67 | 238 | 0.0 | 6.0 | 0.21 | 0.36 | 0.36 | 97 | 1019.1 |
| 20260830132206 | 67 | 227 | 0.0 | 6.0 | 0.22 | 0.35 | 0.36 | 97 | 1019.1 |
| 20260830132059 | 67 | 227 | 0.0 | 6.0 | 0.22 | 0.35 | 0.35 | 97 | 1019.1 |
| 20260830131939 | 67 | 227 | 1.0 | 6.0 | 0.22 | 0.35 | 0.35 | 97 | 1019.1 |
| 20260830131848 | 67 | 203 | 0.0 | 6.0 | 0.22 | 0.34 | 0.34 | 97 | 1019.1 |
| 20260830131743 | 67 | 202 | 0.0 | 4.0 | 0.21 | 0.33 | 0.34 | 97 | 1019.1 |
| 20260830131638 | 67 | 189 | 1.0 | 4.0 | 0.21 | 0.33 | 0.33 | 97 | 1018.7 |
| 20260830131544 | 67 | 202 | 3.0 | 3.0 | 0.21 | 0.32 | 0.33 | 97 | 1019.1 |
| 20260830131432 | 67 | 195 | 2.0 | 3.0 | 0.21 | 0.32 | 0.32 | 97 | 1019.1 |
| 20260830131425 | 67 | 195 | 2.0 | 3.0 | 0.21 | 0.32 | 0.32 | 97 | 1018.7 |
| 20260830131320 | 67 | 192 | 0.0 | 2.0 | 0.20 | 0.31 | 0.32 | 97 | 1018.7 |
| 20260830131214 | 67 | 188 | 0.0 | 3.0 | 0.20 | 0.31 | 0.31 | 97 | 1018.7 |
| 20260830131200 | 67 | 178 | 0.0 | 3.0 | 0.20 | 0.30 | 0.30 | 97 | 1018.7 |
| 20260830131154 | 67 | 194 | 0.0 | 3.0 | 0.19 | 0.30 | 0.31 | 97 | 1018.7 |
| 20260830131146 | 67 | 174 | 0.0 | 3.0 | 0.20 | 0.30 | 0.30 | 97 | 1018.7 |
| 20260830130857 | 67 | 151 | 0.0 | 3.0 | 0.19 | 0.29 | 0.30 | 97 | 1018.7 |
| 20260830130751 | 67 | 183 | 0.0 | 3.0 | 0.18 | 0.28 | 0.29 | 97 | 1018.7 |
| 20260830130647 | 67 | 181 | 0.0 | 3.0 | 0.18 | 0.28 | 0.28 | 97 | 1018.7 |
| 20260830130540 | 67 | 171 | 0.0 | 3.0 | 0.18 | 0.28 | 0.28 | 97 | 1018.7 |
| 20260830130434 | 67 | 149 | 0.0 | 3.0 | 0.18 | 0.28 | 0.28 | 97 | 1019.1 |
| 20260830130419 | 67 | 125 | 0.0 | 3.0 | 0.18 | 0.28 | 0.28 | 97 | 1019.1 |
| 20260830130328 | 67 | 188 | 2.0 | 3.0 | 0.16 | 0.26 | 0.28 | 97 | 1019.1 |
| 20260830130223 | 67 | 167 | 0.0 | 1.0 | 0.17 | 0.26 | 0.26 | 97 | 1018.7 |
| 20260830130121 | 67 | 166 | 0.0 | 1.0 | 0.17 | 0.26 | 0.26 | 97 | 1018.7 |
| 20260830130011 | 67 | 163 | 0.0 | 0.0 | 0.17 | 0.26 | 0.26 | 97 | 1019.1 |
| 20260830125910 | 67 | 163 | 0.0 | 0.0 | 0.17 | 0.26 | 0.26 | 97 | 1019.1 |
| 20260830125904 | 67 | 163 | 0.0 | 0.0 | 0.15 | 0.24 | 0.24 | 97 | 1019.1 |
| 20260830125759 | 67 | 162 | 0.0 | 0.0 | 0.16 | 0.24 | 0.24 | 97 | 1019.1 |
| 20260830125653 | 67 | 162 | 0.0 | 0.0 | 0.15 | 0.23 | 0.24 | 97 | 1019.1 |
| 20260830125547 | 67 | 161 | 0.0 | 0.0 | 0.15 | 0.23 | 0.23 | 97 | 1019.1 |
| 20260830125441 | 67 | 161 | 0.0 | 0.0 | 0.15 | 0.23 | 0.23 | 97 | 1018.7 |
| 20260830125404 | 67 | 161 | 0.0 | 0.0 | 0.15 | 0.23 | 0.23 | 97 | 1019.1 |
| 20260830125336 | 67 | 161 | 0.0 | 0.0 | 0.14 | 0.22 | 0.23 | 97 | 1019.1 |
| 20260830125230 | 66 | 161 | 0.0 | 0.0 | 0.14 | 0.22 | 0.22 | 97 | 1019.1 |
| 20260830125124 | 66 | 161 | 0.0 | 0.0 | 0.13 | 0.21 | 0.21 | 97 | 1019.1 |
| 20260830125019 | 66 | 160 | 0.0 | 0.0 | 0.13 | 0.21 | 0.21 | 97 | 1019.4 |
| 20260830124915 | 67 | 161 | 0.0 | 0.0 | 0.12 | 0.20 | 0.21 | 97 | 1019.1 |
| 20260830124858 | 67 | 161 | 0.0 | 0.0 | 0.12 | 0.20 | 0.21 | 97 | 1019.1 |
| 20260830124808 | 67 | 161 | 0.0 | 0.0 | 0.12 | 0.20 | 0.20 | 97 | 1019.4 |
| 20260830124700 | 67 | 161 | 0.0 | 0.0 | 0.12 | 0.20 | 0.20 | 97 | 1019.1 |
| 20260830124624 | 67 | 161 | 0.0 | 0.0 | 0.11 | 0.19 | 0.19 | 97 | 1019.4 |
| 20260830124619 | 67 | 161 | 0.0 | 0.0 | 0.11 | 0.19 | 0.20 | 97 | 1019.1 |
| 20260830124610 | 67 | 161 | 0.0 | 0.0 | 0.11 | 0.19 | 0.19 | 97 | 1019.4 |
| 20260830124343 | 67 | 161 | 0.0 | 0.0 | 0.11 | 0.19 | 0.19 | 97 | 1019.4 |
| 20260830124237 | 67 | 161 | 0.0 | 0.0 | 0.10 | 0.18 | 0.19 | 97 | 1019.4 |
| 20260830124131 | 67 | 161 | 0.0 | 0.0 | 0.09 | 0.17 | 0.17 | 97 | 1019.4 |
| 20260830124127 | 67 | 161 | 0.0 | 0.0 | 0.10 | 0.18 | 0.18 | 97 | 1019.4 |
| 20260830124116 | 67 | 161 | 0.0 | 0.0 | 0.09 | 0.17 | 0.18 | 97 | 1019.1 |
| 20260830124108 | 67 | 161 | 0.0 | 0.0 | 0.09 | 0.17 | 0.17 | 97 | 1019.4 |
| 20260830123810 | 67 | 161 | 0.0 | 0.0 | 0.09 | 0.17 | 0.17 | 97 | 1019.1 |
| 20260830123704 | 67 | 161 | 0.0 | 0.0 | 0.08 | 0.16 | 0.17 | 97 | 1019.4 |
| 20260830123558 | 67 | 161 | 0.0 | 0.0 | 0.08 | 0.16 | 0.16 | 97 | 1019.4 |
| 20260830123452 | 67 | 161 | 0.0 | 0.0 | 0.08 | 0.16 | 0.16 | 97 | 1019.4 |
| 20260830123347 | 67 | 161 | 0.0 | 0.0 | 0.08 | 0.16 | 0.16 | 97 | 1019.4 |
| 20260830123241 | 67 | 161 | 0.0 | 0.0 | 0.07 | 0.15 | 0.16 | 97 | 1019.8 |
| 20260830123133 | 67 | 161 | 0.0 | 0.0 | 0.07 | 0.15 | 0.15 | 97 | 1019.4 |
| 20260830123108 | 67 | 101 | 0.0 | 0.0 | 0.07 | 0.15 | 0.15 | 97 | 1019.8 |
| 20260830123102 | 67 | 101 | 0.0 | 0.0 | 0.07 | 0.15 | 0.15 | 97 | 1019.4 |
| 20260830123053 | 67 | 101 | 0.0 | 0.0 | 0.07 | 0.15 | 0.15 | 97 | 1019.8 |
| 20260830122816 | 67 | 100 | 0.0 | 0.0 | 0.07 | 0.15 | 0.15 | 97 | 1019.8 |
| 20260830122711 | 67 | 100 | 0.0 | 0.0 | 0.07 | 0.15 | 0.15 | 97 | 1019.8 |
| 20260830122604 | 67 | 100 | 0.0 | 0.0 | 0.07 | 0.15 | 0.15 | 97 | 1019.8 |
| 20260830122459 | 67 | 100 | 0.0 | 0.0 | 0.07 | 0.15 | 0.15 | 97 | 1019.8 |
| 20260830122352 | 67 | 100 | 0.0 | 0.0 | 0.07 | 0.15 | 0.15 | 97 | 1019.8 |
| 20260830122326 | 67 | 100 | 0.0 | 0.0 | 0.07 | 0.15 | 0.15 | 97 | 1019.4 |
| 20260830122247 | 67 | 100 | 0.0 | 0.0 | 0.05 | 0.13 | 0.13 | 97 | 1019.4 |
| 20260830122141 | 67 | 100 | 0.0 | 0.0 | 0.05 | 0.13 | 0.13 | 97 | 1019.8 |
| 20260830122035 | 67 | 100 | 0.0 | 0.0 | 0.05 | 0.13 | 0.13 | 97 | 1019.4 |
| 20260830121930 | 67 | 100 | 0.0 | 0.0 | 0.04 | 0.12 | 0.13 | 97 | 1019.4 |
| 20260830121824 | 67 | 100 | 0.0 | 0.0 | 0.04 | 0.12 | 0.12 | 97 | 1019.8 |
| 20260830121719 | 67 | 100 | 0.0 | 0.0 | 0.04 | 0.12 | 0.12 | 97 | 1019.4 |
| 20260830121614 | 67 | 100 | 0.0 | 0.0 | 0.03 | 0.11 | 0.12 | 97 | 1019.4 |
| 20260830121507 | 67 | 100 | 0.0 | 0.0 | 0.03 | 0.11 | 0.11 | 97 | 1019.4 |
| 20260830121404 | 66 | 100 | 0.0 | 0.0 | 0.03 | 0.11 | 0.11 | 97 | 1019.4 |
| 20260830121313 | 66 | 100 | 0.0 | 0.0 | 0.03 | 0.11 | 0.11 | 97 | 1019.4 |
| 20260830121255 | 66 | 100 | 0.0 | 0.0 | 0.03 | 0.11 | 0.11 | 97 | 1019.4 |
| 20260830121150 | 66 | 100 | 0.0 | 0.0 | 0.03 | 0.11 | 0.11 | 97 | 1019.4 |
| 20260830121044 | 66 | 100 | 0.0 | 0.0 | 0.02 | 0.10 | 0.11 | 97 | 1019.4 |
| 20260830120939 | 66 | 100 | 0.0 | 0.0 | 0.02 | 0.10 | 0.10 | 97 | 1019.4 |
| 20260830120833 | 66 | 100 | 0.0 | 0.0 | 0.02 | 0.10 | 0.10 | 97 | 1019.4 |
| 20260830120807 | 66 | 100 | 0.0 | 0.0 | 0.02 | 0.10 | 0.10 | 97 | 1019.4 |
| 20260830120728 | 66 | 100 | 0.0 | 0.0 | 0.02 | 0.10 | 0.10 | 97 | 1019.8 |
| 20260830120621 | 66 | 100 | 0.0 | 0.0 | 0.02 | 0.10 | 0.10 | 97 | 1019.4 |
| 20260830120552 | 66 | 100 | 0.0 | 0.0 | 0.01 | 0.09 | 0.10 | 97 | 1019.1 |
| 20260830120548 | 66 | 100 | 0.0 | 0.0 | 0.02 | 0.10 | 0.10 | 97 | 1019.4 |
| 20260830120527 | 66 | 100 | 0.0 | 0.0 | 0.02 | 0.10 | 0.10 | 97 | 1019.1 |
| 20260830120517 | 66 | 100 | 0.0 | 0.0 | 0.01 | 0.09 | 0.10 | 97 | 1019.1 |
| 20260830120212 | 66 | 100 | 0.0 | 0.0 | 0.01 | 0.09 | 0.09 | 97 | 1019.1 |
| 20260830120106 | 66 | 100 | 0.0 | 0.0 | 0.01 | 0.09 | 0.09 | 97 | 1019.1 |
| 20260830115947 | 66 | 100 | 0.0 | 0.0 | 0.01 | 0.09 | 0.09 | 97 | 1019.1 |
| 20260830115841 | 66 | 100 | 0.0 | 0.0 | 0.00 | 0.08 | 0.09 | 97 | 1019.1 |
| 20260830115753 | 66 | 100 | 0.0 | 0.0 | 0.00 | 0.08 | 0.09 | 97 | 1019.1 |
| 20260830115736 | 66 | 100 | 0.0 | 0.0 | 0.00 | 0.08 | 0.08 | 97 | 1019.1 |
| 20260830115630 | 66 | 100 | 0.0 | 0.0 | 0.00 | 0.08 | 0.08 | 97 | 1019.4 |
| 20260830115524 | 66 | 100 | 0.0 | 0.0 | 0.00 | 0.08 | 0.08 | 97 | 1019.4 |
| 20260830115418 | 66 | 100 | 0.0 | 0.0 | 0.00 | 0.08 | 0.08 | 97 | 1019.4 |
| 20260830115312 | 66 | 100 | 0.0 | 0.0 | 0.00 | 0.08 | 0.08 | 97 | 1019.4 |
| 20260830115246 | 66 | 100 | 0.0 | 0.0 | 0.00 | 0.08 | 0.08 | 97 | 1019.4 |
| 20260830115207 | 66 | 100 | 0.0 | 0.0 | 0.00 | 0.08 | 0.08 | 97 | 1019.4 |
| 20260830115102 | 66 | 100 | 0.0 | 0.0 | 0.00 | 0.08 | 0.08 | 97 | 1019.4 |
| 20260830114955 | 66 | 100 | 0.0 | 0.0 | 0.00 | 0.08 | 0.08 | 97 | 1019.4 |
| 20260830114850 | 66 | 108 | 0.0 | 0.0 | 0.00 | 0.08 | 0.08 | 97 | 1019.4 |
| 20260830114744 | 66 | 110 | 0.0 | 0.0 | 0.00 | 0.08 | 0.08 | 97 | 1019.8 |
| 20260830114637 | 66 | 110 | 0.0 | 0.0 | 0.00 | 0.08 | 0.08 | 97 | 1019.4 |
| 20260830114532 | 66 | 110 | 0.0 | 0.0 | 0.00 | 0.08 | 0.08 | 97 | 1019.1 |
| 20260830114501 | 66 | 120 | 0.0 | 0.0 | 0.00 | 0.08 | 0.08 | 97 | 1019.1 |
| 20260830114457 | 66 | 110 | 0.0 | 0.0 | 0.00 | 0.08 | 0.08 | 97 | 1019.1 |
| 20260830114449 | 66 | 118 | 0.0 | 0.0 | 0.00 | 0.08 | 0.08 | 97 | 1019.1 |
| 20260830114215 | 66 | 120 | 0.0 | 0.0 | 0.00 | 0.08 | 0.08 | 97 | 1018.7 |
| 20260830114108 | 66 | 122 | 0.0 | 0.0 | 0.00 | 0.08 | 0.08 | 97 | 1018.7 |
| 20260830114003 | 66 | 124 | 0.0 | 0.0 | 0.00 | 0.08 | 0.08 | 97 | 1018.7 |
| 20260830113858 | 66 | 126 | 0.0 | 0.0 | 0.01 | 0.08 | 0.08 | 97 | 1018.7 |
| 20260830113751 | 66 | 130 | 0.0 | 0.0 | 0.01 | 0.08 | 0.08 | 97 | 1018.4 |
| 20260830113725 | 66 | 130 | 0.0 | 0.0 | 0.01 | 0.08 | 0.08 | 97 | 1018.4 |
| 20260830113645 | 66 | 130 | 0.0 | 0.0 | 0.01 | 0.08 | 0.08 | 97 | 1018.4 |
| 20260830113540 | 66 | 130 | 0.0 | 0.0 | 0.01 | 0.08 | 0.08 | 97 | 1018.4 |
| 20260830113434 | 66 | 130 | 0.0 | 0.0 | 0.01 | 0.08 | 0.08 | 97 | 1018.1 |
| 20260830113329 | 66 | 130 | 0.0 | 0.0 | 0.01 | 0.08 | 0.08 | 97 | 1018.4 |
| 20260830113223 | 66 | 130 | 0.0 | 0.0 | 0.01 | 0.08 | 0.08 | 97 | 1018.4 |
| 20260830113116 | 66 | 130 | 0.0 | 0.0 | 0.01 | 0.08 | 0.08 | 97 | 1018.1 |
| 20260830113011 | 66 | 130 | 0.0 | 0.0 | 0.01 | 0.08 | 0.08 | 97 | 1018.4 |
| 20260830112906 | 66 | 130 | 0.0 | 0.0 | 0.01 | 0.08 | 0.08 | 97 | 1018.1 |
| 20260830112800 | 66 | 130 | 0.0 | 0.0 | 0.01 | 0.08 | 0.08 | 97 | 1018.1 |
| 20260830112712 | 66 | 130 | 0.0 | 0.0 | 0.01 | 0.08 | 0.08 | 97 | 1018.1 |
| 20260830112654 | 66 | 130 | 0.0 | 0.0 | 0.01 | 0.08 | 0.08 | 97 | 1018.1 |
| 20260830112548 | 66 | 130 | 0.0 | 0.0 | 0.01 | 0.08 | 0.08 | 97 | 1018.4 |
| 20260830112443 | 66 | 130 | 0.0 | 0.0 | 0.01 | 0.08 | 0.08 | 97 | 1018.1 |
| 20260830112337 | 66 | 130 | 0.0 | 0.0 | 0.01 | 0.08 | 0.08 | 97 | 1018.1 |
| 20260830112205 | 66 | 130 | 0.0 | 0.0 | 0.01 | 0.08 | 0.08 | 97 | 1018.1 |
| 20260830112126 | 66 | 130 | 0.0 | 0.0 | 0.01 | 0.08 | 0.08 | 96 | 1018.1 |
| 20260830112020 | 66 | 130 | 0.0 | 0.0 | 0.01 | 0.08 | 0.08 | 97 | 1018.1 |
| 20260830111914 | 66 | 130 | 0.0 | 0.0 | 0.01 | 0.08 | 0.08 | 96 | 1018.1 |
| 20260830111809 | 66 | 130 | 0.0 | 0.0 | 0.01 | 0.08 | 0.08 | 96 | 1018.1 |
| 20260830111703 | 66 | 130 | 0.0 | 0.0 | 0.01 | 0.08 | 0.08 | 96 | 1018.1 |
| 20260830111558 | 66 | 130 | 0.0 | 0.0 | 0.01 | 0.08 | 0.08 | 96 | 1018.1 |
| 20260830111454 | 66 | 130 | 0.0 | 0.0 | 0.01 | 0.08 | 0.08 | 96 | 1018.1 |
| 20260830111346 | 66 | 130 | 0.0 | 0.0 | 0.01 | 0.08 | 0.08 | 96 | 1018.1 |
| 20260830111239 | 66 | 129 | 0.0 | 0.0 | 0.01 | 0.08 | 0.08 | 96 | 1018.1 |
| 20260830111151 | 66 | 129 | 0.0 | 0.0 | 0.01 | 0.08 | 0.08 | 96 | 1018.1 |
| 20260830111134 | 66 | 129 | 0.0 | 0.0 | 0.01 | 0.08 | 0.08 | 97 | 1018.1 |
| 20260830111028 | 66 | 129 | 0.0 | 0.0 | 0.01 | 0.08 | 0.08 | 96 | 1018.1 |
| 20260830110923 | 66 | 129 | 0.0 | 0.0 | 0.01 | 0.08 | 0.08 | 96 | 1018.1 |
| 20260830110817 | 66 | 129 | 0.0 | 0.0 | 0.01 | 0.08 | 0.08 | 97 | 1018.1 |
| 20260830110711 | 66 | 129 | 0.0 | 0.0 | 0.01 | 0.08 | 0.08 | 97 | 1018.1 |
| 20260830110645 | 66 | 129 | 0.0 | 0.0 | 0.01 | 0.08 | 0.08 | 96 | 1018.1 |
| 20260830110605 | 66 | 129 | 0.0 | 0.0 | 0.01 | 0.08 | 0.08 | 96 | 1017.7 |
| 20260830110500 | 66 | 129 | 0.0 | 0.0 | 0.01 | 0.08 | 0.08 | 96 | 1017.7 |
| 20260830110415 | 66 | 129 | 0.0 | 0.0 | 0.01 | 0.08 | 0.08 | 97 | 1018.1 |
| 20260830110406 | 66 | 129 | 0.0 | 0.0 | 0.01 | 0.08 | 0.08 | 96 | 1018.1 |
| 20260830110356 | 66 | 129 | 0.0 | 0.0 | 0.01 | 0.08 | 0.08 | 96 | 1017.7 |
| 20260830110037 | 66 | 129 | 0.0 | 0.0 | 0.01 | 0.08 | 0.08 | 96 | 1018.1 |
| 20260830105931 | 66 | 129 | 0.0 | 0.0 | 0.01 | 0.08 | 0.08 | 96 | 1017.7 |
| 20260830105826 | 66 | 129 | 0.0 | 0.0 | 0.01 | 0.08 | 0.08 | 96 | 1018.1 |
| 20260830105722 | 66 | 129 | 0.0 | 0.0 | 0.01 | 0.08 | 0.08 | 97 | 1018.1 |
| 20260830105616 | 66 | 129 | 0.0 | 0.0 | 0.01 | 0.08 | 0.08 | 96 | 1018.1 |
| 20260830105511 | 66 | 129 | 0.0 | 0.0 | 0.01 | 0.08 | 0.08 | 96 | 1018.1 |
| 20260830105405 | 66 | 129 | 0.0 | 0.0 | 0.01 | 0.08 | 0.08 | 96 | 1018.1 |
| 20260830105300 | 66 | 129 | 0.0 | 0.0 | 0.01 | 0.08 | 0.08 | 96 | 1018.1 |
| 20260830105127 | 66 | 129 | 0.0 | 0.0 | 0.01 | 0.08 | 0.08 | 96 | 1018.1 |
| 20260830105048 | 66 | 129 | 0.0 | 0.0 | 0.01 | 0.08 | 0.08 | 96 | 1018.1 |
| 20260830104942 | 66 | 129 | 0.0 | 0.0 | 0.02 | 0.08 | 0.08 | 96 | 1018.1 |
| 20260830104837 | 66 | 129 | 0.0 | 0.0 | 0.02 | 0.08 | 0.08 | 96 | 1018.1 |
| 20260830104730 | 66 | 129 | 0.0 | 0.0 | 0.02 | 0.08 | 0.08 | 96 | 1017.7 |
| 20260830104625 | 66 | 129 | 0.0 | 0.0 | 0.02 | 0.08 | 0.08 | 96 | 1018.1 |
| 20260830104520 | 65 | 129 | 0.0 | 0.0 | 0.02 | 0.08 | 0.08 | 96 | 1018.1 |
| 20260830104413 | 65 | 129 | 0.0 | 0.0 | 0.02 | 0.08 | 0.08 | 96 | 1018.1 |
| 20260830104308 | 65 | 129 | 0.0 | 0.0 | 0.02 | 0.08 | 0.08 | 96 | 1017.7 |
| 20260830104203 | 65 | 129 | 0.0 | 0.0 | 0.03 | 0.08 | 0.08 | 96 | 1018.1 |
| 20260830104113 | 65 | 129 | 0.0 | 0.0 | 0.03 | 0.08 | 0.08 | 96 | 1018.1 |
| 20260830104056 | 65 | 129 | 0.0 | 0.0 | 0.03 | 0.08 | 0.08 | 96 | 1018.1 |
| 20260830103951 | 65 | 129 | 0.0 | 0.0 | 0.02 | 0.07 | 0.08 | 96 | 1018.1 |
| 20260830103858 | 65 | 129 | 0.0 | 0.0 | 0.02 | 0.07 | 0.07 | 96 | 1018.1 |
| 20260830103740 | 65 | 129 | 0.0 | 0.0 | 0.02 | 0.07 | 0.07 | 96 | 1018.1 |
| 20260830103609 | 65 | 129 | 0.0 | 0.0 | 0.02 | 0.07 | 0.07 | 96 | 1018.1 |
| 20260830103541 | 65 | 129 | 0.0 | 0.0 | 0.02 | 0.07 | 0.07 | 96 | 1018.1 |
| 20260830103422 | 66 | 129 | 0.0 | 0.0 | 0.02 | 0.07 | 0.07 | 96 | 1018.1 |
| 20260830103316 | 66 | 129 | 0.0 | 0.0 | 0.02 | 0.07 | 0.07 | 96 | 1018.1 |
| 20260830103210 | 66 | 130 | 0.0 | 0.0 | 0.02 | 0.07 | 0.07 | 96 | 1018.4 |
| 20260830103103 | 66 | 134 | 0.0 | 0.0 | 0.02 | 0.07 | 0.07 | 96 | 1017.7 |
| 20260830102958 | 66 | 180 | 0.0 | 0.0 | 0.02 | 0.07 | 0.07 | 96 | 1018.1 |
| 20260830102852 | 66 | 180 | 0.0 | 0.0 | 0.02 | 0.07 | 0.07 | 96 | 1018.1 |
| 20260830102746 | 66 | 180 | 0.0 | 0.0 | 0.03 | 0.07 | 0.07 | 96 | 1018.1 |
| 20260830102640 | 66 | 180 | 0.0 | 0.0 | 0.03 | 0.07 | 0.07 | 96 | 1018.1 |
| 20260830102534 | 66 | 180 | 0.0 | 0.0 | 0.03 | 0.07 | 0.07 | 96 | 1018.1 |
| 20260830102429 | 66 | 180 | 0.0 | 0.0 | 0.03 | 0.07 | 0.07 | 96 | 1018.1 |
| 20260830102327 | 66 | 128 | 0.0 | 2.0 | 0.03 | 0.07 | 0.07 | 96 | 1018.1 |
| 20260830102323 | 66 | 180 | 0.0 | 0.0 | 0.03 | 0.07 | 0.07 | 96 | 1018.1 |
| 20260830102312 | 66 | 127 | 0.0 | 1.0 | 0.03 | 0.07 | 0.07 | 96 | 1018.1 |
| 20260830102306 | 66 | 128 | 0.0 | 1.0 | 0.03 | 0.07 | 0.07 | 96 | 1018.1 |
| 20260830102006 | 66 | 133 | 0.0 | 2.0 | 0.03 | 0.07 | 0.07 | 96 | 1018.1 |
| 20260830101901 | 66 | 182 | 0.0 | 2.0 | 0.03 | 0.07 | 0.07 | 96 | 1018.1 |
| 20260830101755 | 66 | 183 | 0.0 | 2.0 | 0.03 | 0.07 | 0.07 | 96 | 1018.1 |
| 20260830101649 | 66 | 182 | 0.0 | 2.0 | 0.03 | 0.07 | 0.07 | 96 | 1018.1 |
| 20260830101544 | 66 | 162 | 0.0 | 2.0 | 0.03 | 0.07 | 0.07 | 96 | 1018.1 |
| 20260830101437 | 66 | 176 | 0.0 | 2.0 | 0.03 | 0.07 | 0.07 | 96 | 1018.1 |
| 20260830101332 | 66 | 165 | 0.0 | 2.0 | 0.03 | 0.07 | 0.07 | 96 | 1018.1 |
| 20260830101226 | 66 | 184 | 0.0 | 2.0 | 0.03 | 0.07 | 0.07 | 96 | 1018.1 |
| 20260830101121 | 66 | 170 | 0.0 | 2.0 | 0.03 | 0.07 | 0.07 | 96 | 1018.1 |
| 20260830101031 | 66 | 169 | 0.0 | 0.0 | 0.03 | 0.07 | 0.07 | 96 | 1018.1 |
| 20260830101015 | 66 | 162 | 0.0 | 0.0 | 0.03 | 0.07 | 0.07 | 96 | 1017.7 |
| 20260830100909 | 66 | 174 | 0.0 | 2.0 | 0.03 | 0.07 | 0.07 | 96 | 1017.7 |
| 20260830100803 | 66 | 155 | 0.0 | 2.0 | 0.03 | 0.07 | 0.07 | 96 | 1017.7 |
| 20260830100657 | 66 | 153 | 0.0 | 2.0 | 0.03 | 0.07 | 0.07 | 96 | 1017.7 |
| 20260830100552 | 66 | 153 | 0.0 | 2.0 | 0.03 | 0.07 | 0.07 | 96 | 1017.7 |
| 20260830100537 | 66 | 162 | 0.0 | 2.0 | 0.03 | 0.07 | 0.07 | 96 | 1017.7 |
| 20260830100446 | 66 | 187 | 0.0 | 2.0 | 0.03 | 0.07 | 0.07 | 96 | 1017.7 |
| 20260830100341 | 66 | 153 | 0.0 | 2.0 | 0.03 | 0.07 | 0.07 | 96 | 1017.7 |
| 20260830100234 | 66 | 153 | 0.0 | 2.0 | 0.03 | 0.07 | 0.07 | 96 | 1017.7 |
| 20260830100140 | 66 | 155 | 0.0 | 2.0 | 0.03 | 0.07 | 0.07 | 96 | 1017.7 |
| 20260830100021 | 66 | 166 | 0.0 | 2.0 | 0.03 | 0.07 | 0.07 | 96 | 1018.1 |
| 20260830095915 | 66 | 196 | 1.0 | 2.0 | 0.04 | 0.07 | 0.07 | 96 | 1018.1 |
| 20260830095809 | 66 | 161 | 0.0 | 0.0 | 0.04 | 0.07 | 0.07 | 96 | 1018.1 |
| 20260830095704 | 66 | 160 | 0.0 | 0.0 | 0.04 | 0.07 | 0.07 | 96 | 1018.1 |
| 20260830095558 | 66 | 203 | 0.0 | 0.0 | 0.04 | 0.07 | 0.07 | 96 | 1018.1 |
| 20260830095520 | 66 | 203 | 0.0 | 0.0 | 0.04 | 0.07 | 0.07 | 96 | 1018.4 |
| 20260830095452 | 66 | 203 | 0.0 | 0.0 | 0.04 | 0.07 | 0.07 | 96 | 1018.4 |
| 20260830095346 | 66 | 203 | 0.0 | 0.0 | 0.04 | 0.07 | 0.07 | 96 | 1018.1 |
| 20260830095241 | 66 | 203 | 0.0 | 0.0 | 0.04 | 0.07 | 0.07 | 96 | 1018.4 |
| 20260830095135 | 66 | 203 | 0.0 | 0.0 | 0.04 | 0.07 | 0.07 | 96 | 1018.4 |
| 20260830095014 | 66 | 203 | 0.0 | 0.0 | 0.03 | 0.06 | 0.07 | 96 | 1018.1 |
| 20260830094923 | 66 | 203 | 0.0 | 0.0 | 0.03 | 0.06 | 0.06 | 96 | 1018.1 |
| 20260830094818 | 65 | 203 | 0.0 | 0.0 | 0.03 | 0.06 | 0.06 | 96 | 1018.4 |
| 20260830094712 | 65 | 204 | 0.0 | 1.0 | 0.03 | 0.06 | 0.06 | 96 | 1018.1 |
| 20260830094607 | 65 | 204 | 0.0 | 1.0 | 0.03 | 0.06 | 0.06 | 96 | 1018.4 |
| 20260830094507 | 65 | 204 | 0.0 | 1.0 | 0.03 | 0.06 | 0.06 | 96 | 1018.4 |
| 20260830094501 | 65 | 204 | 0.0 | 1.0 | 0.03 | 0.06 | 0.06 | 96 | 1018.4 |
| 20260830094355 | 65 | 204 | 0.0 | 1.0 | 0.03 | 0.06 | 0.06 | 96 | 1018.4 |
| 20260830094249 | 65 | 204 | 0.0 | 6.0 | 0.02 | 0.05 | 0.05 | 96 | 1018.4 |
| 20260830094144 | 65 | 204 | 0.0 | 6.0 | 0.02 | 0.05 | 0.05 | 96 | 1018.7 |
| 20260830094037 | 66 | 204 | 0.0 | 6.0 | 0.02 | 0.05 | 0.05 | 96 | 1018.7 |
| 20260830094001 | 66 | 196 | 0.0 | 6.0 | 0.02 | 0.05 | 0.05 | 96 | 1018.7 |
| 20260830093932 | 66 | 195 | 0.0 | 6.0 | 0.02 | 0.05 | 0.05 | 96 | 1018.7 |
| 20260830093827 | 66 | 189 | 0.0 | 6.0 | 0.02 | 0.05 | 0.05 | 96 | 1018.4 |
| 20260830093728 | 66 | 174 | 0.0 | 6.0 | 0.03 | 0.05 | 0.05 | 96 | 1018.1 |
| 20260830093723 | 66 | 185 | 0.0 | 6.0 | 0.02 | 0.05 | 0.05 | 96 | 1018.4 |
| 20260830093714 | 66 | 172 | 0.0 | 6.0 | 0.02 | 0.05 | 0.05 | 96 | 1018.1 |
| 20260830093439 | 66 | 170 | 0.0 | 6.0 | 0.03 | 0.05 | 0.05 | 96 | 1018.1 |
| 20260830093333 | 65 | 201 | 4.0 | 6.0 | 0.03 | 0.05 | 0.05 | 96 | 1018.1 |
| 20260830093227 | 65 | 178 | 0.0 | 0.0 | 0.03 | 0.05 | 0.05 | 96 | 1018.1 |
| 20260830093122 | 65 | 81 | 0.0 | 0.0 | 0.03 | 0.05 | 0.05 | 96 | 1018.1 |
| 20260830093015 | 65 | 79 | 0.0 | 0.0 | 0.03 | 0.05 | 0.05 | 96 | 1018.1 |
| 20260830092949 | 65 | 79 | 0.0 | 0.0 | 0.03 | 0.05 | 0.05 | 96 | 1018.1 |
| 20260830092910 | 65 | 78 | 0.0 | 0.0 | 0.03 | 0.05 | 0.05 | 96 | 1018.1 |
| 20260830092805 | 65 | 78 | 0.0 | 0.0 | 0.02 | 0.04 | 0.05 | 96 | 1018.1 |
| 20260830092659 | 65 | 78 | 0.0 | 0.0 | 0.02 | 0.04 | 0.04 | 96 | 1018.1 |
| 20260830092553 | 65 | 78 | 0.0 | 0.0 | 0.02 | 0.04 | 0.04 | 96 | 1018.4 |
| 20260830092447 | 65 | 78 | 0.0 | 0.0 | 0.02 | 0.04 | 0.04 | 96 | 1018.7 |
| 20260830092342 | 65 | 78 | 0.0 | 0.0 | 0.02 | 0.04 | 0.04 | 96 | 1018.7 |
| 20260830092236 | 65 | 78 | 0.0 | 0.0 | 0.02 | 0.04 | 0.04 | 96 | 1018.7 |
| 20260830092130 | 65 | 78 | 0.0 | 2.0 | 0.02 | 0.04 | 0.04 | 96 | 1018.7 |
| 20260830092024 | 65 | 78 | 0.0 | 2.0 | 0.02 | 0.04 | 0.04 | 96 | 1019.1 |
| 20260830091936 | 65 | 78 | 0.0 | 2.0 | 0.02 | 0.04 | 0.04 | 96 | 1019.1 |
| 20260830091919 | 65 | 78 | 0.0 | 2.0 | 0.02 | 0.04 | 0.04 | 96 | 1018.7 |
| 20260830091813 | 65 | 78 | 0.0 | 2.0 | 0.02 | 0.04 | 0.04 | 96 | 1019.1 |
| 20260830091707 | 65 | 78 | 0.0 | 2.0 | 0.02 | 0.04 | 0.04 | 96 | 1019.1 |
| 20260830091601 | 65 | 78 | 0.0 | 2.0 | 0.02 | 0.04 | 0.04 | 96 | 1018.7 |
| 20260830091456 | 65 | 78 | 0.0 | 2.0 | 0.02 | 0.04 | 0.04 | 96 | 1018.7 |
| 20260830091430 | 65 | 78 | 0.0 | 2.0 | 0.02 | 0.04 | 0.04 | 95 | 1018.7 |
| 20260830091351 | 65 | 81 | 0.0 | 2.0 | 0.02 | 0.04 | 0.04 | 95 | 1018.7 |
| 20260830091244 | 65 | 98 | 0.0 | 2.0 | 0.02 | 0.04 | 0.04 | 95 | 1018.4 |
| 20260830091139 | 65 | 119 | 0.0 | 0.0 | 0.02 | 0.04 | 0.04 | 95 | 1018.4 |
| 20260830091033 | 65 | 120 | 0.0 | 0.0 | 0.02 | 0.04 | 0.04 | 96 | 1018.1 |
| 20260830090926 | 66 | 125 | 0.0 | 0.0 | 0.02 | 0.04 | 0.04 | 95 | 1018.4 |
| 20260830090822 | 66 | 125 | 0.0 | 0.0 | 0.02 | 0.04 | 0.04 | 95 | 1018.1 |
| 20260830090716 | 66 | 125 | 0.0 | 0.0 | 0.02 | 0.04 | 0.04 | 95 | 1018.4 |
| 20260830090610 | 66 | 125 | 0.0 | 0.0 | 0.02 | 0.04 | 0.04 | 96 | 1018.1 |
| 20260830090517 | 66 | 143 | 0.0 | 0.0 | 0.02 | 0.04 | 0.04 | 95 | 1018.4 |
| 20260830090417 | 65 | 143 | 0.0 | 0.0 | 0.02 | 0.04 | 0.04 | 95 | 1018.4 |
| 20260830090359 | 65 | 169 | 0.0 | 0.0 | 0.02 | 0.04 | 0.04 | 95 | 1018.4 |
| 20260830090253 | 66 | 169 | 0.0 | 0.0 | 0.02 | 0.04 | 0.04 | 95 | 1018.4 |
| 20260830090147 | 66 | 169 | 0.0 | 0.0 | 0.02 | 0.04 | 0.04 | 95 | 1018.7 |
| 20260830090041 | 66 | 170 | 0.0 | 0.0 | 0.02 | 0.04 | 0.04 | 95 | 1018.4 |
| 20260830085910 | 66 | 169 | 0.0 | 0.0 | 0.01 | 0.03 | 0.03 | 95 | 1018.4 |
| 20260830085830 | 66 | 168 | 0.0 | 0.0 | 0.01 | 0.03 | 0.03 | 95 | 1018.7 |
| 20260830085724 | 66 | 148 | 0.0 | 0.0 | 0.01 | 0.03 | 0.03 | 95 | 1018.4 |
| 20260830085619 | 66 | 145 | 0.0 | 0.0 | 0.01 | 0.03 | 0.03 | 95 | 1018.7 |
| 20260830085514 | 66 | 145 | 0.0 | 0.0 | 0.01 | 0.03 | 0.03 | 95 | 1018.7 |
| 20260830085407 | 66 | 145 | 0.0 | 0.0 | 0.01 | 0.03 | 0.03 | 95 | 1018.7 |
| 20260830085302 | 66 | 145 | 0.0 | 0.0 | 0.01 | 0.03 | 0.03 | 95 | 1018.7 |
| 20260830085156 | 66 | 145 | 0.0 | 0.0 | 0.03 | 0.03 | 0.03 | 95 | 1018.7 |
| 20260830085050 | 66 | 145 | 0.0 | 0.0 | 0.03 | 0.03 | 0.03 | 95 | 1018.7 |
| 20260830084945 | 66 | 117 | 0.0 | 0.0 | 0.03 | 0.03 | 0.03 | 95 | 1018.7 |
| 20260830084839 | 66 | 115 | 0.0 | 0.0 | 0.03 | 0.03 | 0.03 | 95 | 1018.7 |
| 20260830084731 | 66 | 115 | 0.0 | 0.0 | 0.03 | 0.03 | 0.03 | 95 | 1018.7 |
| 20260830084625 | 66 | 114 | 0.0 | 0.0 | 0.03 | 0.03 | 0.03 | 95 | 1018.7 |
| 20260830084519 | 66 | 114 | 0.0 | 0.0 | 0.03 | 0.03 | 0.03 | 95 | 1018.7 |
| 20260830084414 | 66 | 114 | 0.0 | 0.0 | 0.03 | 0.03 | 0.03 | 95 | 1018.7 |
| 20260830084348 | 66 | 114 | 0.0 | 0.0 | 0.03 | 0.03 | 0.03 | 95 | 1018.7 |
| 20260830084308 | 66 | 114 | 0.0 | 0.0 | 0.03 | 0.03 | 0.03 | 95 | 1018.7 |
| 20260830084202 | 65 | 118 | 0.0 | 0.0 | 0.03 | 0.03 | 0.03 | 95 | 1018.7 |
| 20260830084057 | 65 | 136 | 0.0 | 0.0 | 0.03 | 0.03 | 0.03 | 95 | 1018.7 |
| 20260830083952 | 65 | 136 | 0.0 | 0.0 | 0.03 | 0.03 | 0.03 | 95 | 1018.7 |
| 20260830083846 | 65 | 136 | 0.0 | 0.0 | 0.03 | 0.03 | 0.03 | 95 | 1018.7 |
| 20260830083740 | 65 | 136 | 0.0 | 0.0 | 0.03 | 0.03 | 0.03 | 95 | 1018.7 |
| 20260830083634 | 65 | 135 | 0.0 | 0.0 | 0.03 | 0.03 | 0.03 | 95 | 1018.7 |
| 20260830083528 | 66 | 132 | 0.0 | 0.0 | 0.02 | 0.02 | 0.03 | 95 | 1019.1 |
| 20260830083423 | 66 | 131 | 0.0 | 0.0 | 0.02 | 0.02 | 0.02 | 95 | 1019.1 |
| 20260830083334 | 66 | 131 | 0.0 | 0.0 | 0.02 | 0.02 | 0.02 | 95 | 1019.1 |
| 20260830083317 | 66 | 130 | 0.0 | 0.0 | 0.02 | 0.02 | 0.02 | 95 | 1018.7 |
| 20260830083211 | 65 | 130 | 0.0 | 0.0 | 0.02 | 0.02 | 0.02 | 95 | 1019.1 |
| 20260830083105 | 65 | 118 | 0.0 | 0.0 | 0.02 | 0.02 | 0.02 | 95 | 1019.1 |
| 20260830083000 | 65 | 117 | 0.0 | 0.0 | 0.02 | 0.02 | 0.02 | 95 | 1019.1 |
| 20260830082827 | 65 | 116 | 0.0 | 0.0 | 0.02 | 0.02 | 0.02 | 95 | 1019.1 |
| 20260830082748 | 65 | 116 | 0.0 | 0.0 | 0.02 | 0.02 | 0.02 | 95 | 1019.1 |
| 20260830082643 | 65 | 116 | 0.0 | 0.0 | 0.02 | 0.02 | 0.02 | 94 | 1019.1 |
| 20260830082537 | 65 | 116 | 0.0 | 0.0 | 0.02 | 0.02 | 0.02 | 94 | 1019.1 |
| 20260830082431 | 65 | 116 | 0.0 | 0.0 | 0.02 | 0.02 | 0.02 | 94 | 1019.1 |
| 20260830082325 | 66 | 116 | 0.0 | 0.0 | 0.02 | 0.02 | 0.02 | 94 | 1019.1 |
| 20260830082219 | 66 | 116 | 0.0 | 0.0 | 0.02 | 0.02 | 0.02 | 94 | 1019.1 |
| 20260830082114 | 66 | 116 | 0.0 | 0.0 | 0.02 | 0.02 | 0.02 | 94 | 1019.1 |
| 20260830082009 | 66 | 116 | 0.0 | 0.0 | 0.02 | 0.02 | 0.02 | 94 | 1019.1 |
| 20260830081903 | 66 | 116 | 0.0 | 0.0 | 0.02 | 0.02 | 0.02 | 94 | 1019.1 |
| 20260830081815 | 66 | 116 | 0.0 | 0.0 | 0.02 | 0.02 | 0.02 | 94 | 1019.4 |
| 20260830081756 | 66 | 116 | 0.0 | 0.0 | 0.02 | 0.02 | 0.02 | 94 | 1019.4 |
| 20260830081651 | 66 | 116 | 0.0 | 0.0 | 0.02 | 0.02 | 0.02 | 94 | 1019.1 |
| 20260830081544 | 66 | 116 | 0.0 | 0.0 | 0.02 | 0.02 | 0.02 | 94 | 1019.1 |
| 20260830081439 | 66 | 116 | 0.0 | 0.0 | 0.02 | 0.02 | 0.02 | 94 | 1019.1 |
| 20260830081307 | 66 | 116 | 0.0 | 0.0 | 0.02 | 0.02 | 0.02 | 94 | 1019.1 |
| 20260830081228 | 66 | 117 | 0.0 | 0.0 | 0.02 | 0.02 | 0.02 | 94 | 1019.1 |
| 20260830081121 | 66 | 117 | 0.0 | 0.0 | 0.02 | 0.02 | 0.02 | 94 | 1019.1 |
| 20260830081016 | 66 | 117 | 0.0 | 0.0 | 0.02 | 0.02 | 0.02 | 94 | 1019.1 |
| 20260830080911 | 66 | 117 | 0.0 | 0.0 | 0.02 | 0.02 | 0.02 | 94 | 1018.7 |
| 20260830080805 | 66 | 117 | 0.0 | 0.0 | 0.02 | 0.02 | 0.02 | 94 | 1019.1 |
| 20260830080659 | 66 | 117 | 0.0 | 0.0 | 0.02 | 0.02 | 0.02 | 94 | 1019.1 |
| 20260830080553 | 66 | 117 | 0.0 | 0.0 | 0.02 | 0.02 | 0.02 | 94 | 1019.1 |
| 20260830080501 | 66 | 115 | 0.0 | 0.0 | 0.02 | 0.02 | 0.02 | 94 | 1019.1 |
| 20260830080341 | 66 | 113 | 0.0 | 0.0 | 0.02 | 0.02 | 0.02 | 94 | 1019.1 |
| 20260830080235 | 66 | 113 | 0.0 | 0.0 | 0.02 | 0.02 | 0.02 | 94 | 1018.7 |
| 20260830080129 | 66 | 113 | 0.0 | 0.0 | 0.02 | 0.02 | 0.02 | 94 | 1018.7 |
| 20260830080023 | 66 | 113 | 0.0 | 0.0 | 0.02 | 0.02 | 0.02 | 94 | 1018.7 |
| 20260830075917 | 66 | 113 | 0.0 | 0.0 | 0.02 | 0.02 | 0.02 | 94 | 1019.1 |
| 20260830075812 | 66 | 113 | 0.0 | 0.0 | 0.02 | 0.02 | 0.02 | 94 | 1019.1 |
| 20260830075746 | 66 | 113 | 0.0 | 0.0 | 0.02 | 0.02 | 0.02 | 94 | 1019.1 |
| 20260830075706 | 66 | 113 | 0.0 | 0.0 | 0.02 | 0.02 | 0.02 | 94 | 1019.1 |
| 20260830075600 | 66 | 113 | 0.0 | 0.0 | 0.02 | 0.02 | 0.02 | 94 | 1019.1 |
| 20260830075455 | 66 | 113 | 0.0 | 0.0 | 0.02 | 0.02 | 0.02 | 94 | 1019.1 |
| 20260830075349 | 65 | 113 | 0.0 | 0.0 | 0.02 | 0.02 | 0.02 | 94 | 1019.1 |
| 20260830075243 | 65 | 113 | 0.0 | 0.0 | 0.00 | 0.00 | 0.02 | 94 | 1019.1 |
| 20260830075137 | 65 | 113 | 0.0 | 0.0 | 0.00 | 0.00 | 0.00 | 94 | 1019.1 |
| 20260830075032 | 65 | 113 | 0.0 | 0.0 | 0.00 | 0.00 | 0.00 | 94 | 1018.7 |
| 20260830075006 | 65 | 113 | 0.0 | 0.0 | 0.00 | 0.00 | 0.00 | 93 | 1019.1 |
| 20260830075002 | 65 | 113 | 0.0 | 0.0 | 0.00 | 0.00 | 0.00 | 94 | 1019.1 |
| 20260830074954 | 65 | 113 | 0.0 | 0.0 | 0.00 | 0.00 | 0.00 | 93 | 1019.1 |
| 20260830074714 | 65 | 112 | 0.0 | 0.0 | 0.00 | 0.00 | 0.00 | 93 | 1019.1 |
| 20260830074607 | 65 | 113 | 0.0 | 0.0 | 0.00 | 0.00 | 0.00 | 93 | 1019.1 |
| 20260830074503 | 65 | 113 | 0.0 | 0.0 | 0.00 | 0.00 | 0.00 | 93 | 1019.1 |
| 20260830074357 | 65 | 113 | 0.0 | 0.0 | 0.00 | 0.00 | 0.00 | 93 | 1019.1 |
| 20260830074224 | 65 | 113 | 0.0 | 0.0 | 0.00 | 0.00 | 0.00 | 93 | 1019.1 |
| 20260830074145 | 65 | 113 | 0.0 | 0.0 | 0.00 | 0.00 | 0.00 | 93 | 1019.1 |
| 20260830074039 | 65 | 112 | 0.0 | 0.0 | 0.00 | 0.00 | 0.00 | 93 | 1019.1 |
| 20260830073934 | 65 | 113 | 0.0 | 0.0 | 0.00 | 0.00 | 0.00 | 93 | 1019.4 |
| 20260830073828 | 65 | 113 | 0.0 | 0.0 | 0.00 | 0.00 | 0.00 | 93 | 1019.1 |
| 20260830073723 | 65 | 112 | 0.0 | 0.0 | 0.00 | 0.00 | 0.00 | 93 | 1019.1 |
| 20260830073616 | 65 | 112 | 0.0 | 0.0 | 0.00 | 0.00 | 0.00 | 93 | 1019.1 |
| 20260830073511 | 65 | 112 | 0.0 | 0.0 | 0.00 | 0.00 | 0.00 | 93 | 1019.4 |
| 20260830073418 | 65 | 112 | 0.0 | 0.0 | 0.00 | 0.00 | 0.00 | 93 | 1019.1 |
| 20260830073300 | 65 | 112 | 0.0 | 0.0 | 0.00 | 0.00 | 0.00 | 93 | 1019.4 |
| 20260830073212 | 65 | 112 | 0.0 | 0.0 | 0.00 | 0.00 | 0.00 | 93 | 1019.1 |
| 20260830073154 | 65 | 112 | 0.0 | 0.0 | 0.00 | 0.00 | 0.00 | 93 | 1019.1 |
| 20260830073048 | 65 | 112 | 0.0 | 0.0 | 0.00 | 0.00 | 0.00 | 93 | 1019.1 |
| 20260830072942 | 65 | 112 | 0.0 | 0.0 | 0.00 | 0.00 | 0.00 | 93 | 1019.4 |
| 20260830072837 | 65 | 112 | 0.0 | 0.0 | 0.00 | 0.00 | 0.00 | 93 | 1019.4 |
| 20260830072704 | 65 | 112 | 0.0 | 0.0 | 0.00 | 0.00 | 0.00 | 93 | 1019.4 |
| 20260830072625 | 65 | 112 | 0.0 | 0.0 | 0.00 | 0.00 | 0.00 | 93 | 1019.4 |
| 20260830072520 | 65 | 113 | 0.0 | 0.0 | 0.00 | 0.00 | 0.00 | 93 | 1019.4 |
| 20260830072414 | 65 | 113 | 0.0 | 0.0 | 0.00 | 0.00 | 0.00 | 93 | 1019.1 |
| 20260830072308 | 65 | 113 | 0.0 | 0.0 | 0.00 | 0.00 | 0.00 | 93 | 1019.1 |
| 20260830072202 | 65 | 113 | 0.0 | 0.0 | 0.00 | 0.00 | 0.00 | 93 | 1019.4 |
| 20260830072057 | 65 | 113 | 0.0 | 0.0 | 0.00 | 0.00 | 0.00 | 93 | 1019.1 |
| 20260830071950 | 65 | 113 | 0.0 | 0.0 | 0.00 | 0.00 | 0.00 | 93 | 1019.1 |
| 20260830071845 | 65 | 113 | 0.0 | 0.0 | 0.00 | 0.00 | 0.00 | 93 | 1019.4 |
| 20260830071740 | 65 | 113 | 0.0 | 0.0 | 0.00 | 0.00 | 0.00 | 92 | 1019.1 |
| 20260830071634 | 65 | 113 | 0.0 | 0.0 | 0.00 | 0.00 | 0.00 | 92 | 1019.1 |
| 20260830071528 | 65 | 113 | 0.0 | 0.0 | 0.00 | 0.00 | 0.00 | 92 | 1019.1 |
| 20260830071422 | 65 | 113 | 0.0 | 0.0 | 0.00 | 0.00 | 0.00 | 92 | 1019.1 |
| 20260830071317 | 65 | 113 | 0.0 | 0.0 | 0.00 | 0.00 | 0.00 | 92 | 1019.1 |
| 20260830071210 | 65 | 113 | 0.0 | 0.0 | 0.00 | 0.00 | 0.00 | 92 | 1019.1 |
| 20260830071144 | 65 | 113 | 0.0 | 0.0 | 0.00 | 0.00 | 0.00 | 92 | 1019.1 |
| 20260830071105 | 65 | 113 | 0.0 | 0.0 | 0.00 | 0.00 | 0.00 | 92 | 1019.4 |
| 20260830070959 | 66 | 113 | 0.0 | 0.0 | 0.00 | 0.00 | 0.00 | 92 | 1019.1 |
| 20260830070853 | 66 | 113 | 0.0 | 0.0 | 0.00 | 0.00 | 0.00 | 92 | 1019.4 |
| 20260830070748 | 65 | 113 | 0.0 | 0.0 | 0.00 | 0.00 | 0.00 | 92 | 1019.1 |
| 20260830070642 | 65 | 113 | 0.0 | 0.0 | 0.00 | 0.00 | 0.00 | 92 | 1019.4 |
| 20260830070537 | 66 | 113 | 0.0 | 0.0 | 0.00 | 0.00 | 0.00 | 92 | 1019.1 |
| 20260830070430 | 65 | 113 | 0.0 | 0.0 | 0.00 | 0.00 | 0.00 | 92 | 1019.1 |
| 20260830070325 | 65 | 113 | 0.0 | 0.0 | 0.00 | 0.00 | 0.00 | 92 | 1019.4 |
| 20260830070220 | 65 | 113 | 0.0 | 0.0 | 0.00 | 0.00 | 0.00 | 92 | 1019.4 |
| 20260830070114 | 65 | 113 | 0.0 | 0.0 | 0.00 | 0.00 | 0.00 | 92 | 1019.4 |
| 20260830070008 | 65 | 113 | 0.0 | 0.0 | 0.00 | 0.00 | 0.00 | 92 | 1019.1 |
| 20260830065902 | 65 | 113 | 0.0 | 0.0 | 0.00 | 0.00 | 0.00 | 92 | 1019.4 |
| 20260830065757 | 65 | 113 | 0.0 | 0.0 | 0.00 | 0.00 | 0.00 | 92 | 1019.1 |
| 20260830065651 | 65 | 113 | 0.0 | 0.0 | 0.00 | 0.00 | 0.00 | 92 | 1019.4 |
| 20260830065624 | 65 | 113 | 0.0 | 0.0 | 0.00 | 0.00 | 0.00 | 92 | 1019.1 |
| 20260830065545 | 65 | 113 | 0.0 | 0.0 | 0.00 | 0.00 | 0.00 | 92 | 1019.1 |
| 20260830065440 | 65 | 113 | 0.0 | 0.0 | 0.00 | 0.00 | 0.00 | 92 | 1019.1 |
| 20260830065334 | 65 | 113 | 0.0 | 0.0 | 0.00 | 0.00 | 0.00 | 92 | 1019.1 |
| 20260830065228 | 65 | 113 | 0.0 | 0.0 | 0.00 | 0.00 | 0.00 | 92 | 1019.1 |
| 20260830065122 | 65 | 113 | 0.0 | 0.0 | 0.00 | 0.00 | 0.00 | 92 | 1019.1 |
| 20260830065017 | 65 | 113 | 0.0 | 0.0 | 0.00 | 0.00 | 0.00 | 92 | 1019.1 |
| 20260830064911 | 65 | 113 | 0.0 | 0.0 | 0.00 | 0.00 | 0.00 | 92 | 1019.4 |
| 20260830064805 | 65 | 113 | 0.0 | 0.0 | 0.00 | 0.00 | 0.00 | 92 | 1019.1 |
| 20260830064659 | 65 | 113 | 0.0 | 0.0 | 0.00 | 0.00 | 0.00 | 92 | 1019.1 |
| 20260830064612 | 65 | 113 | 0.0 | 0.0 | 0.00 | 0.00 | 0.00 | 92 | 1019.1 |
| 20260830064554 | 65 | 113 | 0.0 | 0.0 | 0.00 | 0.00 | 0.00 | 92 | 1019.1 |
| 20260830064448 | 65 | 113 | 0.0 | 0.0 | 0.00 | 0.00 | 0.00 | 92 | 1019.1 |
| 20260830064342 | 65 | 113 | 0.0 | 0.0 | 0.00 | 0.00 | 0.00 | 92 | 1019.1 |
| 20260830064237 | 65 | 113 | 0.0 | 0.0 | 0.00 | 0.00 | 0.00 | 92 | 1019.1 |
| 20260830064105 | 65 | 113 | 0.0 | 0.0 | 0.00 | 0.00 | 0.00 | 93 | 1019.1 |
| 20260830064026 | 65 | 113 | 0.0 | 0.0 | 0.00 | 0.00 | 0.00 | 93 | 1019.1 |
| 20260830063919 | 65 | 113 | 0.0 | 0.0 | 0.00 | 0.00 | 0.00 | 93 | 1019.1 |
| 20260830063814 | 65 | 113 | 0.0 | 0.0 | 0.00 | 0.00 | 0.00 | 93 | 1019.1 |
| 20260830063709 | 65 | 113 | 0.0 | 0.0 | 0.00 | 0.00 | 0.00 | 93 | 1019.1 |
| 20260830063602 | 65 | 113 | 0.0 | 0.0 | 0.00 | 0.00 | 0.00 | 93 | 1019.1 |
| 20260830063456 | 65 | 113 | 0.0 | 0.0 | 0.00 | 0.00 | 0.00 | 93 | 1019.1 |
| 20260830063351 | 65 | 113 | 0.0 | 0.0 | 0.00 | 0.00 | 0.00 | 93 | 1019.1 |
| 20260830063245 | 65 | 113 | 0.0 | 0.0 | 0.00 | 0.00 | 0.00 | 93 | 1019.1 |
| 20260830063140 | 65 | 113 | 0.0 | 0.0 | 0.00 | 0.00 | 0.00 | 93 | 1019.1 |
| 20260830063034 | 65 | 113 | 0.0 | 0.0 | 0.00 | 0.00 | 0.00 | 93 | 1019.1 |
| 20260830062928 | 65 | 113 | 0.0 | 0.0 | 0.00 | 0.00 | 0.00 | 93 | 1019.1 |
| 20260830062822 | 65 | 113 | 0.0 | 0.0 | 0.00 | 0.00 | 0.00 | 93 | 1019.1 |
| 20260830062717 | 65 | 113 | 0.0 | 0.0 | 0.00 | 0.00 | 0.00 | 93 | 1019.1 |
| 20260830062610 | 65 | 113 | 0.0 | 0.0 | 0.00 | 0.00 | 0.00 | 93 | 1019.1 |
| 20260830062544 | 65 | 113 | 0.0 | 0.0 | 0.00 | 0.00 | 0.00 | 93 | 1019.1 |
| 20260830062505 | 65 | 113 | 0.0 | 0.0 | 0.00 | 0.00 | 0.00 | 93 | 1019.4 |
| 20260830062359 | 65 | 113 | 0.0 | 0.0 | 0.00 | 0.00 | 0.00 | 93 | 1019.1 |
| 20260830062253 | 65 | 113 | 0.0 | 0.0 | 0.00 | 0.00 | 0.00 | 93 | 1019.1 |
| 20260830062148 | 65 | 113 | 0.0 | 0.0 | 0.00 | 0.00 | 0.00 | 93 | 1019.4 |
| 20260830062042 | 65 | 113 | 0.0 | 0.0 | 0.00 | 0.00 | 0.00 | 93 | 1019.1 |
| 20260830061936 | 65 | 113 | 0.0 | 0.0 | 0.00 | 0.00 | 0.00 | 93 | 1019.4 |
| 20260830061831 | 65 | 113 | 0.0 | 0.0 | 0.00 | 0.00 | 0.00 | 93 | 1019.1 |
| 20260830061726 | 65 | 113 | 0.0 | 0.0 | 0.00 | 0.00 | 0.00 | 93 | 1019.1 |
| 20260830061619 | 65 | 113 | 0.0 | 0.0 | 0.00 | 0.00 | 0.00 | 92 | 1019.4 |
| 20260830061531 | 65 | 113 | 0.0 | 0.0 | 0.00 | 0.00 | 0.00 | 92 | 1019.4 |
| 20260830061514 | 65 | 113 | 0.0 | 0.0 | 0.00 | 0.00 | 0.00 | 92 | 1019.1 |
| 20260830061408 | 65 | 113 | 0.0 | 0.0 | 0.00 | 0.00 | 0.00 | 92 | 1019.1 |
| 20260830061302 | 65 | 113 | 0.0 | 0.0 | 0.00 | 0.00 | 0.00 | 92 | 1019.1 |
| 20260830061157 | 65 | 113 | 0.0 | 0.0 | 0.00 | 0.00 | 0.00 | 92 | 1019.1 |
| 20260830061051 | 65 | 113 | 0.0 | 0.0 | 0.00 | 0.00 | 0.00 | 92 | 1019.4 |
| 20260830061025 | 65 | 113 | 0.0 | 0.0 | 0.00 | 0.00 | 0.00 | 92 | 1019.1 |
| 20260830060946 | 65 | 113 | 0.0 | 0.0 | 0.00 | 0.00 | 0.00 | 92 | 1019.1 |
| 20260830060840 | 65 | 113 | 0.0 | 0.0 | 0.00 | 0.00 | 0.00 | 92 | 1019.1 |
| 20260830060734 | 65 | 113 | 0.0 | 0.0 | 0.00 | 0.00 | 0.00 | 92 | 1019.4 |
| 20260830060628 | 65 | 113 | 0.0 | 0.0 | 0.00 | 0.00 | 0.00 | 92 | 1019.4 |
| 20260830060523 | 65 | 113 | 0.0 | 0.0 | 0.00 | 0.00 | 0.00 | 92 | 1019.4 |
| 20260830060417 | 65 | 113 | 0.0 | 0.0 | 0.00 | 0.00 | 0.00 | 92 | 1019.4 |
| 20260830060311 | 65 | 114 | 0.0 | 0.0 | 0.00 | 0.00 | 0.00 | 92 | 1019.1 |
| 20260830060218 | 65 | 119 | 0.0 | 0.0 | 0.00 | 0.00 | 0.00 | 92 | 1019.4 |
| 20260830060110 | 65 | 153 | 0.0 | 0.0 | 0.00 | 0.00 | 0.00 | 92 | 1019.4 |
| 20260830060012 | 65 | 153 | 0.0 | 0.0 | 0.00 | 0.00 | 0.00 | 92 | 1019.4 |
| 20260830055954 | 65 | 153 | 0.0 | 0.0 | 0.00 | 0.00 | 0.00 | 92 | 1019.4 |
| 20260830055849 | 65 | 153 | 0.0 | 0.0 | 0.00 | 0.00 | 0.00 | 92 | 1019.1 |
| 20260830055743 | 65 | 153 | 0.0 | 0.0 | 0.00 | 0.00 | 0.00 | 92 | 1019.4 |
| 20260830055637 | 65 | 153 | 0.0 | 0.0 | 0.00 | 0.00 | 0.00 | 92 | 1019.4 |
| 20260830055504 | 65 | 153 | 0.0 | 0.0 | 0.00 | 0.00 | 0.00 | 92 | 1019.8 |
| 20260830055426 | 65 | 153 | 0.0 | 0.0 | 0.00 | 0.00 | 0.00 | 92 | 1019.4 |
| 20260830055320 | 65 | 153 | 0.0 | 0.0 | 0.00 | 0.00 | 0.00 | 92 | 1019.8 |
| 20260830055213 | 65 | 153 | 0.0 | 0.0 | 0.00 | 0.00 | 0.00 | 92 | 1019.8 |
| 20260830055108 | 65 | 153 | 0.0 | 0.0 | 0.00 | 0.00 | 0.00 | 92 | 1019.4 |
| 20260830055002 | 65 | 153 | 0.0 | 0.0 | 0.00 | 0.00 | 0.00 | 91 | 1019.4 |
| 20260830054857 | 65 | 153 | 0.0 | 0.0 | 0.00 | 0.00 | 0.00 | 91 | 1019.4 |
| 20260830054751 | 65 | 136 | 0.0 | 0.0 | 0.00 | 0.00 | 0.00 | 91 | 1019.8 |
| 20260830054645 | 65 | 136 | 0.0 | 0.0 | 0.00 | 0.00 | 0.00 | 91 | 1019.8 |
| 20260830054540 | 65 | 136 | 0.0 | 0.0 | 0.00 | 0.00 | 0.00 | 91 | 1019.4 |
| 20260830054434 | 65 | 136 | 0.0 | 0.0 | 0.00 | 0.00 | 0.00 | 91 | 1019.8 |
| 20260830054329 | 65 | 136 | 0.0 | 0.0 | 0.00 | 0.00 | 0.00 | 91 | 1019.8 |
| 20260830054222 | 65 | 161 | 0.0 | 0.0 | 0.00 | 0.00 | 0.00 | 91 | 1019.8 |
| 20260830054117 | 65 | 182 | 0.0 | 0.0 | 0.00 | 0.00 | 0.00 | 91 | 1019.8 |
| 20260830054011 | 65 | 182 | 0.0 | 0.0 | 0.00 | 0.00 | 0.00 | 91 | 1019.8 |
| 20260830053945 | 65 | 182 | 0.0 | 0.0 | 0.00 | 0.00 | 0.00 | 91 | 1019.8 |
| 20260830053906 | 65 | 179 | 0.0 | 0.0 | 0.00 | 0.00 | 0.00 | 91 | 1019.4 |
| 20260830053759 | 65 | 175 | 0.0 | 0.0 | 0.00 | 0.00 | 0.00 | 91 | 1019.8 |
| 20260830053654 | 65 | 175 | 0.0 | 0.0 | 0.00 | 0.00 | 0.00 | 90 | 1019.8 |
| 20260830053549 | 65 | 175 | 0.0 | 0.0 | 0.00 | 0.00 | 0.00 | 90 | 1019.8 |
| 20260830053443 | 65 | 175 | 0.0 | 0.0 | 0.00 | 0.00 | 0.00 | 90 | 1019.4 |
| 20260830053337 | 65 | 130 | 0.0 | 0.0 | 0.00 | 0.00 | 0.00 | 90 | 1019.8 |
| 20260830053231 | 65 | 128 | 0.0 | 0.0 | 0.00 | 0.00 | 0.00 | 90 | 1019.4 |
| 20260830053125 | 65 | 127 | 0.0 | 0.0 | 0.00 | 0.00 | 0.00 | 90 | 1019.4 |
| 20260830053019 | 65 | 127 | 0.0 | 0.0 | 0.00 | 0.00 | 0.00 | 90 | 1019.4 |
| 20260830052932 | 65 | 127 | 0.0 | 0.0 | 0.00 | 0.00 | 0.00 | 90 | 1019.4 |
| 20260830052914 | 65 | 127 | 0.0 | 0.0 | 0.00 | 0.00 | 0.00 | 90 | 1019.8 |
| 20260830052809 | 65 | 127 | 0.0 | 0.0 | 0.00 | 0.00 | 0.00 | 90 | 1019.4 |
| 20260830052702 | 65 | 127 | 0.0 | 0.0 | 0.00 | 0.00 | 0.00 | 90 | 1019.8 |
| 20260830052557 | 65 | 127 | 0.0 | 0.0 | 0.00 | 0.00 | 0.00 | 90 | 1019.8 |
| 20260830052451 | 65 | 127 | 0.0 | 0.0 | 0.00 | 0.00 | 0.00 | 90 | 1019.8 |
| 20260830052424 | 65 | 127 | 0.0 | 0.0 | 0.00 | 0.00 | 0.00 | 90 | 1019.4 |
| 20260830052345 | 65 | 127 | 0.0 | 0.0 | 0.00 | 0.00 | 0.00 | 90 | 1019.4 |
| 20260830052240 | 65 | 128 | 0.0 | 0.0 | 0.00 | 0.00 | 0.00 | 90 | 1019.4 |
| 20260830052134 | 66 | 128 | 0.0 | 0.0 | 0.00 | 0.00 | 0.00 | 90 | 1019.4 |
| 20260830052028 | 66 | 128 | 0.0 | 0.0 | 0.00 | 0.00 | 0.00 | 90 | 1019.1 |
| 20260830051922 | 66 | 128 | 0.0 | 0.0 | 0.00 | 0.00 | 0.00 | 90 | 1019.1 |
| 20260830051817 | 66 | 128 | 0.0 | 0.0 | 0.00 | 0.00 | 0.00 | 89 | 1019.8 |
| 20260830051711 | 66 | 128 | 0.0 | 0.0 | 0.00 | 0.00 | 0.00 | 89 | 1019.8 |
| 20260830051606 | 66 | 128 | 0.0 | 0.0 | 0.00 | 0.00 | 0.00 | 89 | 1019.4 |
| 20260830051500 | 66 | 128 | 0.0 | 0.0 | 0.00 | 0.00 | 0.00 | 89 | 1019.4 |
| 20260830051412 | 66 | 128 | 0.0 | 0.0 | 0.00 | 0.00 | 0.00 | 89 | 1019.4 |
| 20260830051354 | 66 | 128 | 0.0 | 0.0 | 0.00 | 0.00 | 0.00 | 89 | 1019.4 |
| 20260830051248 | 66 | 128 | 0.0 | 0.0 | 0.00 | 0.00 | 0.00 | 89 | 1019.4 |
| 20260830051155 | 66 | 128 | 0.0 | 0.0 | 0.00 | 0.00 | 0.00 | 88 | 1019.8 |
| 20260830051036 | 66 | 128 | 0.0 | 0.0 | 0.00 | 0.00 | 0.00 | 88 | 1019.4 |
| 20260830050904 | 66 | 128 | 0.0 | 0.0 | 0.00 | 0.00 | 0.00 | 88 | 1019.4 |
| 20260830050825 | 66 | 128 | 0.0 | 0.0 | 0.00 | 0.00 | 0.00 | 88 | 1019.4 |
| 20260830050720 | 66 | 128 | 0.0 | 0.0 | 0.00 | 0.00 | 0.00 | 88 | 1019.8 |
| 20260830050614 | 66 | 128 | 0.0 | 0.0 | 0.00 | 0.00 | 0.00 | 87 | 1019.8 |
| 20260830050508 | 66 | 128 | 0.0 | 0.0 | 0.00 | 0.00 | 0.00 | 87 | 1019.8 |
| 20260830050402 | 66 | 128 | 0.0 | 0.0 | 0.00 | 0.00 | 0.00 | 87 | 1019.8 |
| 20260830050309 | 66 | 128 | 0.0 | 0.0 | 0.00 | 0.00 | 0.00 | 87 | 1019.8 |
| 20260830050151 | 66 | 128 | 0.0 | 0.0 | 0.00 | 0.00 | 0.00 | 87 | 1019.8 |
| 20260830050132 | 66 | 128 | 0.0 | 0.0 | 0.00 | 0.00 | 0.00 | 86 | 1019.4 |
| 20260830050128 | 66 | 128 | 0.0 | 0.0 | 0.00 | 0.00 | 0.00 | 87 | 1019.8 |
| 20260830050119 | 66 | 128 | 0.0 | 0.0 | 0.00 | 0.00 | 0.00 | 86 | 1019.4 |
| 20260830045834 | 66 | 128 | 0.0 | 0.0 | 0.00 | 0.00 | 0.00 | 86 | 1019.4 |
| 20260830045729 | 66 | 128 | 0.0 | 0.0 | 0.00 | 0.00 | 0.00 | 86 | 1019.8 |
| 20260830045622 | 67 | 128 | 0.0 | 0.0 | 0.00 | 0.00 | 0.00 | 86 | 1019.8 |
| 20260830045516 | 67 | 128 | 0.0 | 0.0 | 0.00 | 0.00 | 0.00 | 86 | 1019.4 |
| 20260830045412 | 67 | 128 | 0.0 | 0.0 | 0.00 | 0.00 | 0.00 | 86 | 1019.4 |
| 20260830045345 | 67 | 128 | 0.0 | 0.0 | 0.00 | 0.00 | 0.00 | 86 | 1019.4 |
| 20260830045306 | 67 | 128 | 0.0 | 0.0 | 0.00 | 0.00 | 0.00 | 86 | 1019.4 |
| 20260830045200 | 67 | 128 | 0.0 | 0.0 | 0.00 | 0.00 | 0.00 | 86 | 1019.4 |
| 20260830045054 | 67 | 128 | 0.0 | 0.0 | 0.00 | 0.00 | 0.00 | 86 | 1019.4 |
| 20260830044949 | 67 | 128 | 0.0 | 0.0 | 0.00 | 0.00 | 0.00 | 86 | 1019.4 |
| 20260830044842 | 67 | 128 | 0.0 | 0.0 | 0.00 | 0.00 | 0.00 | 85 | 1019.4 |
| 20260830044737 | 67 | 128 | 0.0 | 0.0 | 0.00 | 0.00 | 0.00 | 85 | 1019.4 |
| 20260830044631 | 67 | 128 | 0.0 | 0.0 | 0.00 | 0.00 | 0.00 | 85 | 1019.4 |
| 20260830044526 | 67 | 128 | 0.0 | 0.0 | 0.00 | 0.00 | 0.00 | 85 | 1019.4 |
| 20260830044419 | 67 | 128 | 0.0 | 0.0 | 0.00 | 0.00 | 0.00 | 84 | 1019.1 |
| 20260830044331 | 67 | 128 | 0.0 | 0.0 | 0.00 | 0.00 | 0.00 | 83 | 1019.1 |
| 20260830044314 | 68 | 128 | 0.0 | 0.0 | 0.00 | 0.00 | 0.00 | 83 | 1019.4 |
| 20260830044208 | 68 | 128 | 0.0 | 0.0 | 0.00 | 0.00 | 0.00 | 83 | 1019.4 |
| 20260830044103 | 68 | 135 | 0.0 | 0.0 | 0.00 | 0.00 | 0.00 | 82 | 1019.4 |
| 20260830043957 | 68 | 174 | 0.0 | 0.0 | 0.00 | 0.00 | 0.00 | 82 | 1019.4 |
| 20260830043825 | 68 | 201 | 0.0 | 0.0 | 0.00 | 0.00 | 0.00 | 82 | 1019.4 |
| 20260830043746 | 68 | 201 | 0.0 | 0.0 | 0.00 | 0.00 | 0.00 | 81 | 1019.4 |
| 20260830043639 | 68 | 201 | 0.0 | 0.0 | 0.00 | 0.00 | 0.00 | 81 | 1019.4 |
| 20260830043553 | 68 | 201 | 0.0 | 0.0 | 0.00 | 0.00 | 0.00 | 80 | 1019.4 |
| 20260830043545 | 68 | 201 | 0.0 | 0.0 | 0.00 | 0.00 | 0.00 | 80 | 1019.4 |
| 20260830043534 | 68 | 201 | 0.0 | 0.0 | 0.00 | 0.00 | 0.00 | 80 | 1019.4 |
| 20260830043216 | 68 | 201 | 0.0 | 0.0 | 0.00 | 0.00 | 0.00 | 80 | 1019.4 |
| 20260830043111 | 68 | 201 | 0.0 | 0.0 | 0.00 | 0.00 | 0.00 | 80 | 1019.4 |
| 20260830043006 | 68 | 201 | 0.0 | 0.0 | 0.00 | 0.00 | 0.00 | 80 | 1019.4 |
| 20260830042900 | 68 | 201 | 0.0 | 0.0 | 0.00 | 0.00 | 0.00 | 80 | 1019.4 |
| 20260830042811 | 68 | 201 | 0.0 | 0.0 | 0.00 | 0.00 | 0.00 | 80 | 1019.4 |
| 20260830042754 | 68 | 201 | 0.0 | 0.0 | 0.00 | 0.00 | 0.00 | 80 | 1019.4 |
| 20260830042648 | 68 | 201 | 0.0 | 0.0 | 0.00 | 0.00 | 0.00 | 80 | 1019.4 |
| 20260830042542 | 68 | 201 | 0.0 | 0.0 | 0.00 | 0.00 | 0.00 | 80 | 1019.1 |
| 20260830042437 | 68 | 201 | 0.0 | 0.0 | 0.00 | 0.00 | 0.00 | 80 | 1019.8 |
| 20260830042306 | 68 | 201 | 0.0 | 0.0 | 0.00 | 0.00 | 0.00 | 79 | 1019.4 |
| 20260830042226 | 68 | 201 | 0.0 | 0.0 | 0.00 | 0.00 | 0.00 | 79 | 1019.8 |
| 20260830042119 | 68 | 201 | 0.0 | 0.0 | 0.00 | 0.00 | 0.00 | 78 | 1019.4 |
| 20260830042014 | 68 | 201 | 0.0 | 0.0 | 0.00 | 0.00 | 0.00 | 78 | 1019.8 |
| 20260830041909 | 68 | 201 | 0.0 | 0.0 | 0.00 | 0.00 | 0.00 | 78 | 1019.4 |
| 20260830041803 | 68 | 201 | 0.0 | 0.0 | 0.00 | 0.00 | 0.00 | 78 | 1019.8 |
| 20260830041656 | 68 | 201 | 0.0 | 0.0 | 0.00 | 0.00 | 0.00 | 78 | 1019.4 |
| 20260830041550 | 68 | 201 | 0.0 | 0.0 | 0.00 | 0.00 | 0.00 | 78 | 1019.4 |
| 20260830041445 | 68 | 201 | 0.0 | 0.0 | 0.00 | 0.00 | 0.00 | 79 | 1019.4 |
| 20260830041338 | 68 | 201 | 0.0 | 0.0 | 0.00 | 0.00 | 0.00 | 79 | 1019.4 |
| 20260830041233 | 68 | 201 | 0.0 | 0.0 | 0.00 | 0.00 | 0.00 | 79 | 1019.4 |
| 20260830041127 | 68 | 201 | 0.0 | 0.0 | 0.00 | 0.00 | 0.00 | 79 | 1019.4 |
| 20260830041022 | 68 | 201 | 0.0 | 0.0 | 0.00 | 0.00 | 0.00 | 79 | 1019.1 |
| 20260830040916 | 68 | 201 | 0.0 | 0.0 | 0.00 | 0.00 | 0.00 | 78 | 1019.1 |
| 20260830040810 | 68 | 201 | 0.0 | 0.0 | 0.00 | 0.00 | 0.00 | 77 | 1019.4 |
| 20260830040743 | 68 | 201 | 0.0 | 0.0 | 0.00 | 0.00 | 0.00 | 77 | 1019.4 |
| 20260830040704 | 68 | 201 | 0.0 | 0.0 | 0.00 | 0.00 | 0.00 | 77 | 1019.1 |
| 20260830040559 | 69 | 201 | 0.0 | 0.0 | 0.00 | 0.00 | 0.00 | 77 | 1019.4 |
| 20260830040533 | 69 | 201 | 0.0 | 0.0 | 0.00 | 0.00 | 0.00 | 77 | 1019.1 |
| 20260830040529 | 69 | 201 | 0.0 | 0.0 | 0.00 | 0.00 | 0.00 | 77 | 1019.4 |
| 20260830040508 | 69 | 201 | 0.0 | 0.0 | 0.00 | 0.00 | 0.00 | 77 | 1019.4 |
| 20260830040456 | 69 | 201 | 0.0 | 0.0 | 0.00 | 0.00 | 0.00 | 77 | 1019.1 |
| 20260830040136 | 69 | 201 | 0.0 | 0.0 | 0.00 | 0.00 | 0.00 | 76 | 1019.1 |
| 20260830040031 | 69 | 201 | 0.0 | 0.0 | 0.00 | 0.00 | 0.00 | 76 | 1019.1 |
| 20260830035925 | 69 | 201 | 0.0 | 0.0 | 0.00 | 0.00 | 0.00 | 76 | 1019.4 |
| 20260830035819 | 69 | 201 | 0.0 | 0.0 | 0.00 | 0.00 | 0.00 | 76 | 1019.1 |
| 20260830035713 | 69 | 201 | 0.0 | 0.0 | 0.00 | 0.00 | 0.00 | 76 | 1019.1 |
| 20260830035607 | 69 | 201 | 0.0 | 0.0 | 0.00 | 0.00 | 0.00 | 77 | 1019.1 |
| 20260830035502 | 69 | 201 | 0.0 | 0.0 | 0.00 | 0.00 | 0.00 | 77 | 1019.1 |
| 20260830035357 | 69 | 201 | 0.0 | 0.0 | 0.00 | 0.00 | 0.00 | 77 | 1019.1 |
| 20260830035224 | 69 | 201 | 0.0 | 0.0 | 0.00 | 0.00 | 0.00 | 77 | 1019.1 |
| 20260830035135 | 69 | 201 | 0.0 | 0.0 | 0.00 | 0.00 | 0.00 | 77 | 1019.1 |
| 20260830035028 | 69 | 201 | 0.0 | 0.0 | 0.00 | 0.00 | 0.00 | 77 | 1019.1 |
| 20260830034923 | 69 | 201 | 0.0 | 0.0 | 0.00 | 0.00 | 0.00 | 77 | 1019.1 |
| 20260830034818 | 69 | 201 | 0.0 | 0.0 | 0.00 | 0.00 | 0.00 | 77 | 1019.1 |
| 20260830034712 | 69 | 201 | 0.0 | 0.0 | 0.00 | 0.00 | 0.00 | 75 | 1019.1 |
| 20260830034605 | 69 | 201 | 0.0 | 0.0 | 0.00 | 0.00 | 0.00 | 76 | 1019.1 |
| 20260830034459 | 69 | 201 | 0.0 | 0.0 | 0.00 | 0.00 | 0.00 | 75 | 1019.1 |
| 20260830034354 | 69 | 201 | 0.0 | 0.0 | 0.00 | 0.00 | 0.00 | 75 | 1019.1 |
| 20260830034248 | 69 | 201 | 0.0 | 0.0 | 0.00 | 0.00 | 0.00 | 75 | 1019.1 |
| 20260830034210 | 69 | 201 | 0.0 | 0.0 | 0.00 | 0.00 | 0.00 | 76 | 1019.1 |
| 20260830034142 | 69 | 201 | 0.0 | 0.0 | 0.00 | 0.00 | 0.00 | 76 | 1019.1 |
| 20260830034037 | 69 | 201 | 0.0 | 0.0 | 0.00 | 0.00 | 0.00 | 76 | 1019.1 |
| 20260830033931 | 69 | 201 | 0.0 | 0.0 | 0.00 | 0.00 | 0.00 | 76 | 1019.1 |
| 20260830033825 | 69 | 201 | 0.0 | 0.0 | 0.00 | 0.00 | 0.00 | 75 | 1018.7 |
| 20260830033704 | 69 | 201 | 0.0 | 0.0 | 0.00 | 0.00 | 0.00 | 75 | 1019.1 |
| 20260830033614 | 69 | 201 | 0.0 | 0.0 | 0.00 | 0.00 | 0.00 | 75 | 1019.1 |
| 20260830033508 | 70 | 201 | 0.0 | 0.0 | 0.00 | 0.00 | 0.00 | 75 | 1019.4 |
| 20260830033403 | 69 | 201 | 0.0 | 0.0 | 0.00 | 0.00 | 0.00 | 75 | 1019.1 |
| 20260830033257 | 69 | 201 | 0.0 | 0.0 | 0.00 | 0.00 | 0.00 | 74 | 1019.1 |
| 20260830033157 | 69 | 201 | 0.0 | 0.0 | 0.00 | 0.00 | 0.00 | 74 | 1019.4 |
| 20260830033151 | 69 | 204 | 0.0 | 0.0 | 0.00 | 0.00 | 0.00 | 75 | 1019.4 |
| 20260830033046 | 69 | 204 | 0.0 | 0.0 | 0.00 | 0.00 | 0.00 | 73 | 1019.4 |
| 20260830032940 | 69 | 204 | 0.0 | 0.0 | 0.00 | 0.00 | 0.00 | 73 | 1019.4 |
| 20260830032835 | 69 | 204 | 0.0 | 0.0 | 0.00 | 0.00 | 0.00 | 74 | 1019.1 |
| 20260830032729 | 69 | 205 | 0.0 | 0.0 | 0.00 | 0.00 | 0.00 | 75 | 1019.4 |
| 20260830032651 | 69 | 205 | 0.0 | 0.0 | 0.00 | 0.00 | 0.00 | 74 | 1019.4 |
| 20260830032623 | 69 | 198 | 0.0 | 0.0 | 0.00 | 0.00 | 0.00 | 75 | 1019.4 |
| 20260830032518 | 69 | 197 | 0.0 | 0.0 | 0.00 | 0.00 | 0.00 | 75 | 1019.1 |
| 20260830032439 | 69 | 196 | 0.0 | 0.0 | 0.00 | 0.00 | 0.00 | 77 | 1019.1 |
| 20260830032435 | 69 | 196 | 0.0 | 0.0 | 0.00 | 0.00 | 0.00 | 76 | 1019.1 |
| 20260830032426 | 69 | 196 | 0.0 | 0.0 | 0.00 | 0.00 | 0.00 | 77 | 1019.1 |
| 20260830032417 | 69 | 196 | 0.0 | 0.0 | 0.00 | 0.00 | 0.00 | 76 | 1019.1 |
| 20260830032055 | 69 | 196 | 0.0 | 0.0 | 0.00 | 0.00 | 0.00 | 75 | 1019.4 |
| 20260830031949 | 69 | 196 | 0.0 | 0.0 | 0.00 | 0.00 | 0.00 | 76 | 1019.4 |
| 20260830031844 | 69 | 196 | 0.0 | 0.0 | 0.00 | 0.00 | 0.00 | 76 | 1019.1 |
| 20260830031738 | 69 | 196 | 0.0 | 0.0 | 0.00 | 0.00 | 0.00 | 77 | 1019.1 |
| 20260830031632 | 69 | 196 | 0.0 | 0.0 | 0.00 | 0.00 | 0.00 | 76 | 1019.1 |
| 20260830031527 | 69 | 196 | 0.0 | 0.0 | 0.00 | 0.00 | 0.00 | 77 | 1019.4 |
| 20260830031421 | 69 | 196 | 0.0 | 0.0 | 0.00 | 0.00 | 0.00 | 76 | 1019.4 |
| 20260830031315 | 69 | 196 | 0.0 | 0.0 | 0.00 | 0.00 | 0.00 | 76 | 1019.1 |
| 20260830031210 | 69 | 196 | 0.0 | 0.0 | 0.00 | 0.00 | 0.00 | 76 | 1019.1 |
| 20260830031133 | 69 | 196 | 0.0 | 0.0 | 0.00 | 0.00 | 0.00 | 76 | 1019.1 |
| 20260830031103 | 69 | 196 | 0.0 | 0.0 | 0.00 | 0.00 | 0.00 | 76 | 1019.1 |
| 20260830030958 | 69 | 196 | 0.0 | 0.0 | 0.00 | 0.00 | 0.00 | 76 | 1019.1 |
| 20260830030853 | 69 | 196 | 0.0 | 0.0 | 0.00 | 0.00 | 0.00 | 76 | 1019.1 |
| 20260830030748 | 69 | 196 | 0.0 | 0.0 | 0.00 | 0.00 | 0.00 | 76 | 1019.4 |
| 20260830030641 | 69 | 196 | 0.0 | 0.0 | 0.00 | 0.00 | 0.00 | 75 | 1019.1 |
| 20260830030626 | 69 | 196 | 0.0 | 0.0 | 0.00 | 0.00 | 0.00 | 76 | 1019.1 |
| 20260830030535 | 69 | 196 | 0.0 | 0.0 | 0.00 | 0.00 | 0.00 | 75 | 1019.1 |
| 20260830030430 | 69 | 196 | 0.0 | 0.0 | 0.00 | 0.00 | 0.00 | 75 | 1019.1 |
| 20260830030325 | 69 | 196 | 0.0 | 0.0 | 0.00 | 0.00 | 0.00 | 75 | 1019.4 |
| 20260830030219 | 69 | 196 | 0.0 | 0.0 | 0.00 | 0.00 | 0.00 | 75 | 1019.4 |
| 20260830030126 | 69 | 196 | 0.0 | 0.0 | 0.00 | 0.00 | 0.00 | 75 | 1019.4 |
| 20260830030007 | 69 | 196 | 0.0 | 0.0 | 0.00 | 0.00 | 0.00 | 75 | 1019.1 |
| 20260830025902 | 69 | 196 | 0.0 | 0.0 | 0.00 | 0.00 | 0.00 | 74 | 1019.1 |
| 20260830025757 | 69 | 196 | 0.0 | 0.0 | 0.00 | 0.00 | 0.00 | 74 | 1019.1 |
| 20260830025652 | 69 | 196 | 0.0 | 0.0 | 0.00 | 0.00 | 0.00 | 75 | 1019.1 |
| 20260830025614 | 69 | 196 | 0.0 | 0.0 | 0.00 | 0.00 | 0.00 | 75 | 1019.4 |
| 20260830025545 | 69 | 196 | 0.0 | 0.0 | 0.00 | 0.00 | 0.00 | 75 | 1019.4 |
| 20260830025439 | 69 | 196 | 0.0 | 0.0 | 0.00 | 0.00 | 0.00 | 75 | 1019.1 |
| 20260830025334 | 69 | 196 | 0.0 | 0.0 | 0.00 | 0.00 | 0.00 | 74 | 1019.4 |
| 20260830025229 | 69 | 196 | 0.0 | 0.0 | 0.00 | 0.00 | 0.00 | 74 | 1019.4 |
| 20260830025107 | 69 | 196 | 0.0 | 0.0 | 0.00 | 0.00 | 0.00 | 74 | 1019.4 |
| 20260830025016 | 69 | 196 | 0.0 | 0.0 | 0.00 | 0.00 | 0.00 | 73 | 1019.1 |
| 20260830024911 | 69 | 196 | 0.0 | 0.0 | 0.00 | 0.00 | 0.00 | 74 | 1019.1 |
| 20260830024832 | 68 | 196 | 0.0 | 0.0 | 0.00 | 0.00 | 0.00 | 74 | 1019.1 |
| 20260830024828 | 69 | 196 | 0.0 | 0.0 | 0.00 | 0.00 | 0.00 | 74 | 1019.4 |
| 20260830024819 | 69 | 196 | 0.0 | 0.0 | 0.00 | 0.00 | 0.00 | 74 | 1019.1 |
| 20260830024554 | 68 | 196 | 0.0 | 0.0 | 0.00 | 0.00 | 0.00 | 74 | 1019.1 |
| 20260830024449 | 68 | 196 | 0.0 | 0.0 | 0.00 | 0.00 | 0.00 | 74 | 1019.1 |
| 20260830024343 | 68 | 196 | 0.0 | 0.0 | 0.00 | 0.00 | 0.00 | 75 | 1019.1 |
| 20260830024237 | 69 | 196 | 0.0 | 0.0 | 0.00 | 0.00 | 0.00 | 76 | 1018.7 |
| 20260830024132 | 69 | 196 | 0.0 | 0.0 | 0.00 | 0.00 | 0.00 | 77 | 1018.7 |
| 20260830024054 | 69 | 196 | 0.0 | 0.0 | 0.00 | 0.00 | 0.00 | 77 | 1018.7 |
| 20260830024026 | 69 | 196 | 0.0 | 0.0 | 0.00 | 0.00 | 0.00 | 77 | 1019.1 |
| 20260830023920 | 69 | 196 | 0.0 | 0.0 | 0.00 | 0.00 | 0.00 | 76 | 1019.1 |
| 20260830023814 | 69 | 196 | 0.0 | 0.0 | 0.00 | 0.00 | 0.00 | 76 | 1019.1 |
| 20260830023709 | 69 | 196 | 0.0 | 0.0 | 0.00 | 0.00 | 0.00 | 76 | 1019.4 |
| 20260830023548 | 69 | 196 | 0.0 | 0.0 | 0.00 | 0.00 | 0.00 | 76 | 1019.1 |
| 20260830023458 | 69 | 196 | 0.0 | 0.0 | 0.00 | 0.00 | 0.00 | 75 | 1018.7 |
| 20260830023352 | 69 | 196 | 0.0 | 0.0 | 0.00 | 0.00 | 0.00 | 75 | 1019.1 |
| 20260830023247 | 69 | 196 | 0.0 | 0.0 | 0.00 | 0.00 | 0.00 | 74 | 1019.1 |
| 20260830023140 | 69 | 196 | 0.0 | 0.0 | 0.00 | 0.00 | 0.00 | 74 | 1019.1 |
| 20260830023034 | 69 | 196 | 0.0 | 0.0 | 0.00 | 0.00 | 0.00 | 73 | 1019.1 |
| 20260830022929 | 69 | 196 | 0.0 | 0.0 | 0.00 | 0.00 | 0.00 | 73 | 1019.1 |
| 20260830022822 | 69 | 196 | 0.0 | 0.0 | 0.00 | 0.00 | 0.00 | 73 | 1019.4 |
| 20260830022718 | 69 | 196 | 0.0 | 0.0 | 0.00 | 0.00 | 0.00 | 73 | 1019.1 |
| 20260830022611 | 69 | 196 | 0.0 | 0.0 | 0.00 | 0.00 | 0.00 | 73 | 1019.1 |
| 20260830022519 | 69 | 196 | 0.0 | 0.0 | 0.00 | 0.00 | 0.00 | 73 | 1019.1 |
| 20260830022400 | 69 | 196 | 0.0 | 0.0 | 0.00 | 0.00 | 0.00 | 74 | 1019.1 |
| 20260830022255 | 69 | 196 | 0.0 | 0.0 | 0.00 | 0.00 | 0.00 | 74 | 1019.1 |
| 20260830022149 | 69 | 195 | 0.0 | 0.0 | 0.00 | 0.00 | 0.00 | 75 | 1019.1 |
| 20260830022044 | 69 | 193 | 0.0 | 0.0 | 0.00 | 0.00 | 0.00 | 75 | 1018.7 |
| 20260830022028 | 69 | 193 | 0.0 | 0.0 | 0.00 | 0.00 | 0.00 | 75 | 1019.1 |
| 20260830021939 | 69 | 193 | 0.0 | 0.0 | 0.00 | 0.00 | 0.00 | 74 | 1019.1 |
| 20260830021833 | 69 | 193 | 0.0 | 0.0 | 0.00 | 0.00 | 0.00 | 74 | 1019.1 |
| 20260830021739 | 69 | 193 | 0.0 | 0.0 | 0.00 | 0.00 | 0.00 | 74 | 1019.1 |
| 20260830021622 | 69 | 193 | 0.0 | 0.0 | 0.00 | 0.00 | 0.00 | 74 | 1019.1 |
| 20260830021515 | 68 | 193 | 0.0 | 0.0 | 0.00 | 0.00 | 0.00 | 73 | 1019.1 |
| 20260830021410 | 68 | 193 | 0.0 | 0.0 | 0.00 | 0.00 | 0.00 | 74 | 1019.1 |
| 20260830021308 | 68 | 193 | 0.0 | 0.0 | 0.00 | 0.00 | 0.00 | 75 | 1019.1 |
| 20260830021304 | 68 | 193 | 0.0 | 0.0 | 0.00 | 0.00 | 0.00 | 74 | 1018.7 |
| 20260830021255 | 68 | 193 | 0.0 | 0.0 | 0.00 | 0.00 | 0.00 | 75 | 1019.1 |
| 20260830021234 | 68 | 193 | 0.0 | 0.0 | 0.00 | 0.00 | 0.00 | 75 | 1019.1 |
| 20260830020947 | 68 | 193 | 0.0 | 0.0 | 0.00 | 0.00 | 0.00 | 76 | 1019.1 |
| 20260830020842 | 68 | 193 | 0.0 | 0.0 | 0.00 | 0.00 | 0.00 | 75 | 1018.7 |
| 20260830020735 | 68 | 193 | 0.0 | 0.0 | 0.00 | 0.00 | 0.00 | 75 | 1019.1 |
| 20260830020630 | 68 | 193 | 0.0 | 0.0 | 0.00 | 0.00 | 0.00 | 75 | 1019.1 |
| 20260830020509 | 68 | 193 | 0.0 | 0.0 | 0.00 | 0.00 | 0.00 | 75 | 1019.1 |
| 20260830020419 | 68 | 193 | 0.0 | 0.0 | 0.00 | 0.00 | 0.00 | 74 | 1019.1 |
| 20260830020313 | 69 | 193 | 0.0 | 0.0 | 0.00 | 0.00 | 0.00 | 74 | 1019.1 |
| 20260830020208 | 69 | 193 | 0.0 | 0.0 | 0.00 | 0.00 | 0.00 | 74 | 1019.1 |
| 20260830020115 | 69 | 193 | 0.0 | 0.0 | 0.00 | 0.00 | 0.00 | 74 | 1019.4 |
| 20260830020003 | 69 | 193 | 0.0 | 0.0 | 0.00 | 0.00 | 0.00 | 74 | 1019.1 |
| 20260830015956 | 69 | 193 | 0.0 | 0.0 | 0.00 | 0.00 | 0.00 | 74 | 1019.1 |
| 20260830015850 | 69 | 193 | 0.0 | 0.0 | 0.00 | 0.00 | 0.00 | 74 | 1019.1 |
| 20260830015745 | 69 | 193 | 0.0 | 0.0 | 0.00 | 0.00 | 0.00 | 74 | 1019.1 |
| 20260830015640 | 69 | 193 | 0.0 | 0.0 | 0.00 | 0.00 | 0.00 | 73 | 1019.1 |
| 20260830015533 | 69 | 193 | 0.0 | 0.0 | 0.00 | 0.00 | 0.00 | 73 | 1019.1 |
| 20260830015456 | 69 | 193 | 0.0 | 0.0 | 0.00 | 0.00 | 0.00 | 73 | 1019.1 |
| 20260830015428 | 69 | 193 | 0.0 | 0.0 | 0.00 | 0.00 | 0.00 | 72 | 1019.1 |
| 20260830015323 | 69 | 193 | 0.0 | 0.0 | 0.00 | 0.00 | 0.00 | 72 | 1019.1 |
| 20260830015216 | 69 | 193 | 0.0 | 0.0 | 0.00 | 0.00 | 0.00 | 72 | 1019.1 |
| 20260830015111 | 69 | 193 | 0.0 | 0.0 | 0.00 | 0.00 | 0.00 | 72 | 1019.1 |
| 20260830015005 | 69 | 193 | 0.0 | 0.0 | 0.00 | 0.00 | 0.00 | 72 | 1019.1 |
| 20260830014950 | 69 | 193 | 0.0 | 0.0 | 0.00 | 0.00 | 0.00 | 72 | 1019.1 |
| 20260830014900 | 69 | 193 | 0.0 | 0.0 | 0.00 | 0.00 | 0.00 | 72 | 1019.1 |
| 20260830014754 | 69 | 193 | 0.0 | 0.0 | 0.00 | 0.00 | 0.00 | 72 | 1019.1 |
| 20260830014648 | 69 | 193 | 0.0 | 0.0 | 0.00 | 0.00 | 0.00 | 73 | 1019.1 |
| 20260830014543 | 69 | 193 | 0.0 | 0.0 | 0.00 | 0.00 | 0.00 | 73 | 1019.1 |
| 20260830014437 | 69 | 193 | 0.0 | 0.0 | 0.00 | 0.00 | 0.00 | 73 | 1019.1 |
| 20260830014331 | 69 | 193 | 0.0 | 0.0 | 0.00 | 0.00 | 0.00 | 72 | 1019.1 |
| 20260830014226 | 69 | 193 | 0.0 | 0.0 | 0.00 | 0.00 | 0.00 | 72 | 1019.1 |
| 20260830014120 | 70 | 193 | 0.0 | 0.0 | 0.00 | 0.00 | 0.00 | 72 | 1019.1 |
| 20260830014014 | 70 | 193 | 0.0 | 0.0 | 0.00 | 0.00 | 0.00 | 72 | 1019.1 |
| 20260830013908 | 70 | 193 | 0.0 | 0.0 | 0.00 | 0.00 | 0.00 | 72 | 1019.1 |
| 20260830013803 | 70 | 193 | 0.0 | 0.0 | 0.00 | 0.00 | 0.00 | 71 | 1018.7 |
| 20260830013706 | 70 | 193 | 0.0 | 0.0 | 0.00 | 0.00 | 0.00 | 71 | 1019.4 |
| 20260830013657 | 70 | 193 | 0.0 | 0.0 | 0.00 | 0.00 | 0.00 | 71 | 1019.1 |
| 20260830013648 | 70 | 193 | 0.0 | 0.0 | 0.00 | 0.00 | 0.00 | 71 | 1018.7 |
| 20260830013341 | 70 | 193 | 0.0 | 0.0 | 0.00 | 0.00 | 0.00 | 71 | 1019.1 |
| 20260830013235 | 71 | 193 | 0.0 | 0.0 | 0.00 | 0.00 | 0.00 | 71 | 1019.1 |
| 20260830013129 | 71 | 193 | 0.0 | 0.0 | 0.00 | 0.00 | 0.00 | 71 | 1019.1 |
| 20260830013036 | 71 | 193 | 0.0 | 0.0 | 0.00 | 0.00 | 0.00 | 71 | 1018.7 |
| 20260830012918 | 71 | 193 | 0.0 | 0.0 | 0.00 | 0.00 | 0.00 | 70 | 1018.7 |
| 20260830012812 | 71 | 193 | 0.0 | 0.0 | 0.00 | 0.00 | 0.00 | 70 | 1019.1 |
| 20260830012706 | 71 | 193 | 0.0 | 0.0 | 0.00 | 0.00 | 0.00 | 70 | 1019.1 |
| 20260830012601 | 71 | 193 | 0.0 | 0.0 | 0.00 | 0.00 | 0.00 | 69 | 1018.7 |
| 20260830012508 | 71 | 193 | 0.0 | 0.0 | 0.00 | 0.00 | 0.00 | 69 | 1019.1 |
| 20260830012418 | 71 | 193 | 0.0 | 0.0 | 0.00 | 0.00 | 0.00 | 69 | 1019.1 |
| 20260830012403 | 71 | 193 | 0.0 | 0.0 | 0.00 | 0.00 | 0.00 | 69 | 1019.1 |
| 20260830012245 | 71 | 193 | 0.0 | 0.0 | 0.00 | 0.00 | 0.00 | 69 | 1018.7 |
| 20260830012138 | 71 | 193 | 0.0 | 0.0 | 0.00 | 0.00 | 0.00 | 69 | 1018.7 |
| 20260830012046 | 71 | 193 | 0.0 | 0.0 | 0.00 | 0.00 | 0.00 | 68 | 1018.7 |
| 20260830011911 | 71 | 193 | 0.0 | 0.0 | 0.00 | 0.00 | 0.00 | 68 | 1019.1 |
| 20260830011821 | 71 | 193 | 0.0 | 0.0 | 0.00 | 0.00 | 0.00 | 69 | 1018.7 |
| 20260830011728 | 71 | 193 | 0.0 | 0.0 | 0.00 | 0.00 | 0.00 | 69 | 1019.1 |
| 20260830011610 | 71 | 193 | 0.0 | 0.0 | 0.00 | 0.00 | 0.00 | 70 | 1019.1 |
| 20260830011504 | 71 | 193 | 0.0 | 0.0 | 0.00 | 0.00 | 0.00 | 69 | 1019.1 |
| 20260830011405 | 71 | 193 | 0.0 | 0.0 | 0.00 | 0.00 | 0.00 | 70 | 1018.7 |
| 20260830011358 | 71 | 193 | 0.0 | 0.0 | 0.00 | 0.00 | 0.00 | 70 | 1018.7 |
| 20260830011253 | 72 | 193 | 0.0 | 0.0 | 0.00 | 0.00 | 0.00 | 70 | 1018.7 |
| 20260830011200 | 72 | 193 | 0.0 | 0.0 | 0.00 | 0.00 | 0.00 | 68 | 1019.1 |
| 20260830011131 | 72 | 193 | 0.0 | 0.0 | 0.00 | 0.00 | 0.00 | 67 | 1018.7 |
| 20260830011126 | 72 | 193 | 0.0 | 0.0 | 0.00 | 0.00 | 0.00 | 68 | 1018.7 |
| 20260830011118 | 72 | 193 | 0.0 | 0.0 | 0.00 | 0.00 | 0.00 | 67 | 1019.1 |
| 20260830010831 | 72 | 193 | 0.0 | 0.0 | 0.00 | 0.00 | 0.00 | 67 | 1019.1 |
| 20260830010725 | 72 | 193 | 0.0 | 0.0 | 0.00 | 0.00 | 0.00 | 66 | 1018.7 |
| 20260830010645 | 72 | 191 | 0.0 | 0.0 | 0.00 | 0.00 | 0.00 | 66 | 1019.1 |
| 20260830010641 | 72 | 198 | 0.0 | 0.0 | 0.00 | 0.00 | 0.00 | 66 | 1019.1 |
| 20260830010620 | 72 | 182 | 0.0 | 0.0 | 0.00 | 0.00 | 0.00 | 66 | 1018.7 |
| 20260830010611 | 72 | 186 | 0.0 | 0.0 | 0.00 | 0.00 | 0.00 | 66 | 1019.1 |
| 20260830010302 | 72 | 193 | 0.0 | 0.0 | 0.00 | 0.00 | 0.00 | 66 | 1018.7 |
| 20260830010154 | 72 | 196 | 0.0 | 0.0 | 0.00 | 0.00 | 0.00 | 66 | 1018.7 |
| 20260830005944 | 72 | 196 | 0.0 | 0.0 | 0.00 | 0.00 | 0.00 | 66 | 1018.7 |
| 20260830005838 | 72 | 188 | 0.0 | 0.0 | 0.00 | 0.00 | 0.00 | 67 | 1019.1 |
| 20260830005732 | 72 | 188 | 0.0 | 0.0 | 0.00 | 0.00 | 0.00 | 67 | 1018.7 |
| 20260830005627 | 72 | 196 | 0.0 | 0.0 | 0.00 | 0.00 | 0.00 | 67 | 1018.7 |
| 20260830005609 | 72 | 196 | 0.0 | 0.0 | 0.00 | 0.00 | 0.00 | 66 | 1018.7 |
| 20260830005605 | 72 | 196 | 0.0 | 0.0 | 0.00 | 0.00 | 0.00 | 67 | 1019.1 |
| 20260830005556 | 72 | 196 | 0.0 | 0.0 | 0.00 | 0.00 | 0.00 | 67 | 1018.7 |
| 20260830005310 | 72 | 196 | 0.0 | 0.0 | 0.00 | 0.00 | 0.00 | 66 | 1019.1 |
| 20260830005204 | 72 | 188 | 0.0 | 0.0 | 0.00 | 0.00 | 0.00 | 66 | 1018.7 |
| 20260830005106 | 72 | 188 | 0.0 | 0.0 | 0.00 | 0.00 | 0.00 | 66 | 1019.1 |
| 20260830005058 | 72 | 188 | 0.0 | 0.0 | 0.00 | 0.00 | 0.00 | 65 | 1018.7 |
| 20260830005049 | 72 | 188 | 0.0 | 0.0 | 0.00 | 0.00 | 0.00 | 65 | 1019.1 |
| 20260830004742 | 72 | 197 | 0.0 | 0.0 | 0.00 | 0.00 | 0.00 | 65 | 1019.1 |
| 20260830004635 | 73 | 197 | 0.0 | 0.0 | 0.00 | 0.00 | 0.00 | 65 | 1019.1 |
| 20260830004529 | 73 | 197 | 0.0 | 0.0 | 0.00 | 0.00 | 0.00 | 64 | 1019.1 |
| 20260830004424 | 73 | 200 | 0.0 | 0.0 | 0.00 | 0.00 | 0.00 | 64 | 1018.7 |
| 20260830004319 | 73 | 200 | 0.0 | 0.0 | 0.00 | 0.00 | 0.00 | 64 | 1018.7 |
| 20260830004214 | 73 | 200 | 0.0 | 0.0 | 0.00 | 0.00 | 0.00 | 64 | 1019.1 |
| 20260830004127 | 74 | 212 | 0.0 | 4.0 | 0.00 | 0.00 | 0.00 | 61 | 1018.7 |
| 20260830004123 | 73 | 198 | 0.0 | 2.0 | 0.00 | 0.00 | 0.00 | 63 | 1018.7 |
| 20260830004118 | 73 | 200 | 0.0 | 1.0 | 0.00 | 0.00 | 0.00 | 64 | 1018.7 |
| 20260830004109 | 73 | 200 | 0.0 | 1.0 | 0.00 | 0.00 | 0.00 | 63 | 1018.7 |
| 20260830004100 | 73 | 199 | 0.0 | 2.0 | 0.00 | 0.00 | 0.00 | 63 | 1018.7 |
| 20260830003838 | 73 | 198 | 0.0 | 2.0 | 0.00 | 0.00 | 0.00 | 63 | 1018.7 |
| 20260830003830 | 73 | 198 | 0.0 | 2.0 | 0.00 | 0.00 | 0.00 | 63 | 1018.7 |
| 20260830003609 | 73 | 197 | 0.0 | 2.0 | 0.00 | 0.00 | 0.00 | 62 | 1018.7 |
| 20260830003605 | 73 | 197 | 0.0 | 2.0 | 0.00 | 0.00 | 0.00 | 63 | 1018.7 |
| 20260830003556 | 73 | 197 | 0.0 | 2.0 | 0.00 | 0.00 | 0.00 | 63 | 1018.7 |
| 20260830003548 | 73 | 197 | 0.0 | 2.0 | 0.00 | 0.00 | 0.00 | 63 | 1018.7 |
| 20260830003326 | 73 | 197 | 0.0 | 2.0 | 0.00 | 0.00 | 0.00 | 62 | 1018.4 |
| 20260830003318 | 73 | 198 | 1.0 | 2.0 | 0.00 | 0.00 | 0.00 | 62 | 1018.7 |
| 20260830003053 | 73 | 186 | 0.0 | 2.0 | 0.00 | 0.00 | 0.00 | 62 | 1018.7 |
| 20260830003044 | 73 | 187 | 1.0 | 2.0 | 0.00 | 0.00 | 0.00 | 62 | 1018.7 |
| 20260830002821 | 73 | 183 | 0.0 | 2.0 | 0.00 | 0.00 | 0.00 | 62 | 1018.7 |
| 20260830002817 | 73 | 183 | 0.0 | 2.0 | 0.00 | 0.00 | 0.00 | 62 | 1018.7 |
| 20260830002809 | 74 | 183 | 0.0 | 4.0 | 0.00 | 0.00 | 0.00 | 62 | 1018.7 |
| 20260830002800 | 74 | 183 | 0.0 | 4.0 | 0.00 | 0.00 | 0.00 | 62 | 1018.7 |
| 20260830002532 | 74 | 172 | 1.0 | 4.0 | 0.00 | 0.00 | 0.00 | 62 | 1018.7 |
| 20260830002523 | 74 | 212 | 0.0 | 4.0 | 0.00 | 0.00 | 0.00 | 61 | 1018.7 |
| 20260830002236 | 74 | 199 | 1.0 | 4.0 | 0.00 | 0.00 | 0.00 | 61 | 1018.7 |
| 20260830002130 | 74 | 191 | 1.0 | 4.0 | 0.00 | 0.00 | 0.00 | 61 | 1018.7 |
| 20260830002025 | 74 | 196 | 0.0 | 4.0 | 0.00 | 0.00 | 0.00 | 61 | 1019.1 |
| 20260830001918 | 74 | 196 | 0.0 | 4.0 | 0.00 | 0.00 | 0.00 | 61 | 1018.7 |
| 20260830001813 | 74 | 165 | 0.0 | 4.0 | 0.00 | 0.00 | 0.00 | 61 | 1018.7 |
| 20260830001757 | 74 | 161 | 2.0 | 4.0 | 0.00 | 0.00 | 0.00 | 61 | 1018.7 |
| 20260830001707 | 74 | 204 | 0.0 | 3.0 | 0.00 | 0.00 | 0.00 | 61 | 1018.7 |
| 20260830001602 | 74 | 191 | 0.0 | 3.0 | 0.00 | 0.00 | 0.00 | 61 | 1018.7 |
| 20260830001455 | 74 | 203 | 0.0 | 3.0 | 0.00 | 0.00 | 0.00 | 61 | 1018.7 |
| 20260830001350 | 74 | 194 | 0.0 | 3.0 | 0.00 | 0.00 | 0.00 | 61 | 1018.7 |
| 20260830001251 | 74 | 196 | 0.0 | 3.0 | 0.00 | 0.00 | 0.00 | 60 | 1018.7 |
| 20260830001244 | 74 | 175 | 0.0 | 3.0 | 0.00 | 0.00 | 0.00 | 61 | 1018.7 |
| 20260830001140 | 74 | 222 | 2.0 | 3.0 | 0.00 | 0.00 | 0.00 | 60 | 1019.1 |
| 20260830001033 | 74 | 182 | 0.0 | 2.0 | 0.00 | 0.00 | 0.00 | 60 | 1018.7 |
| 20260830000928 | 74 | 182 | 0.0 | 3.0 | 0.00 | 0.00 | 0.00 | 60 | 1018.7 |
| 20260830000823 | 74 | 175 | 2.0 | 3.0 | 0.00 | 0.00 | 0.00 | 60 | 1018.7 |
| 20260830000745 | 74 | 164 | 2.0 | 3.0 | 0.00 | 0.00 | 0.00 | 60 | 1018.7 |
| 20260830000717 | 74 | 248 | 1.0 | 3.0 | 0.00 | 0.00 | 0.00 | 60 | 1018.7 |
| 20260830000610 | 74 | 248 | 0.0 | 3.0 | 0.00 | 0.00 | 0.00 | 60 | 1018.7 |
| 20260830000505 | 75 | 248 | 0.0 | 4.0 | 0.00 | 0.00 | 0.00 | 60 | 1018.7 |